<?xml version="1.0" encoding="UTF-8" standalone="no" ?>
<gpx xmlns="http://www.topografix.com/GPX/1/1" xmlns:xsi="http://www.w3.org/2001/XMLSchema-instance" xsi:schemaLocation="http://www.topografix.com/GPX/1/1 http://www.topografix.com/GPX/1/1/gpx.xsd" version="1.1" creator="VisuGPX - https://www.visugpx.com">
  <metadata>
    <name>st auban</name>
  </metadata>
  <trk>
    <name><![CDATA[st auban_1]]></name>
    <trkseg>
      <trkpt lat="44.0675" lon="5.99329">
        <ele>462</ele>
        <time>2023-11-17T20:52:34Z</time>
      </trkpt>
      <trkpt lat="44.06753" lon="5.99333">
        <ele>462</ele>
        <time>2023-11-17T20:52:35Z</time>
      </trkpt>
      <trkpt lat="44.06755" lon="5.9934">
        <ele>462</ele>
        <time>2023-11-17T18:13:44Z</time>
      </trkpt>
      <trkpt lat="44.06747" lon="5.99339">
        <ele>462</ele>
        <time>2023-11-17T18:13:46Z</time>
      </trkpt>
      <trkpt lat="44.06739" lon="5.99356">
        <ele>463</ele>
        <time>2023-11-17T18:13:49Z</time>
      </trkpt>
      <trkpt lat="44.06743" lon="5.9942">
        <ele>465</ele>
        <time>2023-11-17T18:14:00Z</time>
      </trkpt>
      <trkpt lat="44.06752" lon="5.99448">
        <ele>465</ele>
        <time>2023-11-17T18:14:05Z</time>
      </trkpt>
      <trkpt lat="44.0677" lon="5.99491">
        <ele>466</ele>
        <time>2023-11-17T18:14:14Z</time>
      </trkpt>
      <trkpt lat="44.06777" lon="5.99512">
        <ele>466</ele>
        <time>2023-11-17T18:14:17Z</time>
      </trkpt>
      <trkpt lat="44.06784" lon="5.99547">
        <ele>465</ele>
        <time>2023-11-17T18:14:24Z</time>
      </trkpt>
      <trkpt lat="44.06801" lon="5.99589">
        <ele>464</ele>
        <time>2023-11-17T18:14:32Z</time>
      </trkpt>
      <trkpt lat="44.06813" lon="5.99666">
        <ele>461</ele>
        <time>2023-11-17T18:14:45Z</time>
      </trkpt>
      <trkpt lat="44.0682" lon="5.99681">
        <ele>460</ele>
        <time>2023-11-17T18:14:48Z</time>
      </trkpt>
      <trkpt lat="44.06828" lon="5.99685">
        <ele>461</ele>
        <time>2023-11-17T18:14:50Z</time>
      </trkpt>
      <trkpt lat="44.06834" lon="5.99693">
        <ele>461</ele>
        <time>2023-11-17T18:14:52Z</time>
      </trkpt>
      <trkpt lat="44.06842" lon="5.99685">
        <ele>462</ele>
        <time>2023-11-17T18:14:54Z</time>
      </trkpt>
      <trkpt lat="44.06845" lon="5.99686">
        <ele>462</ele>
        <time>2023-11-17T18:14:55Z</time>
      </trkpt>
      <trkpt lat="44.06852" lon="5.9973">
        <ele>458</ele>
        <time>2023-11-17T18:15:02Z</time>
      </trkpt>
      <trkpt lat="44.06861" lon="5.99746">
        <ele>457</ele>
        <time>2023-11-17T18:15:06Z</time>
      </trkpt>
      <trkpt lat="44.0688" lon="5.99768">
        <ele>456</ele>
        <time>2023-11-17T18:15:12Z</time>
      </trkpt>
      <trkpt lat="44.06951" lon="5.99825">
        <ele>458</ele>
        <time>2023-11-17T18:15:31Z</time>
      </trkpt>
      <trkpt lat="44.06976" lon="5.99842">
        <ele>459</ele>
        <time>2023-11-17T18:15:37Z</time>
      </trkpt>
      <trkpt lat="44.07013" lon="5.9986">
        <ele>460</ele>
        <time>2023-11-17T18:15:46Z</time>
      </trkpt>
      <trkpt lat="44.07086" lon="5.9992">
        <ele>459</ele>
        <time>2023-11-17T18:16:06Z</time>
      </trkpt>
      <trkpt lat="44.0714" lon="5.9995">
        <ele>457</ele>
        <time>2023-11-17T18:16:20Z</time>
      </trkpt>
      <trkpt lat="44.07166" lon="5.99961">
        <ele>456</ele>
        <time>2023-11-17T18:16:26Z</time>
      </trkpt>
      <trkpt lat="44.07185" lon="5.99972">
        <ele>453</ele>
        <time>2023-11-17T18:16:31Z</time>
      </trkpt>
      <trkpt lat="44.0721" lon="5.99981">
        <ele>451</ele>
        <time>2023-11-17T18:16:37Z</time>
      </trkpt>
      <trkpt lat="44.07223" lon="5.99981">
        <ele>451</ele>
        <time>2023-11-17T18:16:40Z</time>
      </trkpt>
      <trkpt lat="44.07238" lon="5.99971">
        <ele>453</ele>
        <time>2023-11-17T18:16:44Z</time>
      </trkpt>
      <trkpt lat="44.07271" lon="5.99924">
        <ele>462</ele>
        <time>2023-11-17T18:16:55Z</time>
      </trkpt>
      <trkpt lat="44.07304" lon="5.99895">
        <ele>461</ele>
        <time>2023-11-17T18:17:04Z</time>
      </trkpt>
      <trkpt lat="44.07331" lon="5.99867">
        <ele>462</ele>
        <time>2023-11-17T18:17:12Z</time>
      </trkpt>
      <trkpt lat="44.07339" lon="5.99855">
        <ele>463</ele>
        <time>2023-11-17T18:17:15Z</time>
      </trkpt>
      <trkpt lat="44.07348" lon="5.99833">
        <ele>465</ele>
        <time>2023-11-17T18:17:19Z</time>
      </trkpt>
      <trkpt lat="44.07369" lon="5.99593">
        <ele>470</ele>
        <time>2023-11-17T18:17:59Z</time>
      </trkpt>
      <trkpt lat="44.07377" lon="5.99472">
        <ele>471</ele>
        <time>2023-11-17T18:18:20Z</time>
      </trkpt>
      <trkpt lat="44.07399" lon="5.99301">
        <ele>475</ele>
        <time>2023-11-17T18:18:49Z</time>
      </trkpt>
      <trkpt lat="44.07405" lon="5.99287">
        <ele>475</ele>
        <time>2023-11-17T18:18:52Z</time>
      </trkpt>
      <trkpt lat="44.07437" lon="5.99238">
        <ele>476</ele>
        <time>2023-11-17T18:19:03Z</time>
      </trkpt>
      <trkpt lat="44.0745" lon="5.99224">
        <ele>476</ele>
        <time>2023-11-17T18:19:07Z</time>
      </trkpt>
      <trkpt lat="44.07461" lon="5.9922">
        <ele>477</ele>
        <time>2023-11-17T18:19:09Z</time>
      </trkpt>
      <trkpt lat="44.07494" lon="5.99266">
        <ele>477</ele>
        <time>2023-11-17T18:19:20Z</time>
      </trkpt>
      <trkpt lat="44.07628" lon="5.99439">
        <ele>479</ele>
        <time>2023-11-17T18:20:03Z</time>
      </trkpt>
      <trkpt lat="44.0764" lon="5.99448">
        <ele>480</ele>
        <time>2023-11-17T18:20:06Z</time>
      </trkpt>
      <trkpt lat="44.07664" lon="5.99458">
        <ele>480</ele>
        <time>2023-11-17T18:20:12Z</time>
      </trkpt>
      <trkpt lat="44.07672" lon="5.99458">
        <ele>480</ele>
        <time>2023-11-17T18:20:14Z</time>
      </trkpt>
      <trkpt lat="44.07682" lon="5.99456">
        <ele>479</ele>
        <time>2023-11-17T18:20:16Z</time>
      </trkpt>
      <trkpt lat="44.077" lon="5.99445">
        <ele>478</ele>
        <time>2023-11-17T18:20:21Z</time>
      </trkpt>
      <trkpt lat="44.07715" lon="5.99426">
        <ele>478</ele>
        <time>2023-11-17T18:20:25Z</time>
      </trkpt>
      <trkpt lat="44.07762" lon="5.99385">
        <ele>480</ele>
        <time>2023-11-17T18:20:38Z</time>
      </trkpt>
      <trkpt lat="44.07784" lon="5.99375">
        <ele>481</ele>
        <time>2023-11-17T18:20:44Z</time>
      </trkpt>
      <trkpt lat="44.07828" lon="5.9937">
        <ele>482</ele>
        <time>2023-11-17T18:20:54Z</time>
      </trkpt>
      <trkpt lat="44.0785" lon="5.99374">
        <ele>481</ele>
        <time>2023-11-17T18:20:59Z</time>
      </trkpt>
      <trkpt lat="44.07859" lon="5.99373">
        <ele>481</ele>
        <time>2023-11-17T18:21:01Z</time>
      </trkpt>
      <trkpt lat="44.07889" lon="5.99349">
        <ele>484</ele>
        <time>2023-11-17T18:21:09Z</time>
      </trkpt>
      <trkpt lat="44.07902" lon="5.99325">
        <ele>487</ele>
        <time>2023-11-17T18:21:15Z</time>
      </trkpt>
      <trkpt lat="44.07919" lon="5.99308">
        <ele>489</ele>
        <time>2023-11-17T18:21:19Z</time>
      </trkpt>
      <trkpt lat="44.07946" lon="5.99306">
        <ele>487</ele>
        <time>2023-11-17T18:21:26Z</time>
      </trkpt>
      <trkpt lat="44.0795" lon="5.99298">
        <ele>488</ele>
        <time>2023-11-17T18:21:27Z</time>
      </trkpt>
      <trkpt lat="44.07949" lon="5.99293">
        <ele>489</ele>
        <time>2023-11-17T18:21:28Z</time>
      </trkpt>
      <trkpt lat="44.0794" lon="5.99278">
        <ele>492</ele>
        <time>2023-11-17T18:21:31Z</time>
      </trkpt>
      <trkpt lat="44.07927" lon="5.99264">
        <ele>495</ele>
        <time>2023-11-17T18:21:35Z</time>
      </trkpt>
      <trkpt lat="44.07918" lon="5.99246">
        <ele>498</ele>
        <time>2023-11-17T18:21:39Z</time>
      </trkpt>
      <trkpt lat="44.07919" lon="5.99223">
        <ele>502</ele>
        <time>2023-11-17T18:21:43Z</time>
      </trkpt>
      <trkpt lat="44.07915" lon="5.99201">
        <ele>506</ele>
        <time>2023-11-17T18:21:47Z</time>
      </trkpt>
      <trkpt lat="44.0792" lon="5.99197">
        <ele>506</ele>
        <time>2023-11-17T18:21:48Z</time>
      </trkpt>
      <trkpt lat="44.07924" lon="5.99187">
        <ele>507</ele>
        <time>2023-11-17T18:21:50Z</time>
      </trkpt>
      <trkpt lat="44.07933" lon="5.99176">
        <ele>508</ele>
        <time>2023-11-17T18:21:53Z</time>
      </trkpt>
      <trkpt lat="44.0794" lon="5.99174">
        <ele>508</ele>
        <time>2023-11-17T18:21:54Z</time>
      </trkpt>
      <trkpt lat="44.07954" lon="5.99178">
        <ele>506</ele>
        <time>2023-11-17T18:21:58Z</time>
      </trkpt>
      <trkpt lat="44.0796" lon="5.99174">
        <ele>506</ele>
        <time>2023-11-17T18:21:59Z</time>
      </trkpt>
      <trkpt lat="44.07967" lon="5.99162">
        <ele>508</ele>
        <time>2023-11-17T18:22:02Z</time>
      </trkpt>
      <trkpt lat="44.07972" lon="5.9916">
        <ele>508</ele>
        <time>2023-11-17T18:22:03Z</time>
      </trkpt>
      <trkpt lat="44.07977" lon="5.99162">
        <ele>507</ele>
        <time>2023-11-17T18:22:04Z</time>
      </trkpt>
      <trkpt lat="44.07983" lon="5.99181">
        <ele>503</ele>
        <time>2023-11-17T18:22:08Z</time>
      </trkpt>
      <trkpt lat="44.07985" lon="5.99181">
        <ele>503</ele>
        <time>2023-11-17T18:22:08Z</time>
      </trkpt>
      <trkpt lat="44.07995" lon="5.99165">
        <ele>505</ele>
        <time>2023-11-17T18:22:12Z</time>
      </trkpt>
      <trkpt lat="44.08002" lon="5.99172">
        <ele>503</ele>
        <time>2023-11-17T18:22:14Z</time>
      </trkpt>
      <trkpt lat="44.08004" lon="5.99184">
        <ele>500</ele>
        <time>2023-11-17T18:22:16Z</time>
      </trkpt>
      <trkpt lat="44.08022" lon="5.99193">
        <ele>497</ele>
        <time>2023-11-17T18:22:20Z</time>
      </trkpt>
      <trkpt lat="44.08034" lon="5.99196">
        <ele>496</ele>
        <time>2023-11-17T18:22:23Z</time>
      </trkpt>
      <trkpt lat="44.08039" lon="5.99203">
        <ele>495</ele>
        <time>2023-11-17T18:22:25Z</time>
      </trkpt>
      <trkpt lat="44.08043" lon="5.99217">
        <ele>492</ele>
        <time>2023-11-17T18:22:27Z</time>
      </trkpt>
      <trkpt lat="44.08054" lon="5.9923">
        <ele>489</ele>
        <time>2023-11-17T18:22:31Z</time>
      </trkpt>
      <trkpt lat="44.08066" lon="5.99237">
        <ele>488</ele>
        <time>2023-11-17T18:22:34Z</time>
      </trkpt>
      <trkpt lat="44.08072" lon="5.99252">
        <ele>486</ele>
        <time>2023-11-17T18:22:37Z</time>
      </trkpt>
      <trkpt lat="44.08068" lon="5.99268">
        <ele>487</ele>
        <time>2023-11-17T18:22:40Z</time>
      </trkpt>
      <trkpt lat="44.08053" lon="5.9928">
        <ele>487</ele>
        <time>2023-11-17T18:22:44Z</time>
      </trkpt>
      <trkpt lat="44.08042" lon="5.99322">
        <ele>487</ele>
        <time>2023-11-17T18:22:51Z</time>
      </trkpt>
      <trkpt lat="44.08022" lon="5.99361">
        <ele>485</ele>
        <time>2023-11-17T18:22:59Z</time>
      </trkpt>
      <trkpt lat="44.08012" lon="5.9939">
        <ele>483</ele>
        <time>2023-11-17T18:23:05Z</time>
      </trkpt>
      <trkpt lat="44.08011" lon="5.99404">
        <ele>483</ele>
        <time>2023-11-17T18:23:07Z</time>
      </trkpt>
      <trkpt lat="44.08014" lon="5.99444">
        <ele>486</ele>
        <time>2023-11-17T18:23:14Z</time>
      </trkpt>
      <trkpt lat="44.08012" lon="5.9946">
        <ele>486</ele>
        <time>2023-11-17T18:23:16Z</time>
      </trkpt>
      <trkpt lat="44.08015" lon="5.99468">
        <ele>487</ele>
        <time>2023-11-17T18:23:18Z</time>
      </trkpt>
      <trkpt lat="44.08027" lon="5.9949">
        <ele>490</ele>
        <time>2023-11-17T18:23:22Z</time>
      </trkpt>
      <trkpt lat="44.08038" lon="5.99503">
        <ele>493</ele>
        <time>2023-11-17T18:23:26Z</time>
      </trkpt>
      <trkpt lat="44.08068" lon="5.9956">
        <ele>495</ele>
        <time>2023-11-17T18:23:38Z</time>
      </trkpt>
      <trkpt lat="44.08075" lon="5.99566">
        <ele>496</ele>
        <time>2023-11-17T18:23:40Z</time>
      </trkpt>
      <trkpt lat="44.08093" lon="5.99572">
        <ele>498</ele>
        <time>2023-11-17T18:23:44Z</time>
      </trkpt>
      <trkpt lat="44.081" lon="5.99577">
        <ele>499</ele>
        <time>2023-11-17T18:23:46Z</time>
      </trkpt>
      <trkpt lat="44.08147" lon="5.99636">
        <ele>498</ele>
        <time>2023-11-17T18:24:01Z</time>
      </trkpt>
      <trkpt lat="44.08164" lon="5.99652">
        <ele>497</ele>
        <time>2023-11-17T18:24:05Z</time>
      </trkpt>
      <trkpt lat="44.08183" lon="5.99678">
        <ele>497</ele>
        <time>2023-11-17T18:24:12Z</time>
      </trkpt>
      <trkpt lat="44.08198" lon="5.99692">
        <ele>498</ele>
        <time>2023-11-17T18:24:16Z</time>
      </trkpt>
      <trkpt lat="44.08211" lon="5.99695">
        <ele>500</ele>
        <time>2023-11-17T18:24:19Z</time>
      </trkpt>
      <trkpt lat="44.08232" lon="5.99689">
        <ele>503</ele>
        <time>2023-11-17T18:24:24Z</time>
      </trkpt>
      <trkpt lat="44.08241" lon="5.99689">
        <ele>504</ele>
        <time>2023-11-17T18:24:26Z</time>
      </trkpt>
      <trkpt lat="44.08263" lon="5.99693">
        <ele>507</ele>
        <time>2023-11-17T18:24:31Z</time>
      </trkpt>
      <trkpt lat="44.08289" lon="5.99702">
        <ele>511</ele>
        <time>2023-11-17T18:24:37Z</time>
      </trkpt>
      <trkpt lat="44.08317" lon="5.99701">
        <ele>515</ele>
        <time>2023-11-17T18:24:44Z</time>
      </trkpt>
      <trkpt lat="44.0833" lon="5.99709">
        <ele>516</ele>
        <time>2023-11-17T18:24:47Z</time>
      </trkpt>
      <trkpt lat="44.08337" lon="5.99707">
        <ele>518</ele>
        <time>2023-11-17T18:24:49Z</time>
      </trkpt>
      <trkpt lat="44.08347" lon="5.99698">
        <ele>520</ele>
        <time>2023-11-17T18:24:52Z</time>
      </trkpt>
      <trkpt lat="44.08351" lon="5.99698">
        <ele>520</ele>
        <time>2023-11-17T18:24:53Z</time>
      </trkpt>
      <trkpt lat="44.08357" lon="5.99704">
        <ele>520</ele>
        <time>2023-11-17T18:24:54Z</time>
      </trkpt>
      <trkpt lat="44.08368" lon="5.99707">
        <ele>521</ele>
        <time>2023-11-17T18:24:57Z</time>
      </trkpt>
      <trkpt lat="44.08373" lon="5.99713">
        <ele>521</ele>
        <time>2023-11-17T18:24:59Z</time>
      </trkpt>
      <trkpt lat="44.08386" lon="5.99712">
        <ele>523</ele>
        <time>2023-11-17T18:25:02Z</time>
      </trkpt>
      <trkpt lat="44.08392" lon="5.99709">
        <ele>524</ele>
        <time>2023-11-17T18:25:03Z</time>
      </trkpt>
      <trkpt lat="44.08396" lon="5.99703">
        <ele>525</ele>
        <time>2023-11-17T18:25:04Z</time>
      </trkpt>
      <trkpt lat="44.08409" lon="5.99696">
        <ele>527</ele>
        <time>2023-11-17T18:25:08Z</time>
      </trkpt>
      <trkpt lat="44.08419" lon="5.99682">
        <ele>529</ele>
        <time>2023-11-17T18:25:11Z</time>
      </trkpt>
      <trkpt lat="44.08444" lon="5.99671">
        <ele>533</ele>
        <time>2023-11-17T18:25:17Z</time>
      </trkpt>
      <trkpt lat="44.08446" lon="5.99667">
        <ele>533</ele>
        <time>2023-11-17T18:25:18Z</time>
      </trkpt>
      <trkpt lat="44.0844" lon="5.99656">
        <ele>533</ele>
        <time>2023-11-17T18:25:20Z</time>
      </trkpt>
      <trkpt lat="44.0844" lon="5.99646">
        <ele>534</ele>
        <time>2023-11-17T18:25:22Z</time>
      </trkpt>
      <trkpt lat="44.08454" lon="5.99639">
        <ele>535</ele>
        <time>2023-11-17T18:25:25Z</time>
      </trkpt>
      <trkpt lat="44.08473" lon="5.99623">
        <ele>538</ele>
        <time>2023-11-17T18:25:31Z</time>
      </trkpt>
      <trkpt lat="44.08497" lon="5.99614">
        <ele>541</ele>
        <time>2023-11-17T18:25:36Z</time>
      </trkpt>
      <trkpt lat="44.08509" lon="5.99612">
        <ele>542</ele>
        <time>2023-11-17T18:25:39Z</time>
      </trkpt>
      <trkpt lat="44.08538" lon="5.9961">
        <ele>545</ele>
        <time>2023-11-17T18:25:46Z</time>
      </trkpt>
      <trkpt lat="44.08557" lon="5.99614">
        <ele>548</ele>
        <time>2023-11-17T18:25:51Z</time>
      </trkpt>
      <trkpt lat="44.0856" lon="5.99609">
        <ele>548</ele>
        <time>2023-11-17T18:25:52Z</time>
      </trkpt>
      <trkpt lat="44.08563" lon="5.99589">
        <ele>547</ele>
        <time>2023-11-17T18:25:55Z</time>
      </trkpt>
      <trkpt lat="44.08568" lon="5.99583">
        <ele>548</ele>
        <time>2023-11-17T18:25:57Z</time>
      </trkpt>
      <trkpt lat="44.08585" lon="5.99592">
        <ele>550</ele>
        <time>2023-11-17T18:26:01Z</time>
      </trkpt>
      <trkpt lat="44.08599" lon="5.99593">
        <ele>552</ele>
        <time>2023-11-17T18:26:04Z</time>
      </trkpt>
      <trkpt lat="44.08606" lon="5.99602">
        <ele>554</ele>
        <time>2023-11-17T18:26:06Z</time>
      </trkpt>
      <trkpt lat="44.08608" lon="5.99591">
        <ele>553</ele>
        <time>2023-11-17T18:26:08Z</time>
      </trkpt>
      <trkpt lat="44.08615" lon="5.99582">
        <ele>554</ele>
        <time>2023-11-17T18:26:10Z</time>
      </trkpt>
      <trkpt lat="44.08644" lon="5.99565">
        <ele>557</ele>
        <time>2023-11-17T18:26:18Z</time>
      </trkpt>
      <trkpt lat="44.08652" lon="5.99563">
        <ele>558</ele>
        <time>2023-11-17T18:26:20Z</time>
      </trkpt>
      <trkpt lat="44.08661" lon="5.99565">
        <ele>559</ele>
        <time>2023-11-17T18:26:22Z</time>
      </trkpt>
      <trkpt lat="44.08672" lon="5.99561">
        <ele>560</ele>
        <time>2023-11-17T18:26:24Z</time>
      </trkpt>
      <trkpt lat="44.0868" lon="5.99563">
        <ele>561</ele>
        <time>2023-11-17T18:26:26Z</time>
      </trkpt>
      <trkpt lat="44.08691" lon="5.99558">
        <ele>562</ele>
        <time>2023-11-17T18:26:29Z</time>
      </trkpt>
      <trkpt lat="44.08709" lon="5.99567">
        <ele>565</ele>
        <time>2023-11-17T18:26:34Z</time>
      </trkpt>
      <trkpt lat="44.08722" lon="5.99569">
        <ele>566</ele>
        <time>2023-11-17T18:26:37Z</time>
      </trkpt>
      <trkpt lat="44.08744" lon="5.99547">
        <ele>566</ele>
        <time>2023-11-17T18:26:43Z</time>
      </trkpt>
      <trkpt lat="44.08776" lon="5.99559">
        <ele>570</ele>
        <time>2023-11-17T18:26:51Z</time>
      </trkpt>
      <trkpt lat="44.08814" lon="5.9955">
        <ele>571</ele>
        <time>2023-11-17T18:27:00Z</time>
      </trkpt>
      <trkpt lat="44.08851" lon="5.99556">
        <ele>575</ele>
        <time>2023-11-17T18:27:08Z</time>
      </trkpt>
      <trkpt lat="44.08879" lon="5.99572">
        <ele>579</ele>
        <time>2023-11-17T18:27:15Z</time>
      </trkpt>
      <trkpt lat="44.08899" lon="5.99578">
        <ele>581</ele>
        <time>2023-11-17T18:27:20Z</time>
      </trkpt>
      <trkpt lat="44.08909" lon="5.99584">
        <ele>583</ele>
        <time>2023-11-17T18:27:23Z</time>
      </trkpt>
      <trkpt lat="44.08922" lon="5.99582">
        <ele>583</ele>
        <time>2023-11-17T18:27:26Z</time>
      </trkpt>
      <trkpt lat="44.08931" lon="5.99584">
        <ele>584</ele>
        <time>2023-11-17T18:27:28Z</time>
      </trkpt>
      <trkpt lat="44.08945" lon="5.99578">
        <ele>584</ele>
        <time>2023-11-17T18:27:31Z</time>
      </trkpt>
      <trkpt lat="44.08954" lon="5.99571">
        <ele>583</ele>
        <time>2023-11-17T18:27:34Z</time>
      </trkpt>
      <trkpt lat="44.08998" lon="5.99561">
        <ele>584</ele>
        <time>2023-11-17T18:27:44Z</time>
      </trkpt>
      <trkpt lat="44.0902" lon="5.99546">
        <ele>581</ele>
        <time>2023-11-17T18:27:50Z</time>
      </trkpt>
      <trkpt lat="44.09061" lon="5.99555">
        <ele>581</ele>
        <time>2023-11-17T18:28:00Z</time>
      </trkpt>
      <trkpt lat="44.0908" lon="5.99551">
        <ele>581</ele>
        <time>2023-11-17T18:28:04Z</time>
      </trkpt>
      <trkpt lat="44.09088" lon="5.99552">
        <ele>580</ele>
        <time>2023-11-17T18:28:06Z</time>
      </trkpt>
      <trkpt lat="44.09129" lon="5.99568">
        <ele>579</ele>
        <time>2023-11-17T18:28:16Z</time>
      </trkpt>
      <trkpt lat="44.09142" lon="5.99578">
        <ele>579</ele>
        <time>2023-11-17T18:28:19Z</time>
      </trkpt>
      <trkpt lat="44.09157" lon="5.99585">
        <ele>578</ele>
        <time>2023-11-17T18:28:23Z</time>
      </trkpt>
      <trkpt lat="44.0917" lon="5.99587">
        <ele>577</ele>
        <time>2023-11-17T18:28:26Z</time>
      </trkpt>
      <trkpt lat="44.0918" lon="5.99582">
        <ele>575</ele>
        <time>2023-11-17T18:28:29Z</time>
      </trkpt>
      <trkpt lat="44.09196" lon="5.99591">
        <ele>573</ele>
        <time>2023-11-17T18:28:33Z</time>
      </trkpt>
      <trkpt lat="44.09203" lon="5.99587">
        <ele>572</ele>
        <time>2023-11-17T18:28:34Z</time>
      </trkpt>
      <trkpt lat="44.09207" lon="5.99588">
        <ele>571</ele>
        <time>2023-11-17T18:28:35Z</time>
      </trkpt>
      <trkpt lat="44.09211" lon="5.99594">
        <ele>571</ele>
        <time>2023-11-17T18:28:37Z</time>
      </trkpt>
      <trkpt lat="44.09214" lon="5.99607">
        <ele>570</ele>
        <time>2023-11-17T18:28:39Z</time>
      </trkpt>
      <trkpt lat="44.09215" lon="5.99623">
        <ele>570</ele>
        <time>2023-11-17T18:28:42Z</time>
      </trkpt>
      <trkpt lat="44.09223" lon="5.9963">
        <ele>568</ele>
        <time>2023-11-17T18:28:44Z</time>
      </trkpt>
      <trkpt lat="44.0923" lon="5.99641">
        <ele>567</ele>
        <time>2023-11-17T18:28:46Z</time>
      </trkpt>
      <trkpt lat="44.09235" lon="5.99642">
        <ele>566</ele>
        <time>2023-11-17T18:28:48Z</time>
      </trkpt>
      <trkpt lat="44.09248" lon="5.99661">
        <ele>563</ele>
        <time>2023-11-17T18:28:52Z</time>
      </trkpt>
      <trkpt lat="44.09258" lon="5.9966">
        <ele>561</ele>
        <time>2023-11-17T18:28:54Z</time>
      </trkpt>
      <trkpt lat="44.09266" lon="5.99664">
        <ele>560</ele>
        <time>2023-11-17T18:28:56Z</time>
      </trkpt>
      <trkpt lat="44.0927" lon="5.99681">
        <ele>560</ele>
        <time>2023-11-17T18:28:59Z</time>
      </trkpt>
      <trkpt lat="44.09279" lon="5.99697">
        <ele>559</ele>
        <time>2023-11-17T18:29:03Z</time>
      </trkpt>
      <trkpt lat="44.09295" lon="5.99701">
        <ele>556</ele>
        <time>2023-11-17T18:29:06Z</time>
      </trkpt>
      <trkpt lat="44.09305" lon="5.99708">
        <ele>554</ele>
        <time>2023-11-17T18:29:09Z</time>
      </trkpt>
      <trkpt lat="44.09305" lon="5.99728">
        <ele>554</ele>
        <time>2023-11-17T18:29:12Z</time>
      </trkpt>
      <trkpt lat="44.09308" lon="5.99733">
        <ele>553</ele>
        <time>2023-11-17T18:29:14Z</time>
      </trkpt>
      <trkpt lat="44.09315" lon="5.99735">
        <ele>551</ele>
        <time>2023-11-17T18:29:15Z</time>
      </trkpt>
      <trkpt lat="44.09324" lon="5.99727">
        <ele>550</ele>
        <time>2023-11-17T18:29:18Z</time>
      </trkpt>
      <trkpt lat="44.0933" lon="5.99726">
        <ele>548</ele>
        <time>2023-11-17T18:29:19Z</time>
      </trkpt>
      <trkpt lat="44.09334" lon="5.99743">
        <ele>546</ele>
        <time>2023-11-17T18:29:22Z</time>
      </trkpt>
      <trkpt lat="44.09345" lon="5.99743">
        <ele>544</ele>
        <time>2023-11-17T18:29:25Z</time>
      </trkpt>
      <trkpt lat="44.09359" lon="5.99757">
        <ele>542</ele>
        <time>2023-11-17T18:29:29Z</time>
      </trkpt>
      <trkpt lat="44.09375" lon="5.99763">
        <ele>539</ele>
        <time>2023-11-17T18:29:33Z</time>
      </trkpt>
      <trkpt lat="44.09377" lon="5.99766">
        <ele>539</ele>
        <time>2023-11-17T18:29:33Z</time>
      </trkpt>
      <trkpt lat="44.09379" lon="5.99774">
        <ele>538</ele>
        <time>2023-11-17T18:29:35Z</time>
      </trkpt>
      <trkpt lat="44.09377" lon="5.99796">
        <ele>539</ele>
        <time>2023-11-17T18:29:38Z</time>
      </trkpt>
      <trkpt lat="44.09401" lon="5.99839">
        <ele>534</ele>
        <time>2023-11-17T18:29:48Z</time>
      </trkpt>
      <trkpt lat="44.09402" lon="5.99867">
        <ele>533</ele>
        <time>2023-11-17T18:29:52Z</time>
      </trkpt>
      <trkpt lat="44.0941" lon="5.99904">
        <ele>529</ele>
        <time>2023-11-17T18:29:59Z</time>
      </trkpt>
      <trkpt lat="44.09429" lon="5.99909">
        <ele>524</ele>
        <time>2023-11-17T18:30:03Z</time>
      </trkpt>
      <trkpt lat="44.09481" lon="5.99932">
        <ele>514</ele>
        <time>2023-11-17T18:30:16Z</time>
      </trkpt>
      <trkpt lat="44.09513" lon="5.99952">
        <ele>508</ele>
        <time>2023-11-17T18:30:24Z</time>
      </trkpt>
      <trkpt lat="44.09516" lon="5.99944">
        <ele>508</ele>
        <time>2023-11-17T18:30:26Z</time>
      </trkpt>
      <trkpt lat="44.09514" lon="5.99932">
        <ele>509</ele>
        <time>2023-11-17T18:30:28Z</time>
      </trkpt>
      <trkpt lat="44.09489" lon="5.99874">
        <ele>516</ele>
        <time>2023-11-17T18:30:39Z</time>
      </trkpt>
      <trkpt lat="44.09487" lon="5.9984">
        <ele>519</ele>
        <time>2023-11-17T18:30:45Z</time>
      </trkpt>
      <trkpt lat="44.0949" lon="5.99835">
        <ele>518</ele>
        <time>2023-11-17T18:30:46Z</time>
      </trkpt>
      <trkpt lat="44.09556" lon="5.998">
        <ele>514</ele>
        <time>2023-11-17T18:31:02Z</time>
      </trkpt>
      <trkpt lat="44.096" lon="5.99757">
        <ele>514</ele>
        <time>2023-11-17T18:31:15Z</time>
      </trkpt>
      <trkpt lat="44.09629" lon="5.99752">
        <ele>512</ele>
        <time>2023-11-17T18:31:22Z</time>
      </trkpt>
      <trkpt lat="44.09669" lon="5.99736">
        <ele>510</ele>
        <time>2023-11-17T18:31:32Z</time>
      </trkpt>
      <trkpt lat="44.09698" lon="5.99742">
        <ele>508</ele>
        <time>2023-11-17T18:31:38Z</time>
      </trkpt>
      <trkpt lat="44.09709" lon="5.99741">
        <ele>507</ele>
        <time>2023-11-17T18:31:41Z</time>
      </trkpt>
      <trkpt lat="44.09773" lon="5.9971">
        <ele>506</ele>
        <time>2023-11-17T18:31:57Z</time>
      </trkpt>
      <trkpt lat="44.09802" lon="5.9969">
        <ele>506</ele>
        <time>2023-11-17T18:32:04Z</time>
      </trkpt>
      <trkpt lat="44.09878" lon="5.99631">
        <ele>503</ele>
        <time>2023-11-17T18:32:25Z</time>
      </trkpt>
      <trkpt lat="44.09892" lon="5.99599">
        <ele>503</ele>
        <time>2023-11-17T18:32:31Z</time>
      </trkpt>
      <trkpt lat="44.099" lon="5.99553">
        <ele>504</ele>
        <time>2023-11-17T18:32:39Z</time>
      </trkpt>
      <trkpt lat="44.09907" lon="5.99539">
        <ele>504</ele>
        <time>2023-11-17T18:32:42Z</time>
      </trkpt>
      <trkpt lat="44.09919" lon="5.99538">
        <ele>504</ele>
        <time>2023-11-17T18:32:45Z</time>
      </trkpt>
      <trkpt lat="44.09987" lon="5.99547">
        <ele>503</ele>
        <time>2023-11-17T18:33:00Z</time>
      </trkpt>
      <trkpt lat="44.09997" lon="5.99543">
        <ele>503</ele>
        <time>2023-11-17T18:33:03Z</time>
      </trkpt>
      <trkpt lat="44.10021" lon="5.99524">
        <ele>504</ele>
        <time>2023-11-17T18:33:09Z</time>
      </trkpt>
      <trkpt lat="44.10033" lon="5.99508">
        <ele>505</ele>
        <time>2023-11-17T18:33:13Z</time>
      </trkpt>
      <trkpt lat="44.10039" lon="5.99494">
        <ele>506</ele>
        <time>2023-11-17T18:33:16Z</time>
      </trkpt>
      <trkpt lat="44.10042" lon="5.99439">
        <ele>510</ele>
        <time>2023-11-17T18:33:25Z</time>
      </trkpt>
      <trkpt lat="44.10045" lon="5.99428">
        <ele>510</ele>
        <time>2023-11-17T18:33:27Z</time>
      </trkpt>
      <trkpt lat="44.10051" lon="5.99421">
        <ele>511</ele>
        <time>2023-11-17T18:33:29Z</time>
      </trkpt>
      <trkpt lat="44.10219" lon="5.99429">
        <ele>510</ele>
        <time>2023-11-17T18:34:08Z</time>
      </trkpt>
      <trkpt lat="44.10297" lon="5.99428">
        <ele>512</ele>
        <time>2023-11-17T18:34:26Z</time>
      </trkpt>
      <trkpt lat="44.10345" lon="5.99419">
        <ele>515</ele>
        <time>2023-11-17T18:34:38Z</time>
      </trkpt>
      <trkpt lat="44.10394" lon="5.99402">
        <ele>516</ele>
        <time>2023-11-17T18:34:50Z</time>
      </trkpt>
      <trkpt lat="44.10501" lon="5.99354">
        <ele>516</ele>
        <time>2023-11-17T18:35:16Z</time>
      </trkpt>
      <trkpt lat="44.10565" lon="5.99313">
        <ele>515</ele>
        <time>2023-11-17T18:35:32Z</time>
      </trkpt>
      <trkpt lat="44.10597" lon="5.99286">
        <ele>516</ele>
        <time>2023-11-17T18:35:41Z</time>
      </trkpt>
      <trkpt lat="44.10654" lon="5.99231">
        <ele>519</ele>
        <time>2023-11-17T18:35:57Z</time>
      </trkpt>
      <trkpt lat="44.10688" lon="5.99204">
        <ele>521</ele>
        <time>2023-11-17T18:36:06Z</time>
      </trkpt>
      <trkpt lat="44.10768" lon="5.99128">
        <ele>523</ele>
        <time>2023-11-17T18:36:29Z</time>
      </trkpt>
      <trkpt lat="44.10786" lon="5.99104">
        <ele>523</ele>
        <time>2023-11-17T18:36:35Z</time>
      </trkpt>
      <trkpt lat="44.10796" lon="5.99084">
        <ele>523</ele>
        <time>2023-11-17T18:36:39Z</time>
      </trkpt>
      <trkpt lat="44.10799" lon="5.99071">
        <ele>524</ele>
        <time>2023-11-17T18:36:41Z</time>
      </trkpt>
      <trkpt lat="44.10797" lon="5.99057">
        <ele>525</ele>
        <time>2023-11-17T18:36:44Z</time>
      </trkpt>
      <trkpt lat="44.10775" lon="5.99029">
        <ele>530</ele>
        <time>2023-11-17T18:36:51Z</time>
      </trkpt>
      <trkpt lat="44.10765" lon="5.99021">
        <ele>532</ele>
        <time>2023-11-17T18:36:53Z</time>
      </trkpt>
      <trkpt lat="44.10761" lon="5.99001">
        <ele>534</ele>
        <time>2023-11-17T18:36:57Z</time>
      </trkpt>
      <trkpt lat="44.10732" lon="5.98967">
        <ele>539</ele>
        <time>2023-11-17T18:37:06Z</time>
      </trkpt>
      <trkpt lat="44.10712" lon="5.98925">
        <ele>542</ele>
        <time>2023-11-17T18:37:14Z</time>
      </trkpt>
      <trkpt lat="44.1068" lon="5.98891">
        <ele>545</ele>
        <time>2023-11-17T18:37:23Z</time>
      </trkpt>
      <trkpt lat="44.10672" lon="5.98877">
        <ele>544</ele>
        <time>2023-11-17T18:37:26Z</time>
      </trkpt>
      <trkpt lat="44.10653" lon="5.98855">
        <ele>545</ele>
        <time>2023-11-17T18:37:32Z</time>
      </trkpt>
      <trkpt lat="44.10647" lon="5.98836">
        <ele>545</ele>
        <time>2023-11-17T18:37:36Z</time>
      </trkpt>
      <trkpt lat="44.10646" lon="5.98817">
        <ele>546</ele>
        <time>2023-11-17T18:37:39Z</time>
      </trkpt>
      <trkpt lat="44.10648" lon="5.98811">
        <ele>546</ele>
        <time>2023-11-17T18:37:40Z</time>
      </trkpt>
      <trkpt lat="44.10652" lon="5.98809">
        <ele>545</ele>
        <time>2023-11-17T18:37:41Z</time>
      </trkpt>
      <trkpt lat="44.1066" lon="5.98816">
        <ele>543</ele>
        <time>2023-11-17T18:37:43Z</time>
      </trkpt>
      <trkpt lat="44.10666" lon="5.98818">
        <ele>542</ele>
        <time>2023-11-17T18:37:45Z</time>
      </trkpt>
      <trkpt lat="44.10672" lon="5.98817">
        <ele>542</ele>
        <time>2023-11-17T18:37:46Z</time>
      </trkpt>
      <trkpt lat="44.10677" lon="5.98813">
        <ele>542</ele>
        <time>2023-11-17T18:37:47Z</time>
      </trkpt>
      <trkpt lat="44.10679" lon="5.98804">
        <ele>543</ele>
        <time>2023-11-17T18:37:49Z</time>
      </trkpt>
      <trkpt lat="44.10676" lon="5.98782">
        <ele>545</ele>
        <time>2023-11-17T18:37:53Z</time>
      </trkpt>
      <trkpt lat="44.10679" lon="5.98764">
        <ele>546</ele>
        <time>2023-11-17T18:37:56Z</time>
      </trkpt>
      <trkpt lat="44.10684" lon="5.98753">
        <ele>547</ele>
        <time>2023-11-17T18:37:58Z</time>
      </trkpt>
      <trkpt lat="44.10691" lon="5.98745">
        <ele>548</ele>
        <time>2023-11-17T18:38:00Z</time>
      </trkpt>
      <trkpt lat="44.10703" lon="5.9871">
        <ele>552</ele>
        <time>2023-11-17T18:38:07Z</time>
      </trkpt>
      <trkpt lat="44.10708" lon="5.98706">
        <ele>552</ele>
        <time>2023-11-17T18:38:08Z</time>
      </trkpt>
      <trkpt lat="44.10718" lon="5.98705">
        <ele>552</ele>
        <time>2023-11-17T18:38:10Z</time>
      </trkpt>
      <trkpt lat="44.1073" lon="5.987">
        <ele>553</ele>
        <time>2023-11-17T18:38:13Z</time>
      </trkpt>
      <trkpt lat="44.10742" lon="5.987">
        <ele>553</ele>
        <time>2023-11-17T18:38:16Z</time>
      </trkpt>
      <trkpt lat="44.10747" lon="5.98697">
        <ele>553</ele>
        <time>2023-11-17T18:38:17Z</time>
      </trkpt>
      <trkpt lat="44.10763" lon="5.98683">
        <ele>554</ele>
        <time>2023-11-17T18:38:22Z</time>
      </trkpt>
      <trkpt lat="44.10793" lon="5.98666">
        <ele>554</ele>
        <time>2023-11-17T18:38:29Z</time>
      </trkpt>
      <trkpt lat="44.10833" lon="5.98628">
        <ele>553</ele>
        <time>2023-11-17T18:38:41Z</time>
      </trkpt>
      <trkpt lat="44.10837" lon="5.98619">
        <ele>554</ele>
        <time>2023-11-17T18:38:42Z</time>
      </trkpt>
      <trkpt lat="44.10837" lon="5.98601">
        <ele>555</ele>
        <time>2023-11-17T18:38:45Z</time>
      </trkpt>
      <trkpt lat="44.10831" lon="5.98547">
        <ele>558</ele>
        <time>2023-11-17T18:38:55Z</time>
      </trkpt>
      <trkpt lat="44.10839" lon="5.98527">
        <ele>560</ele>
        <time>2023-11-17T18:38:58Z</time>
      </trkpt>
      <trkpt lat="44.10847" lon="5.98519">
        <ele>561</ele>
        <time>2023-11-17T18:39:01Z</time>
      </trkpt>
      <trkpt lat="44.1085" lon="5.98517">
        <ele>561</ele>
        <time>2023-11-17T18:39:01Z</time>
      </trkpt>
      <trkpt lat="44.10867" lon="5.98534">
        <ele>561</ele>
        <time>2023-11-17T18:39:06Z</time>
      </trkpt>
      <trkpt lat="44.10875" lon="5.98559">
        <ele>560</ele>
        <time>2023-11-17T18:39:11Z</time>
      </trkpt>
      <trkpt lat="44.1089" lon="5.98591">
        <ele>559</ele>
        <time>2023-11-17T18:39:17Z</time>
      </trkpt>
      <trkpt lat="44.10892" lon="5.98614">
        <ele>557</ele>
        <time>2023-11-17T18:39:21Z</time>
      </trkpt>
      <trkpt lat="44.10908" lon="5.98647">
        <ele>555</ele>
        <time>2023-11-17T18:39:28Z</time>
      </trkpt>
      <trkpt lat="44.10934" lon="5.98686">
        <ele>552</ele>
        <time>2023-11-17T18:39:37Z</time>
      </trkpt>
      <trkpt lat="44.1095" lon="5.9869">
        <ele>551</ele>
        <time>2023-11-17T18:39:41Z</time>
      </trkpt>
      <trkpt lat="44.1097" lon="5.98681">
        <ele>552</ele>
        <time>2023-11-17T18:39:46Z</time>
      </trkpt>
      <trkpt lat="44.1099" lon="5.98662">
        <ele>554</ele>
        <time>2023-11-17T18:39:51Z</time>
      </trkpt>
      <trkpt lat="44.11023" lon="5.98649">
        <ele>555</ele>
        <time>2023-11-17T18:39:59Z</time>
      </trkpt>
      <trkpt lat="44.11081" lon="5.98645">
        <ele>552</ele>
        <time>2023-11-17T18:40:13Z</time>
      </trkpt>
      <trkpt lat="44.11124" lon="5.98646">
        <ele>549</ele>
        <time>2023-11-17T18:40:23Z</time>
      </trkpt>
      <trkpt lat="44.11134" lon="5.98644">
        <ele>549</ele>
        <time>2023-11-17T18:40:25Z</time>
      </trkpt>
      <trkpt lat="44.1116" lon="5.98631">
        <ele>549</ele>
        <time>2023-11-17T18:40:32Z</time>
      </trkpt>
      <trkpt lat="44.11177" lon="5.98617">
        <ele>550</ele>
        <time>2023-11-17T18:40:36Z</time>
      </trkpt>
      <trkpt lat="44.11192" lon="5.98611">
        <ele>549</ele>
        <time>2023-11-17T18:40:40Z</time>
      </trkpt>
      <trkpt lat="44.11214" lon="5.98593">
        <ele>550</ele>
        <time>2023-11-17T18:40:46Z</time>
      </trkpt>
      <trkpt lat="44.11277" lon="5.9857">
        <ele>549</ele>
        <time>2023-11-17T18:41:01Z</time>
      </trkpt>
      <trkpt lat="44.11339" lon="5.98563">
        <ele>544</ele>
        <time>2023-11-17T18:41:16Z</time>
      </trkpt>
      <trkpt lat="44.11381" lon="5.98561">
        <ele>539</ele>
        <time>2023-11-17T18:41:25Z</time>
      </trkpt>
      <trkpt lat="44.11407" lon="5.98554">
        <ele>537</ele>
        <time>2023-11-17T18:41:32Z</time>
      </trkpt>
      <trkpt lat="44.11438" lon="5.98555">
        <ele>533</ele>
        <time>2023-11-17T18:41:39Z</time>
      </trkpt>
      <trkpt lat="44.11483" lon="5.98533">
        <ele>530</ele>
        <time>2023-11-17T18:41:50Z</time>
      </trkpt>
      <trkpt lat="44.11525" lon="5.98509">
        <ele>526</ele>
        <time>2023-11-17T18:42:01Z</time>
      </trkpt>
      <trkpt lat="44.11535" lon="5.9849">
        <ele>526</ele>
        <time>2023-11-17T18:42:04Z</time>
      </trkpt>
      <trkpt lat="44.11534" lon="5.98449">
        <ele>530</ele>
        <time>2023-11-17T18:42:11Z</time>
      </trkpt>
      <trkpt lat="44.11538" lon="5.98441">
        <ele>530</ele>
        <time>2023-11-17T18:42:13Z</time>
      </trkpt>
      <trkpt lat="44.11544" lon="5.98441">
        <ele>529</ele>
        <time>2023-11-17T18:42:14Z</time>
      </trkpt>
      <trkpt lat="44.11562" lon="5.98452">
        <ele>526</ele>
        <time>2023-11-17T18:42:19Z</time>
      </trkpt>
      <trkpt lat="44.11581" lon="5.98458">
        <ele>523</ele>
        <time>2023-11-17T18:42:24Z</time>
      </trkpt>
      <trkpt lat="44.116" lon="5.98456">
        <ele>522</ele>
        <time>2023-11-17T18:42:28Z</time>
      </trkpt>
      <trkpt lat="44.11619" lon="5.9844">
        <ele>521</ele>
        <time>2023-11-17T18:42:33Z</time>
      </trkpt>
      <trkpt lat="44.11666" lon="5.9838">
        <ele>522</ele>
        <time>2023-11-17T18:42:48Z</time>
      </trkpt>
      <trkpt lat="44.11676" lon="5.98375">
        <ele>522</ele>
        <time>2023-11-17T18:42:51Z</time>
      </trkpt>
      <trkpt lat="44.11688" lon="5.98374">
        <ele>520</ele>
        <time>2023-11-17T18:42:53Z</time>
      </trkpt>
      <trkpt lat="44.11694" lon="5.98371">
        <ele>520</ele>
        <time>2023-11-17T18:42:55Z</time>
      </trkpt>
      <trkpt lat="44.117" lon="5.98362">
        <ele>520</ele>
        <time>2023-11-17T18:42:57Z</time>
      </trkpt>
      <trkpt lat="44.11703" lon="5.98345">
        <ele>521</ele>
        <time>2023-11-17T18:43:00Z</time>
      </trkpt>
      <trkpt lat="44.11698" lon="5.98326">
        <ele>523</ele>
        <time>2023-11-17T18:43:03Z</time>
      </trkpt>
      <trkpt lat="44.11698" lon="5.98312">
        <ele>524</ele>
        <time>2023-11-17T18:43:06Z</time>
      </trkpt>
      <trkpt lat="44.11706" lon="5.98299">
        <ele>524</ele>
        <time>2023-11-17T18:43:08Z</time>
      </trkpt>
      <trkpt lat="44.11713" lon="5.98281">
        <ele>524</ele>
        <time>2023-11-17T18:43:12Z</time>
      </trkpt>
      <trkpt lat="44.11722" lon="5.98271">
        <ele>523</ele>
        <time>2023-11-17T18:43:15Z</time>
      </trkpt>
      <trkpt lat="44.11726" lon="5.98257">
        <ele>523</ele>
        <time>2023-11-17T18:43:17Z</time>
      </trkpt>
      <trkpt lat="44.11736" lon="5.98245">
        <ele>522</ele>
        <time>2023-11-17T18:43:20Z</time>
      </trkpt>
      <trkpt lat="44.11746" lon="5.98238">
        <ele>521</ele>
        <time>2023-11-17T18:43:23Z</time>
      </trkpt>
      <trkpt lat="44.11762" lon="5.98218">
        <ele>519</ele>
        <time>2023-11-17T18:43:28Z</time>
      </trkpt>
      <trkpt lat="44.11793" lon="5.98193">
        <ele>515</ele>
        <time>2023-11-17T18:43:36Z</time>
      </trkpt>
      <trkpt lat="44.11825" lon="5.98155">
        <ele>511</ele>
        <time>2023-11-17T18:43:46Z</time>
      </trkpt>
      <trkpt lat="44.11839" lon="5.98147">
        <ele>509</ele>
        <time>2023-11-17T18:43:50Z</time>
      </trkpt>
      <trkpt lat="44.11849" lon="5.98145">
        <ele>508</ele>
        <time>2023-11-17T18:43:52Z</time>
      </trkpt>
      <trkpt lat="44.11863" lon="5.98149">
        <ele>506</ele>
        <time>2023-11-17T18:43:55Z</time>
      </trkpt>
      <trkpt lat="44.11871" lon="5.98147">
        <ele>505</ele>
        <time>2023-11-17T18:43:57Z</time>
      </trkpt>
      <trkpt lat="44.11875" lon="5.98145">
        <ele>504</ele>
        <time>2023-11-17T18:43:58Z</time>
      </trkpt>
      <trkpt lat="44.1188" lon="5.98137">
        <ele>503</ele>
        <time>2023-11-17T18:44:00Z</time>
      </trkpt>
      <trkpt lat="44.11885" lon="5.9811">
        <ele>502</ele>
        <time>2023-11-17T18:44:05Z</time>
      </trkpt>
      <trkpt lat="44.1189" lon="5.98097">
        <ele>501</ele>
        <time>2023-11-17T18:44:07Z</time>
      </trkpt>
      <trkpt lat="44.11889" lon="5.98075">
        <ele>500</ele>
        <time>2023-11-17T18:44:11Z</time>
      </trkpt>
      <trkpt lat="44.11891" lon="5.98065">
        <ele>500</ele>
        <time>2023-11-17T18:44:12Z</time>
      </trkpt>
      <trkpt lat="44.11905" lon="5.98045">
        <ele>497</ele>
        <time>2023-11-17T18:44:17Z</time>
      </trkpt>
      <trkpt lat="44.1191" lon="5.98028">
        <ele>496</ele>
        <time>2023-11-17T18:44:20Z</time>
      </trkpt>
      <trkpt lat="44.11908" lon="5.98021">
        <ele>496</ele>
        <time>2023-11-17T18:44:21Z</time>
      </trkpt>
      <trkpt lat="44.11904" lon="5.98017">
        <ele>497</ele>
        <time>2023-11-17T18:44:23Z</time>
      </trkpt>
      <trkpt lat="44.11871" lon="5.97999">
        <ele>502</ele>
        <time>2023-11-17T18:44:31Z</time>
      </trkpt>
      <trkpt lat="44.1187" lon="5.97986">
        <ele>502</ele>
        <time>2023-11-17T18:44:33Z</time>
      </trkpt>
      <trkpt lat="44.11859" lon="5.97973">
        <ele>504</ele>
        <time>2023-11-17T18:44:36Z</time>
      </trkpt>
      <trkpt lat="44.11863" lon="5.97962">
        <ele>503</ele>
        <time>2023-11-17T18:44:39Z</time>
      </trkpt>
      <trkpt lat="44.11863" lon="5.97945">
        <ele>503</ele>
        <time>2023-11-17T18:44:41Z</time>
      </trkpt>
      <trkpt lat="44.1188" lon="5.97945">
        <ele>500</ele>
        <time>2023-11-17T18:44:45Z</time>
      </trkpt>
      <trkpt lat="44.11886" lon="5.97942">
        <ele>499</ele>
        <time>2023-11-17T18:44:47Z</time>
      </trkpt>
      <trkpt lat="44.11895" lon="5.9793">
        <ele>497</ele>
        <time>2023-11-17T18:44:50Z</time>
      </trkpt>
      <trkpt lat="44.11905" lon="5.97905">
        <ele>494</ele>
        <time>2023-11-17T18:44:55Z</time>
      </trkpt>
      <trkpt lat="44.11923" lon="5.9789">
        <ele>490</ele>
        <time>2023-11-17T18:44:59Z</time>
      </trkpt>
      <trkpt lat="44.11929" lon="5.97893">
        <ele>489</ele>
        <time>2023-11-17T18:45:01Z</time>
      </trkpt>
      <trkpt lat="44.11935" lon="5.97905">
        <ele>488</ele>
        <time>2023-11-17T18:45:03Z</time>
      </trkpt>
      <trkpt lat="44.11941" lon="5.97903">
        <ele>487</ele>
        <time>2023-11-17T18:45:05Z</time>
      </trkpt>
      <trkpt lat="44.1195" lon="5.97904">
        <ele>485</ele>
        <time>2023-11-17T18:45:07Z</time>
      </trkpt>
      <trkpt lat="44.11961" lon="5.97897">
        <ele>483</ele>
        <time>2023-11-17T18:45:10Z</time>
      </trkpt>
      <trkpt lat="44.11962" lon="5.97892">
        <ele>483</ele>
        <time>2023-11-17T18:45:11Z</time>
      </trkpt>
      <trkpt lat="44.11959" lon="5.9788">
        <ele>483</ele>
        <time>2023-11-17T18:45:13Z</time>
      </trkpt>
      <trkpt lat="44.11962" lon="5.97868">
        <ele>483</ele>
        <time>2023-11-17T18:45:15Z</time>
      </trkpt>
      <trkpt lat="44.11979" lon="5.97845">
        <ele>480</ele>
        <time>2023-11-17T18:45:20Z</time>
      </trkpt>
      <trkpt lat="44.11982" lon="5.97849">
        <ele>480</ele>
        <time>2023-11-17T18:45:21Z</time>
      </trkpt>
      <trkpt lat="44.11986" lon="5.97847">
        <ele>479</ele>
        <time>2023-11-17T18:45:22Z</time>
      </trkpt>
      <trkpt lat="44.11997" lon="5.97789">
        <ele>478</ele>
        <time>2023-11-17T18:45:32Z</time>
      </trkpt>
      <trkpt lat="44.11994" lon="5.97778">
        <ele>479</ele>
        <time>2023-11-17T18:45:34Z</time>
      </trkpt>
      <trkpt lat="44.11989" lon="5.97773">
        <ele>479</ele>
        <time>2023-11-17T18:45:36Z</time>
      </trkpt>
      <trkpt lat="44.11976" lon="5.97775">
        <ele>480</ele>
        <time>2023-11-17T18:45:39Z</time>
      </trkpt>
      <trkpt lat="44.11954" lon="5.97765">
        <ele>481</ele>
        <time>2023-11-17T18:45:44Z</time>
      </trkpt>
      <trkpt lat="44.11934" lon="5.97736">
        <ele>481</ele>
        <time>2023-11-17T18:45:51Z</time>
      </trkpt>
      <trkpt lat="44.11926" lon="5.9773">
        <ele>481</ele>
        <time>2023-11-17T18:45:53Z</time>
      </trkpt>
      <trkpt lat="44.11913" lon="5.97706">
        <ele>480</ele>
        <time>2023-11-17T18:45:58Z</time>
      </trkpt>
      <trkpt lat="44.1191" lon="5.9768">
        <ele>479</ele>
        <time>2023-11-17T18:46:03Z</time>
      </trkpt>
      <trkpt lat="44.11901" lon="5.97665">
        <ele>479</ele>
        <time>2023-11-17T18:46:06Z</time>
      </trkpt>
      <trkpt lat="44.11889" lon="5.97663">
        <ele>480</ele>
        <time>2023-11-17T18:46:09Z</time>
      </trkpt>
      <trkpt lat="44.11869" lon="5.97671">
        <ele>483</ele>
        <time>2023-11-17T18:46:14Z</time>
      </trkpt>
      <trkpt lat="44.11854" lon="5.97652">
        <ele>483</ele>
        <time>2023-11-17T18:46:18Z</time>
      </trkpt>
      <trkpt lat="44.11846" lon="5.97631">
        <ele>483</ele>
        <time>2023-11-17T18:46:22Z</time>
      </trkpt>
      <trkpt lat="44.11847" lon="5.97614">
        <ele>483</ele>
        <time>2023-11-17T18:46:25Z</time>
      </trkpt>
      <trkpt lat="44.11841" lon="5.97595">
        <ele>482</ele>
        <time>2023-11-17T18:46:29Z</time>
      </trkpt>
      <trkpt lat="44.11848" lon="5.97563">
        <ele>483</ele>
        <time>2023-11-17T18:46:34Z</time>
      </trkpt>
      <trkpt lat="44.11844" lon="5.97537">
        <ele>484</ele>
        <time>2023-11-17T18:46:39Z</time>
      </trkpt>
      <trkpt lat="44.11836" lon="5.97524">
        <ele>484</ele>
        <time>2023-11-17T18:46:42Z</time>
      </trkpt>
      <trkpt lat="44.11822" lon="5.9751">
        <ele>486</ele>
        <time>2023-11-17T18:46:46Z</time>
      </trkpt>
      <trkpt lat="44.11816" lon="5.97495">
        <ele>487</ele>
        <time>2023-11-17T18:46:49Z</time>
      </trkpt>
      <trkpt lat="44.11811" lon="5.97471">
        <ele>489</ele>
        <time>2023-11-17T18:46:53Z</time>
      </trkpt>
      <trkpt lat="44.11813" lon="5.97451">
        <ele>489</ele>
        <time>2023-11-17T18:46:56Z</time>
      </trkpt>
      <trkpt lat="44.11812" lon="5.97427">
        <ele>490</ele>
        <time>2023-11-17T18:47:00Z</time>
      </trkpt>
      <trkpt lat="44.11803" lon="5.97409">
        <ele>491</ele>
        <time>2023-11-17T18:47:04Z</time>
      </trkpt>
      <trkpt lat="44.118" lon="5.97408">
        <ele>491</ele>
        <time>2023-11-17T18:47:05Z</time>
      </trkpt>
      <trkpt lat="44.11796" lon="5.97412">
        <ele>490</ele>
        <time>2023-11-17T18:47:06Z</time>
      </trkpt>
      <trkpt lat="44.11787" lon="5.97426">
        <ele>490</ele>
        <time>2023-11-17T18:47:09Z</time>
      </trkpt>
      <trkpt lat="44.11781" lon="5.97424">
        <ele>490</ele>
        <time>2023-11-17T18:47:10Z</time>
      </trkpt>
      <trkpt lat="44.11771" lon="5.97427">
        <ele>490</ele>
        <time>2023-11-17T18:47:13Z</time>
      </trkpt>
      <trkpt lat="44.11761" lon="5.97423">
        <ele>490</ele>
        <time>2023-11-17T18:47:15Z</time>
      </trkpt>
      <trkpt lat="44.11751" lon="5.97414">
        <ele>490</ele>
        <time>2023-11-17T18:47:18Z</time>
      </trkpt>
      <trkpt lat="44.11729" lon="5.97386">
        <ele>494</ele>
        <time>2023-11-17T18:47:25Z</time>
      </trkpt>
      <trkpt lat="44.11724" lon="5.97371">
        <ele>494</ele>
        <time>2023-11-17T18:47:28Z</time>
      </trkpt>
      <trkpt lat="44.11718" lon="5.97366">
        <ele>495</ele>
        <time>2023-11-17T18:47:29Z</time>
      </trkpt>
      <trkpt lat="44.11701" lon="5.97363">
        <ele>497</ele>
        <time>2023-11-17T18:47:33Z</time>
      </trkpt>
      <trkpt lat="44.1169" lon="5.97366">
        <ele>498</ele>
        <time>2023-11-17T18:47:36Z</time>
      </trkpt>
      <trkpt lat="44.11672" lon="5.97378">
        <ele>500</ele>
        <time>2023-11-17T18:47:40Z</time>
      </trkpt>
      <trkpt lat="44.11637" lon="5.97377">
        <ele>504</ele>
        <time>2023-11-17T18:47:49Z</time>
      </trkpt>
      <trkpt lat="44.11616" lon="5.9738">
        <ele>506</ele>
        <time>2023-11-17T18:47:54Z</time>
      </trkpt>
      <trkpt lat="44.11608" lon="5.97384">
        <ele>508</ele>
        <time>2023-11-17T18:47:56Z</time>
      </trkpt>
      <trkpt lat="44.11604" lon="5.97382">
        <ele>508</ele>
        <time>2023-11-17T18:47:57Z</time>
      </trkpt>
      <trkpt lat="44.11594" lon="5.97366">
        <ele>507</ele>
        <time>2023-11-17T18:48:00Z</time>
      </trkpt>
      <trkpt lat="44.1158" lon="5.9736">
        <ele>508</ele>
        <time>2023-11-17T18:48:04Z</time>
      </trkpt>
      <trkpt lat="44.11571" lon="5.97363">
        <ele>509</ele>
        <time>2023-11-17T18:48:06Z</time>
      </trkpt>
      <trkpt lat="44.11563" lon="5.9737">
        <ele>511</ele>
        <time>2023-11-17T18:48:08Z</time>
      </trkpt>
      <trkpt lat="44.11562" lon="5.97389">
        <ele>513</ele>
        <time>2023-11-17T18:48:11Z</time>
      </trkpt>
      <trkpt lat="44.11557" lon="5.97397">
        <ele>515</ele>
        <time>2023-11-17T18:48:13Z</time>
      </trkpt>
      <trkpt lat="44.11538" lon="5.97405">
        <ele>517</ele>
        <time>2023-11-17T18:48:18Z</time>
      </trkpt>
      <trkpt lat="44.1152" lon="5.97405">
        <ele>519</ele>
        <time>2023-11-17T18:48:22Z</time>
      </trkpt>
      <trkpt lat="44.11498" lon="5.97414">
        <ele>521</ele>
        <time>2023-11-17T18:48:27Z</time>
      </trkpt>
      <trkpt lat="44.11495" lon="5.97411">
        <ele>521</ele>
        <time>2023-11-17T18:48:28Z</time>
      </trkpt>
      <trkpt lat="44.11478" lon="5.97406">
        <ele>522</ele>
        <time>2023-11-17T18:48:32Z</time>
      </trkpt>
      <trkpt lat="44.11465" lon="5.97409">
        <ele>523</ele>
        <time>2023-11-17T18:48:35Z</time>
      </trkpt>
      <trkpt lat="44.11456" lon="5.974">
        <ele>523</ele>
        <time>2023-11-17T18:48:38Z</time>
      </trkpt>
      <trkpt lat="44.11441" lon="5.97395">
        <ele>524</ele>
        <time>2023-11-17T18:48:41Z</time>
      </trkpt>
      <trkpt lat="44.11406" lon="5.97405">
        <ele>527</ele>
        <time>2023-11-17T18:48:50Z</time>
      </trkpt>
      <trkpt lat="44.11396" lon="5.97402">
        <ele>529</ele>
        <time>2023-11-17T18:48:52Z</time>
      </trkpt>
      <trkpt lat="44.11382" lon="5.9741">
        <ele>530</ele>
        <time>2023-11-17T18:48:56Z</time>
      </trkpt>
      <trkpt lat="44.11373" lon="5.97411">
        <ele>532</ele>
        <time>2023-11-17T18:48:58Z</time>
      </trkpt>
      <trkpt lat="44.11355" lon="5.9739">
        <ele>533</ele>
        <time>2023-11-17T18:49:03Z</time>
      </trkpt>
      <trkpt lat="44.11341" lon="5.97386">
        <ele>535</ele>
        <time>2023-11-17T18:49:06Z</time>
      </trkpt>
      <trkpt lat="44.11331" lon="5.97378">
        <ele>536</ele>
        <time>2023-11-17T18:49:09Z</time>
      </trkpt>
      <trkpt lat="44.11322" lon="5.97377">
        <ele>537</ele>
        <time>2023-11-17T18:49:11Z</time>
      </trkpt>
      <trkpt lat="44.11309" lon="5.97356">
        <ele>537</ele>
        <time>2023-11-17T18:49:16Z</time>
      </trkpt>
      <trkpt lat="44.11294" lon="5.97347">
        <ele>538</ele>
        <time>2023-11-17T18:49:20Z</time>
      </trkpt>
      <trkpt lat="44.11266" lon="5.97341">
        <ele>540</ele>
        <time>2023-11-17T18:49:26Z</time>
      </trkpt>
      <trkpt lat="44.11259" lon="5.97341">
        <ele>541</ele>
        <time>2023-11-17T18:49:28Z</time>
      </trkpt>
      <trkpt lat="44.11239" lon="5.97347">
        <ele>543</ele>
        <time>2023-11-17T18:49:33Z</time>
      </trkpt>
      <trkpt lat="44.11227" lon="5.97347">
        <ele>545</ele>
        <time>2023-11-17T18:49:36Z</time>
      </trkpt>
      <trkpt lat="44.11194" lon="5.97337">
        <ele>547</ele>
        <time>2023-11-17T18:49:43Z</time>
      </trkpt>
      <trkpt lat="44.11179" lon="5.97337">
        <ele>548</ele>
        <time>2023-11-17T18:49:47Z</time>
      </trkpt>
      <trkpt lat="44.11157" lon="5.97326">
        <ele>550</ele>
        <time>2023-11-17T18:49:52Z</time>
      </trkpt>
      <trkpt lat="44.11141" lon="5.97323">
        <ele>551</ele>
        <time>2023-11-17T18:49:56Z</time>
      </trkpt>
      <trkpt lat="44.11117" lon="5.97322">
        <ele>553</ele>
        <time>2023-11-17T18:50:02Z</time>
      </trkpt>
      <trkpt lat="44.11102" lon="5.97328">
        <ele>554</ele>
        <time>2023-11-17T18:50:05Z</time>
      </trkpt>
      <trkpt lat="44.11097" lon="5.97333">
        <ele>555</ele>
        <time>2023-11-17T18:50:07Z</time>
      </trkpt>
      <trkpt lat="44.11101" lon="5.97308">
        <ele>554</ele>
        <time>2023-11-17T18:50:11Z</time>
      </trkpt>
      <trkpt lat="44.11105" lon="5.97298">
        <ele>554</ele>
        <time>2023-11-17T18:50:13Z</time>
      </trkpt>
      <trkpt lat="44.11098" lon="5.97291">
        <ele>555</ele>
        <time>2023-11-17T18:50:15Z</time>
      </trkpt>
      <trkpt lat="44.11095" lon="5.97284">
        <ele>555</ele>
        <time>2023-11-17T18:50:16Z</time>
      </trkpt>
      <trkpt lat="44.11097" lon="5.97263">
        <ele>555</ele>
        <time>2023-11-17T18:50:20Z</time>
      </trkpt>
      <trkpt lat="44.11109" lon="5.97231">
        <ele>553</ele>
        <time>2023-11-17T18:50:26Z</time>
      </trkpt>
      <trkpt lat="44.11112" lon="5.97181">
        <ele>551</ele>
        <time>2023-11-17T18:50:34Z</time>
      </trkpt>
      <trkpt lat="44.11119" lon="5.97175">
        <ele>551</ele>
        <time>2023-11-17T18:50:36Z</time>
      </trkpt>
      <trkpt lat="44.11124" lon="5.9716">
        <ele>549</ele>
        <time>2023-11-17T18:50:39Z</time>
      </trkpt>
      <trkpt lat="44.11123" lon="5.97113">
        <ele>544</ele>
        <time>2023-11-17T18:50:47Z</time>
      </trkpt>
      <trkpt lat="44.11114" lon="5.97107">
        <ele>544</ele>
        <time>2023-11-17T18:50:49Z</time>
      </trkpt>
      <trkpt lat="44.11104" lon="5.97113">
        <ele>545</ele>
        <time>2023-11-17T18:50:52Z</time>
      </trkpt>
      <trkpt lat="44.1109" lon="5.97113">
        <ele>546</ele>
        <time>2023-11-17T18:50:55Z</time>
      </trkpt>
      <trkpt lat="44.1108" lon="5.97106">
        <ele>546</ele>
        <time>2023-11-17T18:50:58Z</time>
      </trkpt>
      <trkpt lat="44.11072" lon="5.97107">
        <ele>546</ele>
        <time>2023-11-17T18:51:00Z</time>
      </trkpt>
      <trkpt lat="44.11067" lon="5.971">
        <ele>546</ele>
        <time>2023-11-17T18:51:01Z</time>
      </trkpt>
      <trkpt lat="44.11052" lon="5.97104">
        <ele>547</ele>
        <time>2023-11-17T18:51:05Z</time>
      </trkpt>
      <trkpt lat="44.11038" lon="5.97072">
        <ele>546</ele>
        <time>2023-11-17T18:51:11Z</time>
      </trkpt>
      <trkpt lat="44.11015" lon="5.97061">
        <ele>547</ele>
        <time>2023-11-17T18:51:17Z</time>
      </trkpt>
      <trkpt lat="44.10987" lon="5.97062">
        <ele>549</ele>
        <time>2023-11-17T18:51:23Z</time>
      </trkpt>
      <trkpt lat="44.1099" lon="5.97046">
        <ele>549</ele>
        <time>2023-11-17T18:51:26Z</time>
      </trkpt>
      <trkpt lat="44.11001" lon="5.97043">
        <ele>548</ele>
        <time>2023-11-17T18:51:29Z</time>
      </trkpt>
      <trkpt lat="44.1101" lon="5.97035">
        <ele>548</ele>
        <time>2023-11-17T18:51:31Z</time>
      </trkpt>
      <trkpt lat="44.11044" lon="5.97044">
        <ele>545</ele>
        <time>2023-11-17T18:51:39Z</time>
      </trkpt>
      <trkpt lat="44.11092" lon="5.97036">
        <ele>540</ele>
        <time>2023-11-17T18:51:51Z</time>
      </trkpt>
      <trkpt lat="44.1111" lon="5.97038">
        <ele>539</ele>
        <time>2023-11-17T18:51:55Z</time>
      </trkpt>
      <trkpt lat="44.11115" lon="5.97034">
        <ele>538</ele>
        <time>2023-11-17T18:51:56Z</time>
      </trkpt>
      <trkpt lat="44.11121" lon="5.97021">
        <ele>537</ele>
        <time>2023-11-17T18:51:59Z</time>
      </trkpt>
      <trkpt lat="44.11129" lon="5.97016">
        <ele>536</ele>
        <time>2023-11-17T18:52:01Z</time>
      </trkpt>
      <trkpt lat="44.11135" lon="5.97017">
        <ele>535</ele>
        <time>2023-11-17T18:52:02Z</time>
      </trkpt>
      <trkpt lat="44.11149" lon="5.97033">
        <ele>535</ele>
        <time>2023-11-17T18:52:07Z</time>
      </trkpt>
      <trkpt lat="44.11161" lon="5.97039">
        <ele>534</ele>
        <time>2023-11-17T18:52:10Z</time>
      </trkpt>
      <trkpt lat="44.11177" lon="5.97033">
        <ele>533</ele>
        <time>2023-11-17T18:52:13Z</time>
      </trkpt>
      <trkpt lat="44.11191" lon="5.97015">
        <ele>531</ele>
        <time>2023-11-17T18:52:18Z</time>
      </trkpt>
      <trkpt lat="44.112" lon="5.9701">
        <ele>529</ele>
        <time>2023-11-17T18:52:20Z</time>
      </trkpt>
      <trkpt lat="44.11211" lon="5.96998">
        <ele>527</ele>
        <time>2023-11-17T18:52:23Z</time>
      </trkpt>
      <trkpt lat="44.11235" lon="5.96985">
        <ele>525</ele>
        <time>2023-11-17T18:52:29Z</time>
      </trkpt>
      <trkpt lat="44.11244" lon="5.96987">
        <ele>525</ele>
        <time>2023-11-17T18:52:31Z</time>
      </trkpt>
      <trkpt lat="44.1125" lon="5.96984">
        <ele>524</ele>
        <time>2023-11-17T18:52:33Z</time>
      </trkpt>
      <trkpt lat="44.11259" lon="5.9695">
        <ele>524</ele>
        <time>2023-11-17T18:52:39Z</time>
      </trkpt>
      <trkpt lat="44.11264" lon="5.9695">
        <ele>524</ele>
        <time>2023-11-17T18:52:40Z</time>
      </trkpt>
      <trkpt lat="44.11287" lon="5.96968">
        <ele>524</ele>
        <time>2023-11-17T18:52:46Z</time>
      </trkpt>
      <trkpt lat="44.11299" lon="5.9697">
        <ele>524</ele>
        <time>2023-11-17T18:52:49Z</time>
      </trkpt>
      <trkpt lat="44.11311" lon="5.96941">
        <ele>526</ele>
        <time>2023-11-17T18:52:55Z</time>
      </trkpt>
      <trkpt lat="44.11317" lon="5.9694">
        <ele>527</ele>
        <time>2023-11-17T18:52:56Z</time>
      </trkpt>
      <trkpt lat="44.1133" lon="5.96957">
        <ele>526</ele>
        <time>2023-11-17T18:53:00Z</time>
      </trkpt>
      <trkpt lat="44.11346" lon="5.96996">
        <ele>520</ele>
        <time>2023-11-17T18:53:08Z</time>
      </trkpt>
      <trkpt lat="44.11354" lon="5.97026">
        <ele>521</ele>
        <time>2023-11-17T18:53:13Z</time>
      </trkpt>
      <trkpt lat="44.1136" lon="5.97027">
        <ele>521</ele>
        <time>2023-11-17T18:53:15Z</time>
      </trkpt>
      <trkpt lat="44.11373" lon="5.97022">
        <ele>519</ele>
        <time>2023-11-17T18:53:18Z</time>
      </trkpt>
      <trkpt lat="44.11392" lon="5.9701">
        <ele>517</ele>
        <time>2023-11-17T18:53:23Z</time>
      </trkpt>
      <trkpt lat="44.114" lon="5.97">
        <ele>515</ele>
        <time>2023-11-17T18:53:25Z</time>
      </trkpt>
      <trkpt lat="44.11407" lon="5.96998">
        <ele>515</ele>
        <time>2023-11-17T18:53:27Z</time>
      </trkpt>
      <trkpt lat="44.11442" lon="5.97005">
        <ele>515</ele>
        <time>2023-11-17T18:53:35Z</time>
      </trkpt>
      <trkpt lat="44.1145" lon="5.97009">
        <ele>515</ele>
        <time>2023-11-17T18:53:37Z</time>
      </trkpt>
      <trkpt lat="44.11458" lon="5.97023">
        <ele>515</ele>
        <time>2023-11-17T18:53:40Z</time>
      </trkpt>
      <trkpt lat="44.11465" lon="5.97057">
        <ele>516</ele>
        <time>2023-11-17T18:53:46Z</time>
      </trkpt>
      <trkpt lat="44.11481" lon="5.97057">
        <ele>515</ele>
        <time>2023-11-17T18:53:50Z</time>
      </trkpt>
      <trkpt lat="44.11487" lon="5.9706">
        <ele>515</ele>
        <time>2023-11-17T18:53:51Z</time>
      </trkpt>
      <trkpt lat="44.11509" lon="5.97081">
        <ele>514</ele>
        <time>2023-11-17T18:53:58Z</time>
      </trkpt>
      <trkpt lat="44.11529" lon="5.97142">
        <ele>512</ele>
        <time>2023-11-17T18:54:09Z</time>
      </trkpt>
      <trkpt lat="44.11514" lon="5.97165">
        <ele>510</ele>
        <time>2023-11-17T18:54:14Z</time>
      </trkpt>
      <trkpt lat="44.1151" lon="5.97185">
        <ele>511</ele>
        <time>2023-11-17T18:54:17Z</time>
      </trkpt>
      <trkpt lat="44.11522" lon="5.97213">
        <ele>511</ele>
        <time>2023-11-17T18:54:23Z</time>
      </trkpt>
      <trkpt lat="44.11528" lon="5.97215">
        <ele>510</ele>
        <time>2023-11-17T18:54:24Z</time>
      </trkpt>
      <trkpt lat="44.11531" lon="5.97203">
        <ele>510</ele>
        <time>2023-11-17T18:54:26Z</time>
      </trkpt>
      <trkpt lat="44.11535" lon="5.97199">
        <ele>510</ele>
        <time>2023-11-17T18:54:28Z</time>
      </trkpt>
      <trkpt lat="44.11541" lon="5.97198">
        <ele>510</ele>
        <time>2023-11-17T18:54:29Z</time>
      </trkpt>
      <trkpt lat="44.11549" lon="5.97202">
        <ele>509</ele>
        <time>2023-11-17T18:54:31Z</time>
      </trkpt>
      <trkpt lat="44.11557" lon="5.9721">
        <ele>508</ele>
        <time>2023-11-17T18:54:33Z</time>
      </trkpt>
      <trkpt lat="44.11566" lon="5.97229">
        <ele>507</ele>
        <time>2023-11-17T18:54:37Z</time>
      </trkpt>
      <trkpt lat="44.11579" lon="5.97242">
        <ele>504</ele>
        <time>2023-11-17T18:54:41Z</time>
      </trkpt>
      <trkpt lat="44.11588" lon="5.97244">
        <ele>504</ele>
        <time>2023-11-17T18:54:43Z</time>
      </trkpt>
      <trkpt lat="44.11592" lon="5.97252">
        <ele>503</ele>
        <time>2023-11-17T18:54:45Z</time>
      </trkpt>
      <trkpt lat="44.11593" lon="5.97264">
        <ele>503</ele>
        <time>2023-11-17T18:54:47Z</time>
      </trkpt>
      <trkpt lat="44.11612" lon="5.97314">
        <ele>503</ele>
        <time>2023-11-17T18:54:56Z</time>
      </trkpt>
      <trkpt lat="44.11617" lon="5.97321">
        <ele>502</ele>
        <time>2023-11-17T18:54:58Z</time>
      </trkpt>
      <trkpt lat="44.1164" lon="5.97309">
        <ele>502</ele>
        <time>2023-11-17T18:55:04Z</time>
      </trkpt>
      <trkpt lat="44.11648" lon="5.97311">
        <ele>501</ele>
        <time>2023-11-17T18:55:05Z</time>
      </trkpt>
      <trkpt lat="44.11659" lon="5.97309">
        <ele>501</ele>
        <time>2023-11-17T18:55:08Z</time>
      </trkpt>
      <trkpt lat="44.11686" lon="5.97294">
        <ele>502</ele>
        <time>2023-11-17T18:55:15Z</time>
      </trkpt>
      <trkpt lat="44.11694" lon="5.97287">
        <ele>503</ele>
        <time>2023-11-17T18:55:17Z</time>
      </trkpt>
      <trkpt lat="44.11699" lon="5.97288">
        <ele>502</ele>
        <time>2023-11-17T18:55:18Z</time>
      </trkpt>
      <trkpt lat="44.11712" lon="5.97317">
        <ele>498</ele>
        <time>2023-11-17T18:55:24Z</time>
      </trkpt>
      <trkpt lat="44.11732" lon="5.97352">
        <ele>494</ele>
        <time>2023-11-17T18:55:31Z</time>
      </trkpt>
      <trkpt lat="44.11741" lon="5.97385">
        <ele>492</ele>
        <time>2023-11-17T18:55:37Z</time>
      </trkpt>
      <trkpt lat="44.11762" lon="5.97415">
        <ele>490</ele>
        <time>2023-11-17T18:55:44Z</time>
      </trkpt>
      <trkpt lat="44.11774" lon="5.97422">
        <ele>490</ele>
        <time>2023-11-17T18:55:47Z</time>
      </trkpt>
      <trkpt lat="44.11781" lon="5.9742">
        <ele>490</ele>
        <time>2023-11-17T18:55:49Z</time>
      </trkpt>
      <trkpt lat="44.1179" lon="5.97413">
        <ele>490</ele>
        <time>2023-11-17T18:55:52Z</time>
      </trkpt>
      <trkpt lat="44.11797" lon="5.97415">
        <ele>490</ele>
        <time>2023-11-17T18:55:53Z</time>
      </trkpt>
      <trkpt lat="44.11801" lon="5.97413">
        <ele>490</ele>
        <time>2023-11-17T18:55:54Z</time>
      </trkpt>
      <trkpt lat="44.11805" lon="5.97416">
        <ele>490</ele>
        <time>2023-11-17T18:55:55Z</time>
      </trkpt>
      <trkpt lat="44.11807" lon="5.97421">
        <ele>490</ele>
        <time>2023-11-17T18:55:56Z</time>
      </trkpt>
      <trkpt lat="44.11803" lon="5.97462">
        <ele>489</ele>
        <time>2023-11-17T18:56:03Z</time>
      </trkpt>
      <trkpt lat="44.11804" lon="5.97475">
        <ele>489</ele>
        <time>2023-11-17T18:56:05Z</time>
      </trkpt>
      <trkpt lat="44.11818" lon="5.97506">
        <ele>487</ele>
        <time>2023-11-17T18:56:11Z</time>
      </trkpt>
      <trkpt lat="44.11831" lon="5.97525">
        <ele>484</ele>
        <time>2023-11-17T18:56:16Z</time>
      </trkpt>
      <trkpt lat="44.11842" lon="5.97548">
        <ele>483</ele>
        <time>2023-11-17T18:56:21Z</time>
      </trkpt>
      <trkpt lat="44.11843" lon="5.97554">
        <ele>483</ele>
        <time>2023-11-17T18:56:22Z</time>
      </trkpt>
      <trkpt lat="44.11838" lon="5.97583">
        <ele>482</ele>
        <time>2023-11-17T18:56:27Z</time>
      </trkpt>
      <trkpt lat="44.11841" lon="5.97603">
        <ele>483</ele>
        <time>2023-11-17T18:56:30Z</time>
      </trkpt>
      <trkpt lat="44.11839" lon="5.97618">
        <ele>483</ele>
        <time>2023-11-17T18:56:33Z</time>
      </trkpt>
      <trkpt lat="44.11844" lon="5.97643">
        <ele>484</ele>
        <time>2023-11-17T18:56:37Z</time>
      </trkpt>
      <trkpt lat="44.11851" lon="5.9766">
        <ele>484</ele>
        <time>2023-11-17T18:56:40Z</time>
      </trkpt>
      <trkpt lat="44.11858" lon="5.97666">
        <ele>483</ele>
        <time>2023-11-17T18:56:42Z</time>
      </trkpt>
      <trkpt lat="44.1188" lon="5.97651">
        <ele>481</ele>
        <time>2023-11-17T18:56:48Z</time>
      </trkpt>
      <trkpt lat="44.11884" lon="5.97651">
        <ele>481</ele>
        <time>2023-11-17T18:56:49Z</time>
      </trkpt>
      <trkpt lat="44.11911" lon="5.97669">
        <ele>478</ele>
        <time>2023-11-17T18:56:56Z</time>
      </trkpt>
      <trkpt lat="44.11917" lon="5.9768">
        <ele>478</ele>
        <time>2023-11-17T18:56:58Z</time>
      </trkpt>
      <trkpt lat="44.11925" lon="5.97714">
        <ele>480</ele>
        <time>2023-11-17T18:57:04Z</time>
      </trkpt>
      <trkpt lat="44.11948" lon="5.97746">
        <ele>481</ele>
        <time>2023-11-17T18:57:12Z</time>
      </trkpt>
      <trkpt lat="44.1196" lon="5.97759">
        <ele>481</ele>
        <time>2023-11-17T18:57:15Z</time>
      </trkpt>
      <trkpt lat="44.11968" lon="5.97764">
        <ele>480</ele>
        <time>2023-11-17T18:57:17Z</time>
      </trkpt>
      <trkpt lat="44.11995" lon="5.97772">
        <ele>479</ele>
        <time>2023-11-17T18:57:24Z</time>
      </trkpt>
      <trkpt lat="44.12008" lon="5.97787">
        <ele>479</ele>
        <time>2023-11-17T18:57:28Z</time>
      </trkpt>
      <trkpt lat="44.12023" lon="5.97811">
        <ele>480</ele>
        <time>2023-11-17T18:57:33Z</time>
      </trkpt>
      <trkpt lat="44.12023" lon="5.97869">
        <ele>479</ele>
        <time>2023-11-17T18:57:43Z</time>
      </trkpt>
      <trkpt lat="44.12013" lon="5.97907">
        <ele>477</ele>
        <time>2023-11-17T18:57:49Z</time>
      </trkpt>
      <trkpt lat="44.12015" lon="5.9792">
        <ele>476</ele>
        <time>2023-11-17T18:57:52Z</time>
      </trkpt>
      <trkpt lat="44.12033" lon="5.9794">
        <ele>477</ele>
        <time>2023-11-17T18:57:57Z</time>
      </trkpt>
      <trkpt lat="44.12049" lon="5.97942">
        <ele>478</ele>
        <time>2023-11-17T18:58:01Z</time>
      </trkpt>
      <trkpt lat="44.1206" lon="5.97937">
        <ele>479</ele>
        <time>2023-11-17T18:58:04Z</time>
      </trkpt>
      <trkpt lat="44.12087" lon="5.97951">
        <ele>478</ele>
        <time>2023-11-17T18:58:10Z</time>
      </trkpt>
      <trkpt lat="44.12111" lon="5.97948">
        <ele>480</ele>
        <time>2023-11-17T18:58:16Z</time>
      </trkpt>
      <trkpt lat="44.12136" lon="5.97931">
        <ele>484</ele>
        <time>2023-11-17T18:58:22Z</time>
      </trkpt>
      <trkpt lat="44.12153" lon="5.97925">
        <ele>487</ele>
        <time>2023-11-17T18:58:26Z</time>
      </trkpt>
      <trkpt lat="44.12166" lon="5.97917">
        <ele>490</ele>
        <time>2023-11-17T18:58:30Z</time>
      </trkpt>
      <trkpt lat="44.12178" lon="5.97915">
        <ele>490</ele>
        <time>2023-11-17T18:58:33Z</time>
      </trkpt>
      <trkpt lat="44.12192" lon="5.97916">
        <ele>490</ele>
        <time>2023-11-17T18:58:36Z</time>
      </trkpt>
      <trkpt lat="44.12271" lon="5.979">
        <ele>492</ele>
        <time>2023-11-17T18:58:55Z</time>
      </trkpt>
      <trkpt lat="44.12292" lon="5.9789">
        <ele>493</ele>
        <time>2023-11-17T18:59:00Z</time>
      </trkpt>
      <trkpt lat="44.12299" lon="5.97882">
        <ele>494</ele>
        <time>2023-11-17T18:59:02Z</time>
      </trkpt>
      <trkpt lat="44.12303" lon="5.97872">
        <ele>496</ele>
        <time>2023-11-17T18:59:04Z</time>
      </trkpt>
      <trkpt lat="44.12314" lon="5.97814">
        <ele>502</ele>
        <time>2023-11-17T18:59:14Z</time>
      </trkpt>
      <trkpt lat="44.12318" lon="5.97776">
        <ele>505</ele>
        <time>2023-11-17T18:59:20Z</time>
      </trkpt>
      <trkpt lat="44.12332" lon="5.97704">
        <ele>508</ele>
        <time>2023-11-17T18:59:33Z</time>
      </trkpt>
      <trkpt lat="44.12328" lon="5.97693">
        <ele>509</ele>
        <time>2023-11-17T18:59:35Z</time>
      </trkpt>
      <trkpt lat="44.12302" lon="5.97668">
        <ele>511</ele>
        <time>2023-11-17T18:59:42Z</time>
      </trkpt>
      <trkpt lat="44.12286" lon="5.97659">
        <ele>512</ele>
        <time>2023-11-17T18:59:46Z</time>
      </trkpt>
      <trkpt lat="44.12276" lon="5.97648">
        <ele>513</ele>
        <time>2023-11-17T18:59:49Z</time>
      </trkpt>
      <trkpt lat="44.12271" lon="5.97636">
        <ele>513</ele>
        <time>2023-11-17T18:59:52Z</time>
      </trkpt>
      <trkpt lat="44.12271" lon="5.97623">
        <ele>514</ele>
        <time>2023-11-17T18:59:54Z</time>
      </trkpt>
      <trkpt lat="44.12275" lon="5.97608">
        <ele>514</ele>
        <time>2023-11-17T18:59:56Z</time>
      </trkpt>
      <trkpt lat="44.12292" lon="5.97572">
        <ele>516</ele>
        <time>2023-11-17T19:00:04Z</time>
      </trkpt>
      <trkpt lat="44.12309" lon="5.97509">
        <ele>523</ele>
        <time>2023-11-17T19:00:15Z</time>
      </trkpt>
      <trkpt lat="44.12323" lon="5.97475">
        <ele>526</ele>
        <time>2023-11-17T19:00:21Z</time>
      </trkpt>
      <trkpt lat="44.12336" lon="5.974">
        <ele>533</ele>
        <time>2023-11-17T19:00:34Z</time>
      </trkpt>
      <trkpt lat="44.12353" lon="5.97377">
        <ele>532</ele>
        <time>2023-11-17T19:00:40Z</time>
      </trkpt>
      <trkpt lat="44.12366" lon="5.97348">
        <ele>532</ele>
        <time>2023-11-17T19:00:46Z</time>
      </trkpt>
      <trkpt lat="44.12369" lon="5.97325">
        <ele>533</ele>
        <time>2023-11-17T19:00:50Z</time>
      </trkpt>
      <trkpt lat="44.12369" lon="5.97297">
        <ele>535</ele>
        <time>2023-11-17T19:00:54Z</time>
      </trkpt>
      <trkpt lat="44.12372" lon="5.97284">
        <ele>535</ele>
        <time>2023-11-17T19:00:57Z</time>
      </trkpt>
      <trkpt lat="44.1239" lon="5.97255">
        <ele>533</ele>
        <time>2023-11-17T19:01:03Z</time>
      </trkpt>
      <trkpt lat="44.12403" lon="5.97218">
        <ele>532</ele>
        <time>2023-11-17T19:01:10Z</time>
      </trkpt>
      <trkpt lat="44.12411" lon="5.97204">
        <ele>531</ele>
        <time>2023-11-17T19:01:13Z</time>
      </trkpt>
      <trkpt lat="44.12418" lon="5.97207">
        <ele>531</ele>
        <time>2023-11-17T19:01:15Z</time>
      </trkpt>
      <trkpt lat="44.12436" lon="5.97228">
        <ele>530</ele>
        <time>2023-11-17T19:01:20Z</time>
      </trkpt>
      <trkpt lat="44.12445" lon="5.97232">
        <ele>530</ele>
        <time>2023-11-17T19:01:22Z</time>
      </trkpt>
      <trkpt lat="44.12466" lon="5.97236">
        <ele>531</ele>
        <time>2023-11-17T19:01:27Z</time>
      </trkpt>
      <trkpt lat="44.12481" lon="5.97257">
        <ele>532</ele>
        <time>2023-11-17T19:01:32Z</time>
      </trkpt>
      <trkpt lat="44.12488" lon="5.9725">
        <ele>532</ele>
        <time>2023-11-17T19:01:34Z</time>
      </trkpt>
      <trkpt lat="44.12493" lon="5.97251">
        <ele>533</ele>
        <time>2023-11-17T19:01:35Z</time>
      </trkpt>
      <trkpt lat="44.12489" lon="5.97265">
        <ele>532</ele>
        <time>2023-11-17T19:01:38Z</time>
      </trkpt>
      <trkpt lat="44.12499" lon="5.97256">
        <ele>533</ele>
        <time>2023-11-17T19:01:41Z</time>
      </trkpt>
      <trkpt lat="44.12505" lon="5.97241">
        <ele>531</ele>
        <time>2023-11-17T19:01:44Z</time>
      </trkpt>
      <trkpt lat="44.1252" lon="5.97237">
        <ele>529</ele>
        <time>2023-11-17T19:01:47Z</time>
      </trkpt>
      <trkpt lat="44.12528" lon="5.97227">
        <ele>527</ele>
        <time>2023-11-17T19:01:50Z</time>
      </trkpt>
      <trkpt lat="44.12538" lon="5.9727">
        <ele>526</ele>
        <time>2023-11-17T19:01:57Z</time>
      </trkpt>
      <trkpt lat="44.1253" lon="5.97297">
        <ele>525</ele>
        <time>2023-11-17T19:02:02Z</time>
      </trkpt>
      <trkpt lat="44.12529" lon="5.97319">
        <ele>524</ele>
        <time>2023-11-17T19:02:06Z</time>
      </trkpt>
      <trkpt lat="44.12522" lon="5.97352">
        <ele>522</ele>
        <time>2023-11-17T19:02:12Z</time>
      </trkpt>
      <trkpt lat="44.12515" lon="5.97367">
        <ele>523</ele>
        <time>2023-11-17T19:02:15Z</time>
      </trkpt>
      <trkpt lat="44.12506" lon="5.97407">
        <ele>521</ele>
        <time>2023-11-17T19:02:22Z</time>
      </trkpt>
      <trkpt lat="44.12495" lon="5.97438">
        <ele>518</ele>
        <time>2023-11-17T19:02:27Z</time>
      </trkpt>
      <trkpt lat="44.12484" lon="5.97461">
        <ele>514</ele>
        <time>2023-11-17T19:02:32Z</time>
      </trkpt>
      <trkpt lat="44.1247" lon="5.97463">
        <ele>515</ele>
        <time>2023-11-17T19:02:35Z</time>
      </trkpt>
      <trkpt lat="44.12466" lon="5.9747">
        <ele>514</ele>
        <time>2023-11-17T19:02:37Z</time>
      </trkpt>
      <trkpt lat="44.12465" lon="5.97481">
        <ele>512</ele>
        <time>2023-11-17T19:02:39Z</time>
      </trkpt>
      <trkpt lat="44.12475" lon="5.97545">
        <ele>505</ele>
        <time>2023-11-17T19:02:50Z</time>
      </trkpt>
      <trkpt lat="44.12462" lon="5.97631">
        <ele>500</ele>
        <time>2023-11-17T19:03:04Z</time>
      </trkpt>
      <trkpt lat="44.12459" lon="5.97636">
        <ele>500</ele>
        <time>2023-11-17T19:03:05Z</time>
      </trkpt>
      <trkpt lat="44.12449" lon="5.97639">
        <ele>501</ele>
        <time>2023-11-17T19:03:08Z</time>
      </trkpt>
      <trkpt lat="44.12447" lon="5.97642">
        <ele>501</ele>
        <time>2023-11-17T19:03:09Z</time>
      </trkpt>
      <trkpt lat="44.12454" lon="5.97663">
        <ele>498</ele>
        <time>2023-11-17T19:03:12Z</time>
      </trkpt>
      <trkpt lat="44.12456" lon="5.97689">
        <ele>497</ele>
        <time>2023-11-17T19:03:17Z</time>
      </trkpt>
      <trkpt lat="44.12452" lon="5.9769">
        <ele>498</ele>
        <time>2023-11-17T19:03:18Z</time>
      </trkpt>
      <trkpt lat="44.12425" lon="5.97725">
        <ele>500</ele>
        <time>2023-11-17T19:03:26Z</time>
      </trkpt>
      <trkpt lat="44.12413" lon="5.97724">
        <ele>501</ele>
        <time>2023-11-17T19:03:29Z</time>
      </trkpt>
      <trkpt lat="44.12401" lon="5.97711">
        <ele>503</ele>
        <time>2023-11-17T19:03:33Z</time>
      </trkpt>
      <trkpt lat="44.12398" lon="5.97715">
        <ele>503</ele>
        <time>2023-11-17T19:03:34Z</time>
      </trkpt>
      <trkpt lat="44.12397" lon="5.97721">
        <ele>503</ele>
        <time>2023-11-17T19:03:35Z</time>
      </trkpt>
      <trkpt lat="44.12401" lon="5.97726">
        <ele>502</ele>
        <time>2023-11-17T19:03:36Z</time>
      </trkpt>
      <trkpt lat="44.12402" lon="5.97734">
        <ele>502</ele>
        <time>2023-11-17T19:03:37Z</time>
      </trkpt>
      <trkpt lat="44.1239" lon="5.97758">
        <ele>501</ele>
        <time>2023-11-17T19:03:42Z</time>
      </trkpt>
      <trkpt lat="44.12384" lon="5.97782">
        <ele>500</ele>
        <time>2023-11-17T19:03:47Z</time>
      </trkpt>
      <trkpt lat="44.12376" lon="5.97795">
        <ele>500</ele>
        <time>2023-11-17T19:03:49Z</time>
      </trkpt>
      <trkpt lat="44.1238" lon="5.97844">
        <ele>496</ele>
        <time>2023-11-17T19:03:58Z</time>
      </trkpt>
      <trkpt lat="44.12374" lon="5.97857">
        <ele>495</ele>
        <time>2023-11-17T19:04:00Z</time>
      </trkpt>
      <trkpt lat="44.12362" lon="5.9791">
        <ele>489</ele>
        <time>2023-11-17T19:04:10Z</time>
      </trkpt>
      <trkpt lat="44.12362" lon="5.97929">
        <ele>486</ele>
        <time>2023-11-17T19:04:13Z</time>
      </trkpt>
      <trkpt lat="44.12354" lon="5.97941">
        <ele>484</ele>
        <time>2023-11-17T19:04:16Z</time>
      </trkpt>
      <trkpt lat="44.12361" lon="5.9795">
        <ele>483</ele>
        <time>2023-11-17T19:04:18Z</time>
      </trkpt>
      <trkpt lat="44.12358" lon="5.97968">
        <ele>479</ele>
        <time>2023-11-17T19:04:21Z</time>
      </trkpt>
      <trkpt lat="44.12358" lon="5.97988">
        <ele>476</ele>
        <time>2023-11-17T19:04:24Z</time>
      </trkpt>
      <trkpt lat="44.12347" lon="5.97999">
        <ele>472</ele>
        <time>2023-11-17T19:04:27Z</time>
      </trkpt>
      <trkpt lat="44.12344" lon="5.98027">
        <ele>470</ele>
        <time>2023-11-17T19:04:32Z</time>
      </trkpt>
      <trkpt lat="44.12415" lon="5.98138">
        <ele>458</ele>
        <time>2023-11-17T19:04:57Z</time>
      </trkpt>
      <trkpt lat="44.12431" lon="5.98138">
        <ele>458</ele>
        <time>2023-11-17T19:05:01Z</time>
      </trkpt>
      <trkpt lat="44.12449" lon="5.98132">
        <ele>458</ele>
        <time>2023-11-17T19:05:05Z</time>
      </trkpt>
      <trkpt lat="44.12491" lon="5.9813">
        <ele>457</ele>
        <time>2023-11-17T19:05:15Z</time>
      </trkpt>
      <trkpt lat="44.12509" lon="5.9812">
        <ele>458</ele>
        <time>2023-11-17T19:05:19Z</time>
      </trkpt>
      <trkpt lat="44.12563" lon="5.98065">
        <ele>459</ele>
        <time>2023-11-17T19:05:35Z</time>
      </trkpt>
      <trkpt lat="44.12564" lon="5.98047">
        <ele>459</ele>
        <time>2023-11-17T19:05:38Z</time>
      </trkpt>
      <trkpt lat="44.12561" lon="5.98035">
        <ele>460</ele>
        <time>2023-11-17T19:05:40Z</time>
      </trkpt>
      <trkpt lat="44.1253" lon="5.98003">
        <ele>462</ele>
        <time>2023-11-17T19:05:49Z</time>
      </trkpt>
      <trkpt lat="44.12526" lon="5.97994">
        <ele>463</ele>
        <time>2023-11-17T19:05:51Z</time>
      </trkpt>
      <trkpt lat="44.12524" lon="5.9798">
        <ele>464</ele>
        <time>2023-11-17T19:05:53Z</time>
      </trkpt>
      <trkpt lat="44.12524" lon="5.97969">
        <ele>465</ele>
        <time>2023-11-17T19:05:55Z</time>
      </trkpt>
      <trkpt lat="44.12527" lon="5.9796">
        <ele>465</ele>
        <time>2023-11-17T19:05:57Z</time>
      </trkpt>
      <trkpt lat="44.12545" lon="5.97924">
        <ele>465</ele>
        <time>2023-11-17T19:06:04Z</time>
      </trkpt>
      <trkpt lat="44.12559" lon="5.97886">
        <ele>465</ele>
        <time>2023-11-17T19:06:11Z</time>
      </trkpt>
      <trkpt lat="44.12586" lon="5.97775">
        <ele>464</ele>
        <time>2023-11-17T19:06:31Z</time>
      </trkpt>
      <trkpt lat="44.12586" lon="5.97756">
        <ele>464</ele>
        <time>2023-11-17T19:06:34Z</time>
      </trkpt>
      <trkpt lat="44.12582" lon="5.97743">
        <ele>465</ele>
        <time>2023-11-17T19:06:37Z</time>
      </trkpt>
      <trkpt lat="44.1256" lon="5.97709">
        <ele>473</ele>
        <time>2023-11-17T19:06:44Z</time>
      </trkpt>
      <trkpt lat="44.12556" lon="5.97672">
        <ele>475</ele>
        <time>2023-11-17T19:06:51Z</time>
      </trkpt>
      <trkpt lat="44.1256" lon="5.97652">
        <ele>475</ele>
        <time>2023-11-17T19:06:54Z</time>
      </trkpt>
      <trkpt lat="44.1257" lon="5.97632">
        <ele>474</ele>
        <time>2023-11-17T19:06:58Z</time>
      </trkpt>
      <trkpt lat="44.12582" lon="5.97615">
        <ele>472</ele>
        <time>2023-11-17T19:07:02Z</time>
      </trkpt>
      <trkpt lat="44.12626" lon="5.97573">
        <ele>471</ele>
        <time>2023-11-17T19:07:15Z</time>
      </trkpt>
      <trkpt lat="44.12642" lon="5.97554">
        <ele>471</ele>
        <time>2023-11-17T19:07:19Z</time>
      </trkpt>
      <trkpt lat="44.1264" lon="5.9756">
        <ele>471</ele>
        <time>2023-11-17T19:07:21Z</time>
      </trkpt>
      <trkpt lat="44.12621" lon="5.97584">
        <ele>471</ele>
        <time>2023-11-17T19:07:27Z</time>
      </trkpt>
      <trkpt lat="44.12613" lon="5.97588">
        <ele>471</ele>
        <time>2023-11-17T19:07:29Z</time>
      </trkpt>
      <trkpt lat="44.12636" lon="5.97567">
        <ele>471</ele>
        <time>2023-11-17T19:07:35Z</time>
      </trkpt>
      <trkpt lat="44.12648" lon="5.97547">
        <ele>470</ele>
        <time>2023-11-17T19:07:39Z</time>
      </trkpt>
      <trkpt lat="44.12673" lon="5.97473">
        <ele>471</ele>
        <time>2023-11-17T19:07:53Z</time>
      </trkpt>
      <trkpt lat="44.12715" lon="5.97387">
        <ele>474</ele>
        <time>2023-11-17T19:08:10Z</time>
      </trkpt>
      <trkpt lat="44.12728" lon="5.97352">
        <ele>475</ele>
        <time>2023-11-17T19:08:17Z</time>
      </trkpt>
      <trkpt lat="44.12748" lon="5.97287">
        <ele>479</ele>
        <time>2023-11-17T19:08:29Z</time>
      </trkpt>
      <trkpt lat="44.12762" lon="5.97231">
        <ele>483</ele>
        <time>2023-11-17T19:08:39Z</time>
      </trkpt>
      <trkpt lat="44.12771" lon="5.97208">
        <ele>485</ele>
        <time>2023-11-17T19:08:43Z</time>
      </trkpt>
      <trkpt lat="44.12823" lon="5.97149">
        <ele>484</ele>
        <time>2023-11-17T19:08:59Z</time>
      </trkpt>
      <trkpt lat="44.12831" lon="5.97134">
        <ele>484</ele>
        <time>2023-11-17T19:09:02Z</time>
      </trkpt>
      <trkpt lat="44.12841" lon="5.97102">
        <ele>485</ele>
        <time>2023-11-17T19:09:08Z</time>
      </trkpt>
      <trkpt lat="44.1286" lon="5.9707">
        <ele>486</ele>
        <time>2023-11-17T19:09:15Z</time>
      </trkpt>
      <trkpt lat="44.12874" lon="5.97053">
        <ele>486</ele>
        <time>2023-11-17T19:09:19Z</time>
      </trkpt>
      <trkpt lat="44.12894" lon="5.97035">
        <ele>485</ele>
        <time>2023-11-17T19:09:25Z</time>
      </trkpt>
      <trkpt lat="44.12923" lon="5.97001">
        <ele>483</ele>
        <time>2023-11-17T19:09:34Z</time>
      </trkpt>
      <trkpt lat="44.12966" lon="5.96933">
        <ele>483</ele>
        <time>2023-11-17T19:09:49Z</time>
      </trkpt>
      <trkpt lat="44.1297" lon="5.96916">
        <ele>484</ele>
        <time>2023-11-17T19:09:52Z</time>
      </trkpt>
      <trkpt lat="44.12973" lon="5.96862">
        <ele>487</ele>
        <time>2023-11-17T19:10:01Z</time>
      </trkpt>
      <trkpt lat="44.12984" lon="5.96813">
        <ele>490</ele>
        <time>2023-11-17T19:10:10Z</time>
      </trkpt>
      <trkpt lat="44.12981" lon="5.9678">
        <ele>494</ele>
        <time>2023-11-17T19:10:15Z</time>
      </trkpt>
      <trkpt lat="44.12982" lon="5.96761">
        <ele>496</ele>
        <time>2023-11-17T19:10:18Z</time>
      </trkpt>
      <trkpt lat="44.13013" lon="5.9669">
        <ele>499</ele>
        <time>2023-11-17T19:10:32Z</time>
      </trkpt>
      <trkpt lat="44.13035" lon="5.96617">
        <ele>495</ele>
        <time>2023-11-17T19:10:45Z</time>
      </trkpt>
      <trkpt lat="44.13042" lon="5.96584">
        <ele>493</ele>
        <time>2023-11-17T19:10:51Z</time>
      </trkpt>
      <trkpt lat="44.13037" lon="5.96561">
        <ele>492</ele>
        <time>2023-11-17T19:10:55Z</time>
      </trkpt>
      <trkpt lat="44.13025" lon="5.96541">
        <ele>493</ele>
        <time>2023-11-17T19:11:00Z</time>
      </trkpt>
      <trkpt lat="44.13015" lon="5.96532">
        <ele>494</ele>
        <time>2023-11-17T19:11:02Z</time>
      </trkpt>
      <trkpt lat="44.12998" lon="5.9653">
        <ele>496</ele>
        <time>2023-11-17T19:11:06Z</time>
      </trkpt>
      <trkpt lat="44.12981" lon="5.96536">
        <ele>499</ele>
        <time>2023-11-17T19:11:11Z</time>
      </trkpt>
      <trkpt lat="44.12948" lon="5.96537">
        <ele>501</ele>
        <time>2023-11-17T19:11:18Z</time>
      </trkpt>
      <trkpt lat="44.12921" lon="5.96532">
        <ele>502</ele>
        <time>2023-11-17T19:11:25Z</time>
      </trkpt>
      <trkpt lat="44.12911" lon="5.96526">
        <ele>503</ele>
        <time>2023-11-17T19:11:27Z</time>
      </trkpt>
      <trkpt lat="44.12905" lon="5.96518">
        <ele>503</ele>
        <time>2023-11-17T19:11:29Z</time>
      </trkpt>
      <trkpt lat="44.12903" lon="5.9651">
        <ele>502</ele>
        <time>2023-11-17T19:11:30Z</time>
      </trkpt>
      <trkpt lat="44.12899" lon="5.96464">
        <ele>501</ele>
        <time>2023-11-17T19:11:38Z</time>
      </trkpt>
      <trkpt lat="44.12892" lon="5.96446">
        <ele>502</ele>
        <time>2023-11-17T19:11:42Z</time>
      </trkpt>
      <trkpt lat="44.12885" lon="5.96412">
        <ele>503</ele>
        <time>2023-11-17T19:11:48Z</time>
      </trkpt>
      <trkpt lat="44.12874" lon="5.96401">
        <ele>504</ele>
        <time>2023-11-17T19:11:51Z</time>
      </trkpt>
      <trkpt lat="44.12868" lon="5.96384">
        <ele>505</ele>
        <time>2023-11-17T19:11:54Z</time>
      </trkpt>
      <trkpt lat="44.12858" lon="5.96373">
        <ele>506</ele>
        <time>2023-11-17T19:11:57Z</time>
      </trkpt>
      <trkpt lat="44.12848" lon="5.96342">
        <ele>505</ele>
        <time>2023-11-17T19:12:03Z</time>
      </trkpt>
      <trkpt lat="44.12845" lon="5.96327">
        <ele>505</ele>
        <time>2023-11-17T19:12:05Z</time>
      </trkpt>
      <trkpt lat="44.12846" lon="5.96318">
        <ele>505</ele>
        <time>2023-11-17T19:12:07Z</time>
      </trkpt>
      <trkpt lat="44.12838" lon="5.96313">
        <ele>505</ele>
        <time>2023-11-17T19:12:09Z</time>
      </trkpt>
      <trkpt lat="44.12813" lon="5.96311">
        <ele>509</ele>
        <time>2023-11-17T19:12:15Z</time>
      </trkpt>
      <trkpt lat="44.12799" lon="5.96289">
        <ele>510</ele>
        <time>2023-11-17T19:12:20Z</time>
      </trkpt>
      <trkpt lat="44.1279" lon="5.96264">
        <ele>509</ele>
        <time>2023-11-17T19:12:24Z</time>
      </trkpt>
      <trkpt lat="44.12773" lon="5.9624">
        <ele>509</ele>
        <time>2023-11-17T19:12:30Z</time>
      </trkpt>
      <trkpt lat="44.12752" lon="5.96252">
        <ele>511</ele>
        <time>2023-11-17T19:12:35Z</time>
      </trkpt>
      <trkpt lat="44.12737" lon="5.96251">
        <ele>512</ele>
        <time>2023-11-17T19:12:39Z</time>
      </trkpt>
      <trkpt lat="44.12723" lon="5.96246">
        <ele>513</ele>
        <time>2023-11-17T19:12:42Z</time>
      </trkpt>
      <trkpt lat="44.12721" lon="5.96242">
        <ele>513</ele>
        <time>2023-11-17T19:12:43Z</time>
      </trkpt>
      <trkpt lat="44.12723" lon="5.96221">
        <ele>512</ele>
        <time>2023-11-17T19:12:46Z</time>
      </trkpt>
      <trkpt lat="44.12721" lon="5.96216">
        <ele>512</ele>
        <time>2023-11-17T19:12:47Z</time>
      </trkpt>
      <trkpt lat="44.12718" lon="5.96246">
        <ele>513</ele>
        <time>2023-11-17T19:12:53Z</time>
      </trkpt>
      <trkpt lat="44.12713" lon="5.96249">
        <ele>514</ele>
        <time>2023-11-17T19:12:54Z</time>
      </trkpt>
      <trkpt lat="44.12709" lon="5.96245">
        <ele>514</ele>
        <time>2023-11-17T19:12:55Z</time>
      </trkpt>
      <trkpt lat="44.12707" lon="5.96238">
        <ele>514</ele>
        <time>2023-11-17T19:12:56Z</time>
      </trkpt>
      <trkpt lat="44.12709" lon="5.96248">
        <ele>514</ele>
        <time>2023-11-17T19:12:58Z</time>
      </trkpt>
      <trkpt lat="44.12704" lon="5.96253">
        <ele>515</ele>
        <time>2023-11-17T19:12:59Z</time>
      </trkpt>
      <trkpt lat="44.1268" lon="5.96254">
        <ele>518</ele>
        <time>2023-11-17T19:13:05Z</time>
      </trkpt>
      <trkpt lat="44.1268" lon="5.96247">
        <ele>517</ele>
        <time>2023-11-17T19:13:06Z</time>
      </trkpt>
      <trkpt lat="44.12666" lon="5.96223">
        <ele>517</ele>
        <time>2023-11-17T19:13:11Z</time>
      </trkpt>
      <trkpt lat="44.12657" lon="5.96232">
        <ele>518</ele>
        <time>2023-11-17T19:13:14Z</time>
      </trkpt>
      <trkpt lat="44.12641" lon="5.96238">
        <ele>520</ele>
        <time>2023-11-17T19:13:18Z</time>
      </trkpt>
      <trkpt lat="44.1264" lon="5.96217">
        <ele>519</ele>
        <time>2023-11-17T19:13:21Z</time>
      </trkpt>
      <trkpt lat="44.1265" lon="5.96187">
        <ele>517</ele>
        <time>2023-11-17T19:13:27Z</time>
      </trkpt>
      <trkpt lat="44.12656" lon="5.96178">
        <ele>515</ele>
        <time>2023-11-17T19:13:29Z</time>
      </trkpt>
      <trkpt lat="44.12659" lon="5.9616">
        <ele>514</ele>
        <time>2023-11-17T19:13:32Z</time>
      </trkpt>
      <trkpt lat="44.12657" lon="5.96158">
        <ele>514</ele>
        <time>2023-11-17T19:13:33Z</time>
      </trkpt>
      <trkpt lat="44.12649" lon="5.96164">
        <ele>515</ele>
        <time>2023-11-17T19:13:35Z</time>
      </trkpt>
      <trkpt lat="44.12636" lon="5.96166">
        <ele>517</ele>
        <time>2023-11-17T19:13:38Z</time>
      </trkpt>
      <trkpt lat="44.12626" lon="5.96161">
        <ele>517</ele>
        <time>2023-11-17T19:13:40Z</time>
      </trkpt>
      <trkpt lat="44.12618" lon="5.96118">
        <ele>515</ele>
        <time>2023-11-17T19:13:48Z</time>
      </trkpt>
      <trkpt lat="44.12617" lon="5.96088">
        <ele>513</ele>
        <time>2023-11-17T19:13:53Z</time>
      </trkpt>
      <trkpt lat="44.12601" lon="5.9605">
        <ele>511</ele>
        <time>2023-11-17T19:14:00Z</time>
      </trkpt>
      <trkpt lat="44.12586" lon="5.96036">
        <ele>511</ele>
        <time>2023-11-17T19:14:04Z</time>
      </trkpt>
      <trkpt lat="44.1258" lon="5.96035">
        <ele>512</ele>
        <time>2023-11-17T19:14:06Z</time>
      </trkpt>
      <trkpt lat="44.1257" lon="5.96041">
        <ele>513</ele>
        <time>2023-11-17T19:14:08Z</time>
      </trkpt>
      <trkpt lat="44.12548" lon="5.96045">
        <ele>515</ele>
        <time>2023-11-17T19:14:13Z</time>
      </trkpt>
      <trkpt lat="44.12542" lon="5.96042">
        <ele>515</ele>
        <time>2023-11-17T19:14:15Z</time>
      </trkpt>
      <trkpt lat="44.12526" lon="5.96024">
        <ele>514</ele>
        <time>2023-11-17T19:14:20Z</time>
      </trkpt>
      <trkpt lat="44.12512" lon="5.96024">
        <ele>514</ele>
        <time>2023-11-17T19:14:23Z</time>
      </trkpt>
      <trkpt lat="44.12498" lon="5.96007">
        <ele>513</ele>
        <time>2023-11-17T19:14:27Z</time>
      </trkpt>
      <trkpt lat="44.12493" lon="5.96005">
        <ele>513</ele>
        <time>2023-11-17T19:14:29Z</time>
      </trkpt>
      <trkpt lat="44.12483" lon="5.96004">
        <ele>513</ele>
        <time>2023-11-17T19:14:31Z</time>
      </trkpt>
      <trkpt lat="44.12463" lon="5.96009">
        <ele>515</ele>
        <time>2023-11-17T19:14:36Z</time>
      </trkpt>
      <trkpt lat="44.12444" lon="5.96008">
        <ele>515</ele>
        <time>2023-11-17T19:14:40Z</time>
      </trkpt>
      <trkpt lat="44.12432" lon="5.96002">
        <ele>515</ele>
        <time>2023-11-17T19:14:43Z</time>
      </trkpt>
      <trkpt lat="44.12424" lon="5.96003">
        <ele>516</ele>
        <time>2023-11-17T19:14:45Z</time>
      </trkpt>
      <trkpt lat="44.124" lon="5.96017">
        <ele>517</ele>
        <time>2023-11-17T19:14:51Z</time>
      </trkpt>
      <trkpt lat="44.12392" lon="5.96027">
        <ele>518</ele>
        <time>2023-11-17T19:14:54Z</time>
      </trkpt>
      <trkpt lat="44.12383" lon="5.96056">
        <ele>520</ele>
        <time>2023-11-17T19:14:59Z</time>
      </trkpt>
      <trkpt lat="44.12378" lon="5.96089">
        <ele>523</ele>
        <time>2023-11-17T19:15:04Z</time>
      </trkpt>
      <trkpt lat="44.12374" lon="5.96097">
        <ele>524</ele>
        <time>2023-11-17T19:15:06Z</time>
      </trkpt>
      <trkpt lat="44.12366" lon="5.96099">
        <ele>525</ele>
        <time>2023-11-17T19:15:08Z</time>
      </trkpt>
      <trkpt lat="44.1236" lon="5.96094">
        <ele>524</ele>
        <time>2023-11-17T19:15:10Z</time>
      </trkpt>
      <trkpt lat="44.12356" lon="5.96086">
        <ele>523</ele>
        <time>2023-11-17T19:15:11Z</time>
      </trkpt>
      <trkpt lat="44.12351" lon="5.96053">
        <ele>520</ele>
        <time>2023-11-17T19:15:17Z</time>
      </trkpt>
      <trkpt lat="44.12347" lon="5.96043">
        <ele>519</ele>
        <time>2023-11-17T19:15:19Z</time>
      </trkpt>
      <trkpt lat="44.12328" lon="5.96021">
        <ele>517</ele>
        <time>2023-11-17T19:15:25Z</time>
      </trkpt>
      <trkpt lat="44.12317" lon="5.9602">
        <ele>518</ele>
        <time>2023-11-17T19:15:27Z</time>
      </trkpt>
      <trkpt lat="44.12313" lon="5.96022">
        <ele>518</ele>
        <time>2023-11-17T19:15:28Z</time>
      </trkpt>
      <trkpt lat="44.12305" lon="5.96044">
        <ele>521</ele>
        <time>2023-11-17T19:15:32Z</time>
      </trkpt>
      <trkpt lat="44.12299" lon="5.96051">
        <ele>522</ele>
        <time>2023-11-17T19:15:34Z</time>
      </trkpt>
      <trkpt lat="44.12288" lon="5.96053">
        <ele>523</ele>
        <time>2023-11-17T19:15:37Z</time>
      </trkpt>
      <trkpt lat="44.12262" lon="5.9604">
        <ele>523</ele>
        <time>2023-11-17T19:15:43Z</time>
      </trkpt>
      <trkpt lat="44.12189" lon="5.96018">
        <ele>528</ele>
        <time>2023-11-17T19:16:01Z</time>
      </trkpt>
      <trkpt lat="44.12181" lon="5.96013">
        <ele>528</ele>
        <time>2023-11-17T19:16:03Z</time>
      </trkpt>
      <trkpt lat="44.12164" lon="5.9601">
        <ele>529</ele>
        <time>2023-11-17T19:16:07Z</time>
      </trkpt>
      <trkpt lat="44.12155" lon="5.95993">
        <ele>527</ele>
        <time>2023-11-17T19:16:10Z</time>
      </trkpt>
      <trkpt lat="44.12138" lon="5.95985">
        <ele>528</ele>
        <time>2023-11-17T19:16:14Z</time>
      </trkpt>
      <trkpt lat="44.12135" lon="5.95981">
        <ele>528</ele>
        <time>2023-11-17T19:16:15Z</time>
      </trkpt>
      <trkpt lat="44.12124" lon="5.95956">
        <ele>526</ele>
        <time>2023-11-17T19:16:20Z</time>
      </trkpt>
      <trkpt lat="44.12124" lon="5.95927">
        <ele>523</ele>
        <time>2023-11-17T19:16:25Z</time>
      </trkpt>
      <trkpt lat="44.12108" lon="5.95916">
        <ele>523</ele>
        <time>2023-11-17T19:16:29Z</time>
      </trkpt>
      <trkpt lat="44.12098" lon="5.95889">
        <ele>522</ele>
        <time>2023-11-17T19:16:34Z</time>
      </trkpt>
      <trkpt lat="44.12096" lon="5.95877">
        <ele>521</ele>
        <time>2023-11-17T19:16:37Z</time>
      </trkpt>
      <trkpt lat="44.1207" lon="5.95866">
        <ele>523</ele>
        <time>2023-11-17T19:16:43Z</time>
      </trkpt>
      <trkpt lat="44.12055" lon="5.95871">
        <ele>524</ele>
        <time>2023-11-17T19:16:46Z</time>
      </trkpt>
      <trkpt lat="44.12043" lon="5.95869">
        <ele>525</ele>
        <time>2023-11-17T19:16:49Z</time>
      </trkpt>
      <trkpt lat="44.12022" lon="5.95878">
        <ele>527</ele>
        <time>2023-11-17T19:16:54Z</time>
      </trkpt>
      <trkpt lat="44.12016" lon="5.95878">
        <ele>527</ele>
        <time>2023-11-17T19:16:56Z</time>
      </trkpt>
      <trkpt lat="44.12008" lon="5.95873">
        <ele>527</ele>
        <time>2023-11-17T19:16:58Z</time>
      </trkpt>
      <trkpt lat="44.11993" lon="5.95848">
        <ele>525</ele>
        <time>2023-11-17T19:17:03Z</time>
      </trkpt>
      <trkpt lat="44.11977" lon="5.95847">
        <ele>526</ele>
        <time>2023-11-17T19:17:07Z</time>
      </trkpt>
      <trkpt lat="44.11966" lon="5.95843">
        <ele>525</ele>
        <time>2023-11-17T19:17:10Z</time>
      </trkpt>
      <trkpt lat="44.11954" lon="5.95852">
        <ele>527</ele>
        <time>2023-11-17T19:17:13Z</time>
      </trkpt>
      <trkpt lat="44.1194" lon="5.95851">
        <ele>527</ele>
        <time>2023-11-17T19:17:16Z</time>
      </trkpt>
      <trkpt lat="44.11927" lon="5.95859">
        <ele>529</ele>
        <time>2023-11-17T19:17:19Z</time>
      </trkpt>
      <trkpt lat="44.11903" lon="5.95848">
        <ele>529</ele>
        <time>2023-11-17T19:17:25Z</time>
      </trkpt>
      <trkpt lat="44.11894" lon="5.95841">
        <ele>529</ele>
        <time>2023-11-17T19:17:28Z</time>
      </trkpt>
      <trkpt lat="44.11876" lon="5.95834">
        <ele>529</ele>
        <time>2023-11-17T19:17:32Z</time>
      </trkpt>
      <trkpt lat="44.11864" lon="5.95831">
        <ele>530</ele>
        <time>2023-11-17T19:17:35Z</time>
      </trkpt>
      <trkpt lat="44.11853" lon="5.95833">
        <ele>531</ele>
        <time>2023-11-17T19:17:38Z</time>
      </trkpt>
      <trkpt lat="44.11824" lon="5.95813">
        <ele>531</ele>
        <time>2023-11-17T19:17:45Z</time>
      </trkpt>
      <trkpt lat="44.11818" lon="5.95814">
        <ele>531</ele>
        <time>2023-11-17T19:17:47Z</time>
      </trkpt>
      <trkpt lat="44.11799" lon="5.95802">
        <ele>530</ele>
        <time>2023-11-17T19:17:51Z</time>
      </trkpt>
      <trkpt lat="44.11775" lon="5.95796">
        <ele>529</ele>
        <time>2023-11-17T19:17:57Z</time>
      </trkpt>
      <trkpt lat="44.11764" lon="5.95797">
        <ele>529</ele>
        <time>2023-11-17T19:18:00Z</time>
      </trkpt>
      <trkpt lat="44.11745" lon="5.95814">
        <ele>531</ele>
        <time>2023-11-17T19:18:05Z</time>
      </trkpt>
      <trkpt lat="44.11741" lon="5.95833">
        <ele>533</ele>
        <time>2023-11-17T19:18:08Z</time>
      </trkpt>
      <trkpt lat="44.11725" lon="5.9587">
        <ele>537</ele>
        <time>2023-11-17T19:18:16Z</time>
      </trkpt>
      <trkpt lat="44.11718" lon="5.95866">
        <ele>537</ele>
        <time>2023-11-17T19:18:17Z</time>
      </trkpt>
      <trkpt lat="44.11694" lon="5.95861">
        <ele>536</ele>
        <time>2023-11-17T19:18:23Z</time>
      </trkpt>
      <trkpt lat="44.11667" lon="5.95845">
        <ele>533</ele>
        <time>2023-11-17T19:18:30Z</time>
      </trkpt>
      <trkpt lat="44.11652" lon="5.95845">
        <ele>533</ele>
        <time>2023-11-17T19:18:33Z</time>
      </trkpt>
      <trkpt lat="44.11617" lon="5.95834">
        <ele>532</ele>
        <time>2023-11-17T19:18:42Z</time>
      </trkpt>
      <trkpt lat="44.11597" lon="5.95838">
        <ele>532</ele>
        <time>2023-11-17T19:18:46Z</time>
      </trkpt>
      <trkpt lat="44.1159" lon="5.95843">
        <ele>533</ele>
        <time>2023-11-17T19:18:48Z</time>
      </trkpt>
      <trkpt lat="44.11583" lon="5.95855">
        <ele>534</ele>
        <time>2023-11-17T19:18:51Z</time>
      </trkpt>
      <trkpt lat="44.11575" lon="5.9586">
        <ele>534</ele>
        <time>2023-11-17T19:18:53Z</time>
      </trkpt>
      <trkpt lat="44.11574" lon="5.95865">
        <ele>535</ele>
        <time>2023-11-17T19:18:54Z</time>
      </trkpt>
      <trkpt lat="44.11576" lon="5.95884">
        <ele>537</ele>
        <time>2023-11-17T19:18:57Z</time>
      </trkpt>
      <trkpt lat="44.11585" lon="5.9589">
        <ele>538</ele>
        <time>2023-11-17T19:18:59Z</time>
      </trkpt>
      <trkpt lat="44.11606" lon="5.95897">
        <ele>540</ele>
        <time>2023-11-17T19:19:04Z</time>
      </trkpt>
      <trkpt lat="44.11611" lon="5.95901">
        <ele>540</ele>
        <time>2023-11-17T19:19:06Z</time>
      </trkpt>
      <trkpt lat="44.11612" lon="5.95905">
        <ele>541</ele>
        <time>2023-11-17T19:19:06Z</time>
      </trkpt>
      <trkpt lat="44.1161" lon="5.95926">
        <ele>544</ele>
        <time>2023-11-17T19:19:10Z</time>
      </trkpt>
      <trkpt lat="44.11588" lon="5.95965">
        <ele>549</ele>
        <time>2023-11-17T19:19:18Z</time>
      </trkpt>
      <trkpt lat="44.11586" lon="5.95973">
        <ele>550</ele>
        <time>2023-11-17T19:19:20Z</time>
      </trkpt>
      <trkpt lat="44.11588" lon="5.9598">
        <ele>551</ele>
        <time>2023-11-17T19:19:21Z</time>
      </trkpt>
      <trkpt lat="44.11589" lon="5.95982">
        <ele>552</ele>
        <time>2023-11-17T19:19:21Z</time>
      </trkpt>
      <trkpt lat="44.11594" lon="5.95982">
        <ele>552</ele>
        <time>2023-11-17T19:19:23Z</time>
      </trkpt>
      <trkpt lat="44.11615" lon="5.95964">
        <ele>551</ele>
        <time>2023-11-17T19:19:28Z</time>
      </trkpt>
      <trkpt lat="44.11637" lon="5.95956">
        <ele>552</ele>
        <time>2023-11-17T19:19:34Z</time>
      </trkpt>
      <trkpt lat="44.11643" lon="5.95955">
        <ele>552</ele>
        <time>2023-11-17T19:19:35Z</time>
      </trkpt>
      <trkpt lat="44.11648" lon="5.95958">
        <ele>553</ele>
        <time>2023-11-17T19:19:36Z</time>
      </trkpt>
      <trkpt lat="44.1165" lon="5.95967">
        <ele>555</ele>
        <time>2023-11-17T19:19:38Z</time>
      </trkpt>
      <trkpt lat="44.11646" lon="5.95977">
        <ele>557</ele>
        <time>2023-11-17T19:19:40Z</time>
      </trkpt>
      <trkpt lat="44.11629" lon="5.9599">
        <ele>558</ele>
        <time>2023-11-17T19:19:44Z</time>
      </trkpt>
      <trkpt lat="44.11595" lon="5.96026">
        <ele>561</ele>
        <time>2023-11-17T19:19:54Z</time>
      </trkpt>
      <trkpt lat="44.11584" lon="5.96047">
        <ele>564</ele>
        <time>2023-11-17T19:19:59Z</time>
      </trkpt>
      <trkpt lat="44.11574" lon="5.96087">
        <ele>571</ele>
        <time>2023-11-17T19:20:06Z</time>
      </trkpt>
      <trkpt lat="44.1156" lon="5.96121">
        <ele>572</ele>
        <time>2023-11-17T19:20:12Z</time>
      </trkpt>
      <trkpt lat="44.11552" lon="5.96136">
        <ele>573</ele>
        <time>2023-11-17T19:20:15Z</time>
      </trkpt>
      <trkpt lat="44.11526" lon="5.96167">
        <ele>575</ele>
        <time>2023-11-17T19:20:23Z</time>
      </trkpt>
      <trkpt lat="44.11526" lon="5.96171">
        <ele>575</ele>
        <time>2023-11-17T19:20:24Z</time>
      </trkpt>
      <trkpt lat="44.11551" lon="5.96175">
        <ele>576</ele>
        <time>2023-11-17T19:20:30Z</time>
      </trkpt>
      <trkpt lat="44.11558" lon="5.96173">
        <ele>576</ele>
        <time>2023-11-17T19:20:32Z</time>
      </trkpt>
      <trkpt lat="44.11562" lon="5.96167">
        <ele>577</ele>
        <time>2023-11-17T19:20:33Z</time>
      </trkpt>
      <trkpt lat="44.11578" lon="5.96164">
        <ele>578</ele>
        <time>2023-11-17T19:20:37Z</time>
      </trkpt>
      <trkpt lat="44.11585" lon="5.96152">
        <ele>577</ele>
        <time>2023-11-17T19:20:39Z</time>
      </trkpt>
      <trkpt lat="44.1159" lon="5.96125">
        <ele>576</ele>
        <time>2023-11-17T19:20:44Z</time>
      </trkpt>
      <trkpt lat="44.11594" lon="5.9612">
        <ele>576</ele>
        <time>2023-11-17T19:20:45Z</time>
      </trkpt>
      <trkpt lat="44.11605" lon="5.96114">
        <ele>578</ele>
        <time>2023-11-17T19:20:48Z</time>
      </trkpt>
      <trkpt lat="44.1161" lon="5.96105">
        <ele>578</ele>
        <time>2023-11-17T19:20:50Z</time>
      </trkpt>
      <trkpt lat="44.11626" lon="5.96087">
        <ele>581</ele>
        <time>2023-11-17T19:20:55Z</time>
      </trkpt>
      <trkpt lat="44.11629" lon="5.96085">
        <ele>582</ele>
        <time>2023-11-17T19:20:56Z</time>
      </trkpt>
      <trkpt lat="44.11633" lon="5.96088">
        <ele>583</ele>
        <time>2023-11-17T19:20:57Z</time>
      </trkpt>
      <trkpt lat="44.11649" lon="5.96087">
        <ele>586</ele>
        <time>2023-11-17T19:21:00Z</time>
      </trkpt>
      <trkpt lat="44.11657" lon="5.96084">
        <ele>588</ele>
        <time>2023-11-17T19:21:02Z</time>
      </trkpt>
      <trkpt lat="44.11672" lon="5.96086">
        <ele>590</ele>
        <time>2023-11-17T19:21:06Z</time>
      </trkpt>
      <trkpt lat="44.11681" lon="5.96081">
        <ele>588</ele>
        <time>2023-11-17T19:21:08Z</time>
      </trkpt>
      <trkpt lat="44.11696" lon="5.96063">
        <ele>582</ele>
        <time>2023-11-17T19:21:13Z</time>
      </trkpt>
      <trkpt lat="44.11702" lon="5.9606">
        <ele>581</ele>
        <time>2023-11-17T19:21:14Z</time>
      </trkpt>
      <trkpt lat="44.11744" lon="5.96066">
        <ele>581</ele>
        <time>2023-11-17T19:21:24Z</time>
      </trkpt>
      <trkpt lat="44.11755" lon="5.9608">
        <ele>584</ele>
        <time>2023-11-17T19:21:28Z</time>
      </trkpt>
      <trkpt lat="44.11782" lon="5.96098">
        <ele>584</ele>
        <time>2023-11-17T19:21:35Z</time>
      </trkpt>
      <trkpt lat="44.11802" lon="5.9609">
        <ele>583</ele>
        <time>2023-11-17T19:21:39Z</time>
      </trkpt>
      <trkpt lat="44.11816" lon="5.96088">
        <ele>582</ele>
        <time>2023-11-17T19:21:43Z</time>
      </trkpt>
      <trkpt lat="44.11825" lon="5.96083">
        <ele>581</ele>
        <time>2023-11-17T19:21:45Z</time>
      </trkpt>
      <trkpt lat="44.1186" lon="5.96088">
        <ele>580</ele>
        <time>2023-11-17T19:21:53Z</time>
      </trkpt>
      <trkpt lat="44.11896" lon="5.96115">
        <ele>583</ele>
        <time>2023-11-17T19:22:03Z</time>
      </trkpt>
      <trkpt lat="44.11905" lon="5.96136">
        <ele>588</ele>
        <time>2023-11-17T19:22:07Z</time>
      </trkpt>
      <trkpt lat="44.11913" lon="5.96146">
        <ele>590</ele>
        <time>2023-11-17T19:22:09Z</time>
      </trkpt>
      <trkpt lat="44.11926" lon="5.96147">
        <ele>590</ele>
        <time>2023-11-17T19:22:12Z</time>
      </trkpt>
      <trkpt lat="44.11954" lon="5.96142">
        <ele>586</ele>
        <time>2023-11-17T19:22:19Z</time>
      </trkpt>
      <trkpt lat="44.11963" lon="5.96137">
        <ele>584</ele>
        <time>2023-11-17T19:22:21Z</time>
      </trkpt>
      <trkpt lat="44.1197" lon="5.96137">
        <ele>583</ele>
        <time>2023-11-17T19:22:23Z</time>
      </trkpt>
      <trkpt lat="44.11984" lon="5.9615">
        <ele>585</ele>
        <time>2023-11-17T19:22:27Z</time>
      </trkpt>
      <trkpt lat="44.11996" lon="5.96166">
        <ele>589</ele>
        <time>2023-11-17T19:22:31Z</time>
      </trkpt>
      <trkpt lat="44.11997" lon="5.96182">
        <ele>589</ele>
        <time>2023-11-17T19:22:33Z</time>
      </trkpt>
      <trkpt lat="44.1199" lon="5.96202">
        <ele>590</ele>
        <time>2023-11-17T19:22:37Z</time>
      </trkpt>
      <trkpt lat="44.11989" lon="5.96215">
        <ele>590</ele>
        <time>2023-11-17T19:22:39Z</time>
      </trkpt>
      <trkpt lat="44.11981" lon="5.96236">
        <ele>591</ele>
        <time>2023-11-17T19:22:43Z</time>
      </trkpt>
      <trkpt lat="44.11979" lon="5.96252">
        <ele>592</ele>
        <time>2023-11-17T19:22:46Z</time>
      </trkpt>
      <trkpt lat="44.11981" lon="5.96264">
        <ele>591</ele>
        <time>2023-11-17T19:22:48Z</time>
      </trkpt>
      <trkpt lat="44.11999" lon="5.96311">
        <ele>586</ele>
        <time>2023-11-17T19:22:57Z</time>
      </trkpt>
      <trkpt lat="44.12" lon="5.96347">
        <ele>583</ele>
        <time>2023-11-17T19:23:03Z</time>
      </trkpt>
      <trkpt lat="44.11985" lon="5.96363">
        <ele>585</ele>
        <time>2023-11-17T19:23:07Z</time>
      </trkpt>
      <trkpt lat="44.11989" lon="5.96382">
        <ele>583</ele>
        <time>2023-11-17T19:23:11Z</time>
      </trkpt>
      <trkpt lat="44.12" lon="5.9641">
        <ele>579</ele>
        <time>2023-11-17T19:23:16Z</time>
      </trkpt>
      <trkpt lat="44.12004" lon="5.96431">
        <ele>577</ele>
        <time>2023-11-17T19:23:20Z</time>
      </trkpt>
      <trkpt lat="44.11996" lon="5.96459">
        <ele>577</ele>
        <time>2023-11-17T19:23:25Z</time>
      </trkpt>
      <trkpt lat="44.11986" lon="5.96475">
        <ele>577</ele>
        <time>2023-11-17T19:23:28Z</time>
      </trkpt>
      <trkpt lat="44.11972" lon="5.96486">
        <ele>578</ele>
        <time>2023-11-17T19:23:32Z</time>
      </trkpt>
      <trkpt lat="44.11953" lon="5.9649">
        <ele>580</ele>
        <time>2023-11-17T19:23:37Z</time>
      </trkpt>
      <trkpt lat="44.11952" lon="5.96496">
        <ele>579</ele>
        <time>2023-11-17T19:23:38Z</time>
      </trkpt>
      <trkpt lat="44.11956" lon="5.96508">
        <ele>577</ele>
        <time>2023-11-17T19:23:40Z</time>
      </trkpt>
      <trkpt lat="44.11952" lon="5.96519">
        <ele>576</ele>
        <time>2023-11-17T19:23:42Z</time>
      </trkpt>
      <trkpt lat="44.11921" lon="5.96536">
        <ele>577</ele>
        <time>2023-11-17T19:23:50Z</time>
      </trkpt>
      <trkpt lat="44.11906" lon="5.96547">
        <ele>577</ele>
        <time>2023-11-17T19:23:54Z</time>
      </trkpt>
      <trkpt lat="44.11903" lon="5.96564">
        <ele>576</ele>
        <time>2023-11-17T19:23:57Z</time>
      </trkpt>
      <trkpt lat="44.11905" lon="5.9657">
        <ele>575</ele>
        <time>2023-11-17T19:23:58Z</time>
      </trkpt>
      <trkpt lat="44.11901" lon="5.96572">
        <ele>575</ele>
        <time>2023-11-17T19:23:59Z</time>
      </trkpt>
      <trkpt lat="44.11896" lon="5.96583">
        <ele>574</ele>
        <time>2023-11-17T19:24:01Z</time>
      </trkpt>
      <trkpt lat="44.11908" lon="5.96596">
        <ele>572</ele>
        <time>2023-11-17T19:24:04Z</time>
      </trkpt>
      <trkpt lat="44.11929" lon="5.96626">
        <ele>566</ele>
        <time>2023-11-17T19:24:11Z</time>
      </trkpt>
      <trkpt lat="44.11948" lon="5.96669">
        <ele>559</ele>
        <time>2023-11-17T19:24:20Z</time>
      </trkpt>
      <trkpt lat="44.11941" lon="5.96688">
        <ele>558</ele>
        <time>2023-11-17T19:24:24Z</time>
      </trkpt>
      <trkpt lat="44.11934" lon="5.96698">
        <ele>557</ele>
        <time>2023-11-17T19:24:26Z</time>
      </trkpt>
      <trkpt lat="44.1192" lon="5.9671">
        <ele>557</ele>
        <time>2023-11-17T19:24:30Z</time>
      </trkpt>
      <trkpt lat="44.1192" lon="5.96717">
        <ele>556</ele>
        <time>2023-11-17T19:24:31Z</time>
      </trkpt>
      <trkpt lat="44.11942" lon="5.96736">
        <ele>552</ele>
        <time>2023-11-17T19:24:37Z</time>
      </trkpt>
      <trkpt lat="44.11951" lon="5.96735">
        <ele>551</ele>
        <time>2023-11-17T19:24:39Z</time>
      </trkpt>
      <trkpt lat="44.11965" lon="5.96725">
        <ele>551</ele>
        <time>2023-11-17T19:24:43Z</time>
      </trkpt>
      <trkpt lat="44.11977" lon="5.96724">
        <ele>550</ele>
        <time>2023-11-17T19:24:45Z</time>
      </trkpt>
      <trkpt lat="44.11983" lon="5.96727">
        <ele>549</ele>
        <time>2023-11-17T19:24:47Z</time>
      </trkpt>
      <trkpt lat="44.11984" lon="5.96732">
        <ele>549</ele>
        <time>2023-11-17T19:24:48Z</time>
      </trkpt>
      <trkpt lat="44.11979" lon="5.96741">
        <ele>549</ele>
        <time>2023-11-17T19:24:50Z</time>
      </trkpt>
      <trkpt lat="44.11977" lon="5.96755">
        <ele>547</ele>
        <time>2023-11-17T19:24:52Z</time>
      </trkpt>
      <trkpt lat="44.11966" lon="5.96777">
        <ele>545</ele>
        <time>2023-11-17T19:24:57Z</time>
      </trkpt>
      <trkpt lat="44.11971" lon="5.96785">
        <ele>543</ele>
        <time>2023-11-17T19:24:58Z</time>
      </trkpt>
      <trkpt lat="44.11972" lon="5.96797">
        <ele>542</ele>
        <time>2023-11-17T19:25:00Z</time>
      </trkpt>
      <trkpt lat="44.11986" lon="5.96815">
        <ele>538</ele>
        <time>2023-11-17T19:25:05Z</time>
      </trkpt>
      <trkpt lat="44.11994" lon="5.96834">
        <ele>535</ele>
        <time>2023-11-17T19:25:09Z</time>
      </trkpt>
      <trkpt lat="44.12006" lon="5.96854">
        <ele>532</ele>
        <time>2023-11-17T19:25:13Z</time>
      </trkpt>
      <trkpt lat="44.12009" lon="5.9687">
        <ele>530</ele>
        <time>2023-11-17T19:25:16Z</time>
      </trkpt>
      <trkpt lat="44.1202" lon="5.96899">
        <ele>525</ele>
        <time>2023-11-17T19:25:21Z</time>
      </trkpt>
      <trkpt lat="44.12022" lon="5.96913">
        <ele>523</ele>
        <time>2023-11-17T19:25:24Z</time>
      </trkpt>
      <trkpt lat="44.12032" lon="5.96924">
        <ele>521</ele>
        <time>2023-11-17T19:25:27Z</time>
      </trkpt>
      <trkpt lat="44.12031" lon="5.96951">
        <ele>519</ele>
        <time>2023-11-17T19:25:31Z</time>
      </trkpt>
      <trkpt lat="44.12034" lon="5.96994">
        <ele>515</ele>
        <time>2023-11-17T19:25:38Z</time>
      </trkpt>
      <trkpt lat="44.12017" lon="5.97021">
        <ele>514</ele>
        <time>2023-11-17T19:25:44Z</time>
      </trkpt>
      <trkpt lat="44.12016" lon="5.97028">
        <ele>513</ele>
        <time>2023-11-17T19:25:46Z</time>
      </trkpt>
      <trkpt lat="44.12019" lon="5.97031">
        <ele>513</ele>
        <time>2023-11-17T19:25:46Z</time>
      </trkpt>
      <trkpt lat="44.12035" lon="5.97036">
        <ele>512</ele>
        <time>2023-11-17T19:25:50Z</time>
      </trkpt>
      <trkpt lat="44.12045" lon="5.97065">
        <ele>509</ele>
        <time>2023-11-17T19:25:56Z</time>
      </trkpt>
      <trkpt lat="44.12042" lon="5.97072">
        <ele>509</ele>
        <time>2023-11-17T19:25:57Z</time>
      </trkpt>
      <trkpt lat="44.12033" lon="5.9708">
        <ele>508</ele>
        <time>2023-11-17T19:26:00Z</time>
      </trkpt>
      <trkpt lat="44.12026" lon="5.97113">
        <ele>507</ele>
        <time>2023-11-17T19:26:05Z</time>
      </trkpt>
      <trkpt lat="44.12019" lon="5.97122">
        <ele>507</ele>
        <time>2023-11-17T19:26:08Z</time>
      </trkpt>
      <trkpt lat="44.12011" lon="5.97124">
        <ele>506</ele>
        <time>2023-11-17T19:26:09Z</time>
      </trkpt>
      <trkpt lat="44.11995" lon="5.97117">
        <ele>507</ele>
        <time>2023-11-17T19:26:13Z</time>
      </trkpt>
      <trkpt lat="44.1197" lon="5.97098">
        <ele>509</ele>
        <time>2023-11-17T19:26:20Z</time>
      </trkpt>
      <trkpt lat="44.11947" lon="5.97089">
        <ele>511</ele>
        <time>2023-11-17T19:26:26Z</time>
      </trkpt>
      <trkpt lat="44.11938" lon="5.97082">
        <ele>511</ele>
        <time>2023-11-17T19:26:28Z</time>
      </trkpt>
      <trkpt lat="44.11929" lon="5.97068">
        <ele>513</ele>
        <time>2023-11-17T19:26:31Z</time>
      </trkpt>
      <trkpt lat="44.11916" lon="5.97031">
        <ele>516</ele>
        <time>2023-11-17T19:26:38Z</time>
      </trkpt>
      <trkpt lat="44.1191" lon="5.97028">
        <ele>517</ele>
        <time>2023-11-17T19:26:40Z</time>
      </trkpt>
      <trkpt lat="44.11903" lon="5.97036">
        <ele>517</ele>
        <time>2023-11-17T19:26:42Z</time>
      </trkpt>
      <trkpt lat="44.1189" lon="5.97072">
        <ele>516</ele>
        <time>2023-11-17T19:26:48Z</time>
      </trkpt>
      <trkpt lat="44.11884" lon="5.97076">
        <ele>516</ele>
        <time>2023-11-17T19:26:50Z</time>
      </trkpt>
      <trkpt lat="44.11874" lon="5.97076">
        <ele>517</ele>
        <time>2023-11-17T19:26:52Z</time>
      </trkpt>
      <trkpt lat="44.11867" lon="5.97082">
        <ele>517</ele>
        <time>2023-11-17T19:26:54Z</time>
      </trkpt>
      <trkpt lat="44.11843" lon="5.97119">
        <ele>517</ele>
        <time>2023-11-17T19:27:03Z</time>
      </trkpt>
      <trkpt lat="44.11839" lon="5.97131">
        <ele>516</ele>
        <time>2023-11-17T19:27:05Z</time>
      </trkpt>
      <trkpt lat="44.11833" lon="5.97139">
        <ele>516</ele>
        <time>2023-11-17T19:27:07Z</time>
      </trkpt>
      <trkpt lat="44.11814" lon="5.97147">
        <ele>518</ele>
        <time>2023-11-17T19:27:11Z</time>
      </trkpt>
      <trkpt lat="44.11796" lon="5.97165">
        <ele>518</ele>
        <time>2023-11-17T19:27:17Z</time>
      </trkpt>
      <trkpt lat="44.11775" lon="5.97169">
        <ele>520</ele>
        <time>2023-11-17T19:27:21Z</time>
      </trkpt>
      <trkpt lat="44.11748" lon="5.97179">
        <ele>521</ele>
        <time>2023-11-17T19:27:28Z</time>
      </trkpt>
      <trkpt lat="44.11735" lon="5.97178">
        <ele>521</ele>
        <time>2023-11-17T19:27:31Z</time>
      </trkpt>
      <trkpt lat="44.11715" lon="5.9717">
        <ele>521</ele>
        <time>2023-11-17T19:27:36Z</time>
      </trkpt>
      <trkpt lat="44.11694" lon="5.97158">
        <ele>522</ele>
        <time>2023-11-17T19:27:41Z</time>
      </trkpt>
      <trkpt lat="44.11674" lon="5.97151">
        <ele>522</ele>
        <time>2023-11-17T19:27:46Z</time>
      </trkpt>
      <trkpt lat="44.11628" lon="5.97148">
        <ele>518</ele>
        <time>2023-11-17T19:27:57Z</time>
      </trkpt>
      <trkpt lat="44.11602" lon="5.97138">
        <ele>516</ele>
        <time>2023-11-17T19:28:03Z</time>
      </trkpt>
      <trkpt lat="44.11586" lon="5.97106">
        <ele>518</ele>
        <time>2023-11-17T19:28:10Z</time>
      </trkpt>
      <trkpt lat="44.11581" lon="5.97084">
        <ele>520</ele>
        <time>2023-11-17T19:28:13Z</time>
      </trkpt>
      <trkpt lat="44.11574" lon="5.97074">
        <ele>520</ele>
        <time>2023-11-17T19:28:16Z</time>
      </trkpt>
      <trkpt lat="44.11534" lon="5.97054">
        <ele>518</ele>
        <time>2023-11-17T19:28:26Z</time>
      </trkpt>
      <trkpt lat="44.11484" lon="5.97014">
        <ele>515</ele>
        <time>2023-11-17T19:28:39Z</time>
      </trkpt>
      <trkpt lat="44.11477" lon="5.96984">
        <ele>517</ele>
        <time>2023-11-17T19:28:45Z</time>
      </trkpt>
      <trkpt lat="44.11471" lon="5.96973">
        <ele>518</ele>
        <time>2023-11-17T19:28:47Z</time>
      </trkpt>
      <trkpt lat="44.11471" lon="5.96967">
        <ele>519</ele>
        <time>2023-11-17T19:28:48Z</time>
      </trkpt>
      <trkpt lat="44.11477" lon="5.96953">
        <ele>520</ele>
        <time>2023-11-17T19:28:51Z</time>
      </trkpt>
      <trkpt lat="44.11474" lon="5.96941">
        <ele>522</ele>
        <time>2023-11-17T19:28:53Z</time>
      </trkpt>
      <trkpt lat="44.11471" lon="5.96936">
        <ele>522</ele>
        <time>2023-11-17T19:28:54Z</time>
      </trkpt>
      <trkpt lat="44.11465" lon="5.96933">
        <ele>523</ele>
        <time>2023-11-17T19:28:55Z</time>
      </trkpt>
      <trkpt lat="44.11463" lon="5.96917">
        <ele>525</ele>
        <time>2023-11-17T19:28:58Z</time>
      </trkpt>
      <trkpt lat="44.11456" lon="5.96905">
        <ele>527</ele>
        <time>2023-11-17T19:29:01Z</time>
      </trkpt>
      <trkpt lat="44.11446" lon="5.969">
        <ele>528</ele>
        <time>2023-11-17T19:29:03Z</time>
      </trkpt>
      <trkpt lat="44.1144" lon="5.96878">
        <ele>531</ele>
        <time>2023-11-17T19:29:07Z</time>
      </trkpt>
      <trkpt lat="44.11436" lon="5.96854">
        <ele>535</ele>
        <time>2023-11-17T19:29:11Z</time>
      </trkpt>
      <trkpt lat="44.11437" lon="5.9683">
        <ele>538</ele>
        <time>2023-11-17T19:29:15Z</time>
      </trkpt>
      <trkpt lat="44.11434" lon="5.96807">
        <ele>538</ele>
        <time>2023-11-17T19:29:19Z</time>
      </trkpt>
      <trkpt lat="44.1145" lon="5.96776">
        <ele>540</ele>
        <time>2023-11-17T19:29:26Z</time>
      </trkpt>
      <trkpt lat="44.11452" lon="5.96763">
        <ele>540</ele>
        <time>2023-11-17T19:29:28Z</time>
      </trkpt>
      <trkpt lat="44.11443" lon="5.96746">
        <ele>540</ele>
        <time>2023-11-17T19:29:31Z</time>
      </trkpt>
      <trkpt lat="44.1144" lon="5.96728">
        <ele>541</ele>
        <time>2023-11-17T19:29:34Z</time>
      </trkpt>
      <trkpt lat="44.11443" lon="5.96711">
        <ele>542</ele>
        <time>2023-11-17T19:29:37Z</time>
      </trkpt>
      <trkpt lat="44.11471" lon="5.96634">
        <ele>545</ele>
        <time>2023-11-17T19:29:52Z</time>
      </trkpt>
      <trkpt lat="44.11473" lon="5.96609">
        <ele>547</ele>
        <time>2023-11-17T19:29:56Z</time>
      </trkpt>
      <trkpt lat="44.11479" lon="5.96588">
        <ele>547</ele>
        <time>2023-11-17T19:30:00Z</time>
      </trkpt>
      <trkpt lat="44.11487" lon="5.96575">
        <ele>546</ele>
        <time>2023-11-17T19:30:03Z</time>
      </trkpt>
      <trkpt lat="44.11502" lon="5.9656">
        <ele>544</ele>
        <time>2023-11-17T19:30:07Z</time>
      </trkpt>
      <trkpt lat="44.11504" lon="5.96552">
        <ele>545</ele>
        <time>2023-11-17T19:30:08Z</time>
      </trkpt>
      <trkpt lat="44.11491" lon="5.96526">
        <ele>546</ele>
        <time>2023-11-17T19:30:14Z</time>
      </trkpt>
      <trkpt lat="44.11468" lon="5.9651">
        <ele>550</ele>
        <time>2023-11-17T19:30:20Z</time>
      </trkpt>
      <trkpt lat="44.11446" lon="5.9647">
        <ele>554</ele>
        <time>2023-11-17T19:30:28Z</time>
      </trkpt>
      <trkpt lat="44.11446" lon="5.96461">
        <ele>553</ele>
        <time>2023-11-17T19:30:30Z</time>
      </trkpt>
      <trkpt lat="44.11441" lon="5.96451">
        <ele>554</ele>
        <time>2023-11-17T19:30:32Z</time>
      </trkpt>
      <trkpt lat="44.11441" lon="5.96436">
        <ele>553</ele>
        <time>2023-11-17T19:30:34Z</time>
      </trkpt>
      <trkpt lat="44.11448" lon="5.96409">
        <ele>553</ele>
        <time>2023-11-17T19:30:39Z</time>
      </trkpt>
      <trkpt lat="44.11454" lon="5.96392">
        <ele>555</ele>
        <time>2023-11-17T19:30:42Z</time>
      </trkpt>
      <trkpt lat="44.11461" lon="5.96384">
        <ele>555</ele>
        <time>2023-11-17T19:30:44Z</time>
      </trkpt>
      <trkpt lat="44.11462" lon="5.96372">
        <ele>556</ele>
        <time>2023-11-17T19:30:46Z</time>
      </trkpt>
      <trkpt lat="44.11459" lon="5.9636">
        <ele>557</ele>
        <time>2023-11-17T19:30:48Z</time>
      </trkpt>
      <trkpt lat="44.11436" lon="5.96346">
        <ele>559</ele>
        <time>2023-11-17T19:30:54Z</time>
      </trkpt>
      <trkpt lat="44.11424" lon="5.96335">
        <ele>560</ele>
        <time>2023-11-17T19:30:58Z</time>
      </trkpt>
      <trkpt lat="44.1142" lon="5.96319">
        <ele>561</ele>
        <time>2023-11-17T19:31:01Z</time>
      </trkpt>
      <trkpt lat="44.11411" lon="5.96307">
        <ele>563</ele>
        <time>2023-11-17T19:31:03Z</time>
      </trkpt>
      <trkpt lat="44.11406" lon="5.96291">
        <ele>565</ele>
        <time>2023-11-17T19:31:06Z</time>
      </trkpt>
      <trkpt lat="44.11401" lon="5.96284">
        <ele>566</ele>
        <time>2023-11-17T19:31:08Z</time>
      </trkpt>
      <trkpt lat="44.11393" lon="5.96278">
        <ele>567</ele>
        <time>2023-11-17T19:31:10Z</time>
      </trkpt>
      <trkpt lat="44.1138" lon="5.96275">
        <ele>569</ele>
        <time>2023-11-17T19:31:13Z</time>
      </trkpt>
      <trkpt lat="44.11326" lon="5.96283">
        <ele>576</ele>
        <time>2023-11-17T19:31:26Z</time>
      </trkpt>
      <trkpt lat="44.11305" lon="5.96282">
        <ele>578</ele>
        <time>2023-11-17T19:31:31Z</time>
      </trkpt>
      <trkpt lat="44.11279" lon="5.96272">
        <ele>582</ele>
        <time>2023-11-17T19:31:37Z</time>
      </trkpt>
      <trkpt lat="44.11267" lon="5.96258">
        <ele>585</ele>
        <time>2023-11-17T19:31:41Z</time>
      </trkpt>
      <trkpt lat="44.11254" lon="5.96235">
        <ele>587</ele>
        <time>2023-11-17T19:31:46Z</time>
      </trkpt>
      <trkpt lat="44.11231" lon="5.96206">
        <ele>587</ele>
        <time>2023-11-17T19:31:53Z</time>
      </trkpt>
      <trkpt lat="44.11231" lon="5.96203">
        <ele>587</ele>
        <time>2023-11-17T19:31:53Z</time>
      </trkpt>
      <trkpt lat="44.11239" lon="5.96199">
        <ele>586</ele>
        <time>2023-11-17T19:31:55Z</time>
      </trkpt>
      <trkpt lat="44.11231" lon="5.96178">
        <ele>586</ele>
        <time>2023-11-17T19:31:59Z</time>
      </trkpt>
      <trkpt lat="44.11197" lon="5.96171">
        <ele>590</ele>
        <time>2023-11-17T19:32:07Z</time>
      </trkpt>
      <trkpt lat="44.11176" lon="5.96156">
        <ele>592</ele>
        <time>2023-11-17T19:32:13Z</time>
      </trkpt>
      <trkpt lat="44.11136" lon="5.96133">
        <ele>596</ele>
        <time>2023-11-17T19:32:23Z</time>
      </trkpt>
      <trkpt lat="44.11122" lon="5.96122">
        <ele>598</ele>
        <time>2023-11-17T19:32:27Z</time>
      </trkpt>
      <trkpt lat="44.11086" lon="5.96102">
        <ele>604</ele>
        <time>2023-11-17T19:32:36Z</time>
      </trkpt>
      <trkpt lat="44.11073" lon="5.96087">
        <ele>606</ele>
        <time>2023-11-17T19:32:40Z</time>
      </trkpt>
      <trkpt lat="44.11067" lon="5.96073">
        <ele>607</ele>
        <time>2023-11-17T19:32:43Z</time>
      </trkpt>
      <trkpt lat="44.11064" lon="5.96055">
        <ele>609</ele>
        <time>2023-11-17T19:32:46Z</time>
      </trkpt>
      <trkpt lat="44.11058" lon="5.96048">
        <ele>610</ele>
        <time>2023-11-17T19:32:47Z</time>
      </trkpt>
      <trkpt lat="44.11038" lon="5.9605">
        <ele>610</ele>
        <time>2023-11-17T19:32:52Z</time>
      </trkpt>
      <trkpt lat="44.1102" lon="5.96048">
        <ele>611</ele>
        <time>2023-11-17T19:32:56Z</time>
      </trkpt>
      <trkpt lat="44.10999" lon="5.96035">
        <ele>614</ele>
        <time>2023-11-17T19:33:02Z</time>
      </trkpt>
      <trkpt lat="44.10986" lon="5.9603">
        <ele>615</ele>
        <time>2023-11-17T19:33:05Z</time>
      </trkpt>
      <trkpt lat="44.10982" lon="5.96027">
        <ele>616</ele>
        <time>2023-11-17T19:33:06Z</time>
      </trkpt>
      <trkpt lat="44.10977" lon="5.96017">
        <ele>618</ele>
        <time>2023-11-17T19:33:08Z</time>
      </trkpt>
      <trkpt lat="44.10971" lon="5.96013">
        <ele>619</ele>
        <time>2023-11-17T19:33:10Z</time>
      </trkpt>
      <trkpt lat="44.10966" lon="5.96012">
        <ele>619</ele>
        <time>2023-11-17T19:33:11Z</time>
      </trkpt>
      <trkpt lat="44.10934" lon="5.96019">
        <ele>618</ele>
        <time>2023-11-17T19:33:18Z</time>
      </trkpt>
      <trkpt lat="44.10919" lon="5.96028">
        <ele>617</ele>
        <time>2023-11-17T19:33:22Z</time>
      </trkpt>
      <trkpt lat="44.10882" lon="5.96041">
        <ele>610</ele>
        <time>2023-11-17T19:33:31Z</time>
      </trkpt>
      <trkpt lat="44.10868" lon="5.96038">
        <ele>608</ele>
        <time>2023-11-17T19:33:34Z</time>
      </trkpt>
      <trkpt lat="44.10865" lon="5.96045">
        <ele>607</ele>
        <time>2023-11-17T19:33:36Z</time>
      </trkpt>
      <trkpt lat="44.10866" lon="5.9605">
        <ele>606</ele>
        <time>2023-11-17T19:33:37Z</time>
      </trkpt>
      <trkpt lat="44.10875" lon="5.96063">
        <ele>606</ele>
        <time>2023-11-17T19:33:40Z</time>
      </trkpt>
      <trkpt lat="44.10871" lon="5.96069">
        <ele>604</ele>
        <time>2023-11-17T19:33:41Z</time>
      </trkpt>
      <trkpt lat="44.10871" lon="5.96077">
        <ele>603</ele>
        <time>2023-11-17T19:33:42Z</time>
      </trkpt>
      <trkpt lat="44.1086" lon="5.9608">
        <ele>601</ele>
        <time>2023-11-17T19:33:45Z</time>
      </trkpt>
      <trkpt lat="44.10848" lon="5.96057">
        <ele>603</ele>
        <time>2023-11-17T19:33:50Z</time>
      </trkpt>
      <trkpt lat="44.10844" lon="5.96053">
        <ele>603</ele>
        <time>2023-11-17T19:33:51Z</time>
      </trkpt>
      <trkpt lat="44.10837" lon="5.96051">
        <ele>602</ele>
        <time>2023-11-17T19:33:52Z</time>
      </trkpt>
      <trkpt lat="44.10823" lon="5.96026">
        <ele>603</ele>
        <time>2023-11-17T19:33:58Z</time>
      </trkpt>
      <trkpt lat="44.10813" lon="5.95987">
        <ele>604</ele>
        <time>2023-11-17T19:34:05Z</time>
      </trkpt>
      <trkpt lat="44.10812" lon="5.95962">
        <ele>604</ele>
        <time>2023-11-17T19:34:09Z</time>
      </trkpt>
      <trkpt lat="44.10799" lon="5.95936">
        <ele>603</ele>
        <time>2023-11-17T19:34:14Z</time>
      </trkpt>
      <trkpt lat="44.10783" lon="5.95922">
        <ele>601</ele>
        <time>2023-11-17T19:34:19Z</time>
      </trkpt>
      <trkpt lat="44.10774" lon="5.9592">
        <ele>600</ele>
        <time>2023-11-17T19:34:21Z</time>
      </trkpt>
      <trkpt lat="44.10768" lon="5.95911">
        <ele>599</ele>
        <time>2023-11-17T19:34:23Z</time>
      </trkpt>
      <trkpt lat="44.10758" lon="5.95916">
        <ele>598</ele>
        <time>2023-11-17T19:34:25Z</time>
      </trkpt>
      <trkpt lat="44.10739" lon="5.95935">
        <ele>596</ele>
        <time>2023-11-17T19:34:31Z</time>
      </trkpt>
      <trkpt lat="44.10733" lon="5.95936">
        <ele>596</ele>
        <time>2023-11-17T19:34:32Z</time>
      </trkpt>
      <trkpt lat="44.10725" lon="5.95932">
        <ele>596</ele>
        <time>2023-11-17T19:34:34Z</time>
      </trkpt>
      <trkpt lat="44.10719" lon="5.95933">
        <ele>596</ele>
        <time>2023-11-17T19:34:36Z</time>
      </trkpt>
      <trkpt lat="44.10706" lon="5.95944">
        <ele>596</ele>
        <time>2023-11-17T19:34:39Z</time>
      </trkpt>
      <trkpt lat="44.10672" lon="5.95937">
        <ele>597</ele>
        <time>2023-11-17T19:34:47Z</time>
      </trkpt>
      <trkpt lat="44.10656" lon="5.95929">
        <ele>600</ele>
        <time>2023-11-17T19:34:51Z</time>
      </trkpt>
      <trkpt lat="44.10637" lon="5.95913">
        <ele>605</ele>
        <time>2023-11-17T19:34:56Z</time>
      </trkpt>
      <trkpt lat="44.10652" lon="5.95929">
        <ele>601</ele>
        <time>2023-11-17T19:35:01Z</time>
      </trkpt>
      <trkpt lat="44.10662" lon="5.95936">
        <ele>598</ele>
        <time>2023-11-17T19:35:03Z</time>
      </trkpt>
      <trkpt lat="44.10654" lon="5.95941">
        <ele>600</ele>
        <time>2023-11-17T19:35:05Z</time>
      </trkpt>
      <trkpt lat="44.10646" lon="5.95938">
        <ele>602</ele>
        <time>2023-11-17T19:35:07Z</time>
      </trkpt>
      <trkpt lat="44.10637" lon="5.95938">
        <ele>605</ele>
        <time>2023-11-17T19:35:09Z</time>
      </trkpt>
      <trkpt lat="44.10634" lon="5.95966">
        <ele>604</ele>
        <time>2023-11-17T19:35:14Z</time>
      </trkpt>
      <trkpt lat="44.10621" lon="5.95983">
        <ele>607</ele>
        <time>2023-11-17T19:35:18Z</time>
      </trkpt>
      <trkpt lat="44.10611" lon="5.95989">
        <ele>609</ele>
        <time>2023-11-17T19:35:21Z</time>
      </trkpt>
      <trkpt lat="44.1058" lon="5.95981">
        <ele>617</ele>
        <time>2023-11-17T19:35:28Z</time>
      </trkpt>
      <trkpt lat="44.1057" lon="5.95984">
        <ele>619</ele>
        <time>2023-11-17T19:35:31Z</time>
      </trkpt>
      <trkpt lat="44.10562" lon="5.95981">
        <ele>620</ele>
        <time>2023-11-17T19:35:33Z</time>
      </trkpt>
      <trkpt lat="44.10553" lon="5.95983">
        <ele>621</ele>
        <time>2023-11-17T19:35:35Z</time>
      </trkpt>
      <trkpt lat="44.10551" lon="5.95976">
        <ele>622</ele>
        <time>2023-11-17T19:35:36Z</time>
      </trkpt>
      <trkpt lat="44.10556" lon="5.95968">
        <ele>621</ele>
        <time>2023-11-17T19:35:38Z</time>
      </trkpt>
      <trkpt lat="44.10562" lon="5.95947">
        <ele>621</ele>
        <time>2023-11-17T19:35:42Z</time>
      </trkpt>
      <trkpt lat="44.10561" lon="5.95942">
        <ele>621</ele>
        <time>2023-11-17T19:35:42Z</time>
      </trkpt>
      <trkpt lat="44.10553" lon="5.95938">
        <ele>622</ele>
        <time>2023-11-17T19:35:44Z</time>
      </trkpt>
      <trkpt lat="44.10543" lon="5.95939">
        <ele>624</ele>
        <time>2023-11-17T19:35:47Z</time>
      </trkpt>
      <trkpt lat="44.10528" lon="5.95916">
        <ele>625</ele>
        <time>2023-11-17T19:35:52Z</time>
      </trkpt>
      <trkpt lat="44.10516" lon="5.95914">
        <ele>626</ele>
        <time>2023-11-17T19:35:55Z</time>
      </trkpt>
      <trkpt lat="44.10503" lon="5.95923">
        <ele>629</ele>
        <time>2023-11-17T19:35:58Z</time>
      </trkpt>
      <trkpt lat="44.10475" lon="5.95931">
        <ele>631</ele>
        <time>2023-11-17T19:36:05Z</time>
      </trkpt>
      <trkpt lat="44.10436" lon="5.95951">
        <ele>633</ele>
        <time>2023-11-17T19:36:15Z</time>
      </trkpt>
      <trkpt lat="44.1042" lon="5.95952">
        <ele>634</ele>
        <time>2023-11-17T19:36:18Z</time>
      </trkpt>
      <trkpt lat="44.10409" lon="5.9596">
        <ele>635</ele>
        <time>2023-11-17T19:36:21Z</time>
      </trkpt>
      <trkpt lat="44.1039" lon="5.95956">
        <ele>637</ele>
        <time>2023-11-17T19:36:26Z</time>
      </trkpt>
      <trkpt lat="44.10366" lon="5.95967">
        <ele>639</ele>
        <time>2023-11-17T19:36:32Z</time>
      </trkpt>
      <trkpt lat="44.1035" lon="5.95971">
        <ele>641</ele>
        <time>2023-11-17T19:36:35Z</time>
      </trkpt>
      <trkpt lat="44.10315" lon="5.9599">
        <ele>642</ele>
        <time>2023-11-17T19:36:44Z</time>
      </trkpt>
      <trkpt lat="44.1031" lon="5.95991">
        <ele>643</ele>
        <time>2023-11-17T19:36:45Z</time>
      </trkpt>
      <trkpt lat="44.10303" lon="5.95987">
        <ele>644</ele>
        <time>2023-11-17T19:36:47Z</time>
      </trkpt>
      <trkpt lat="44.10293" lon="5.95993">
        <ele>645</ele>
        <time>2023-11-17T19:36:50Z</time>
      </trkpt>
      <trkpt lat="44.1026" lon="5.95997">
        <ele>648</ele>
        <time>2023-11-17T19:36:57Z</time>
      </trkpt>
      <trkpt lat="44.10242" lon="5.96007">
        <ele>649</ele>
        <time>2023-11-17T19:37:02Z</time>
      </trkpt>
      <trkpt lat="44.10224" lon="5.96024">
        <ele>650</ele>
        <time>2023-11-17T19:37:07Z</time>
      </trkpt>
      <trkpt lat="44.10228" lon="5.96003">
        <ele>650</ele>
        <time>2023-11-17T19:37:11Z</time>
      </trkpt>
      <trkpt lat="44.10233" lon="5.95996">
        <ele>651</ele>
        <time>2023-11-17T19:37:12Z</time>
      </trkpt>
      <trkpt lat="44.10252" lon="5.95984">
        <ele>651</ele>
        <time>2023-11-17T19:37:17Z</time>
      </trkpt>
      <trkpt lat="44.10289" lon="5.95973">
        <ele>648</ele>
        <time>2023-11-17T19:37:26Z</time>
      </trkpt>
      <trkpt lat="44.1031" lon="5.95952">
        <ele>648</ele>
        <time>2023-11-17T19:37:32Z</time>
      </trkpt>
      <trkpt lat="44.10307" lon="5.95947">
        <ele>649</ele>
        <time>2023-11-17T19:37:33Z</time>
      </trkpt>
      <trkpt lat="44.10299" lon="5.95951">
        <ele>650</ele>
        <time>2023-11-17T19:37:35Z</time>
      </trkpt>
      <trkpt lat="44.10287" lon="5.95951">
        <ele>651</ele>
        <time>2023-11-17T19:37:38Z</time>
      </trkpt>
      <trkpt lat="44.10273" lon="5.95956">
        <ele>653</ele>
        <time>2023-11-17T19:37:41Z</time>
      </trkpt>
      <trkpt lat="44.10253" lon="5.95952">
        <ele>656</ele>
        <time>2023-11-17T19:37:46Z</time>
      </trkpt>
      <trkpt lat="44.10249" lon="5.95949">
        <ele>657</ele>
        <time>2023-11-17T19:37:47Z</time>
      </trkpt>
      <trkpt lat="44.10249" lon="5.95942">
        <ele>658</ele>
        <time>2023-11-17T19:37:48Z</time>
      </trkpt>
      <trkpt lat="44.10276" lon="5.95938">
        <ele>655</ele>
        <time>2023-11-17T19:37:55Z</time>
      </trkpt>
      <trkpt lat="44.1028" lon="5.95928">
        <ele>656</ele>
        <time>2023-11-17T19:37:56Z</time>
      </trkpt>
      <trkpt lat="44.10299" lon="5.95917">
        <ele>654</ele>
        <time>2023-11-17T19:38:01Z</time>
      </trkpt>
      <trkpt lat="44.10302" lon="5.95908">
        <ele>654</ele>
        <time>2023-11-17T19:38:03Z</time>
      </trkpt>
      <trkpt lat="44.10292" lon="5.95896">
        <ele>656</ele>
        <time>2023-11-17T19:38:06Z</time>
      </trkpt>
      <trkpt lat="44.10282" lon="5.95899">
        <ele>657</ele>
        <time>2023-11-17T19:38:08Z</time>
      </trkpt>
      <trkpt lat="44.10273" lon="5.95895">
        <ele>659</ele>
        <time>2023-11-17T19:38:11Z</time>
      </trkpt>
      <trkpt lat="44.10264" lon="5.95887">
        <ele>661</ele>
        <time>2023-11-17T19:38:13Z</time>
      </trkpt>
      <trkpt lat="44.10256" lon="5.95885">
        <ele>662</ele>
        <time>2023-11-17T19:38:15Z</time>
      </trkpt>
      <trkpt lat="44.10245" lon="5.95872">
        <ele>664</ele>
        <time>2023-11-17T19:38:18Z</time>
      </trkpt>
      <trkpt lat="44.10229" lon="5.95859">
        <ele>666</ele>
        <time>2023-11-17T19:38:23Z</time>
      </trkpt>
      <trkpt lat="44.10223" lon="5.9585">
        <ele>667</ele>
        <time>2023-11-17T19:38:25Z</time>
      </trkpt>
      <trkpt lat="44.1022" lon="5.95837">
        <ele>667</ele>
        <time>2023-11-17T19:38:27Z</time>
      </trkpt>
      <trkpt lat="44.10236" lon="5.95781">
        <ele>670</ele>
        <time>2023-11-17T19:38:37Z</time>
      </trkpt>
      <trkpt lat="44.1025" lon="5.95756">
        <ele>671</ele>
        <time>2023-11-17T19:38:42Z</time>
      </trkpt>
      <trkpt lat="44.10287" lon="5.95739">
        <ele>668</ele>
        <time>2023-11-17T19:38:52Z</time>
      </trkpt>
      <trkpt lat="44.10292" lon="5.95732">
        <ele>667</ele>
        <time>2023-11-17T19:38:53Z</time>
      </trkpt>
      <trkpt lat="44.1029" lon="5.95727">
        <ele>667</ele>
        <time>2023-11-17T19:38:54Z</time>
      </trkpt>
      <trkpt lat="44.10256" lon="5.95715">
        <ele>671</ele>
        <time>2023-11-17T19:39:02Z</time>
      </trkpt>
      <trkpt lat="44.10222" lon="5.9568">
        <ele>676</ele>
        <time>2023-11-17T19:39:12Z</time>
      </trkpt>
      <trkpt lat="44.1022" lon="5.95674">
        <ele>676</ele>
        <time>2023-11-17T19:39:13Z</time>
      </trkpt>
      <trkpt lat="44.10209" lon="5.95608">
        <ele>682</ele>
        <time>2023-11-17T19:39:25Z</time>
      </trkpt>
      <trkpt lat="44.10209" lon="5.95591">
        <ele>683</ele>
        <time>2023-11-17T19:39:28Z</time>
      </trkpt>
      <trkpt lat="44.10216" lon="5.9557">
        <ele>683</ele>
        <time>2023-11-17T19:39:31Z</time>
      </trkpt>
      <trkpt lat="44.10235" lon="5.95535">
        <ele>683</ele>
        <time>2023-11-17T19:39:39Z</time>
      </trkpt>
      <trkpt lat="44.10234" lon="5.95525">
        <ele>684</ele>
        <time>2023-11-17T19:39:41Z</time>
      </trkpt>
      <trkpt lat="44.10223" lon="5.9552">
        <ele>685</ele>
        <time>2023-11-17T19:39:43Z</time>
      </trkpt>
      <trkpt lat="44.10204" lon="5.95523">
        <ele>685</ele>
        <time>2023-11-17T19:39:48Z</time>
      </trkpt>
      <trkpt lat="44.10175" lon="5.95552">
        <ele>688</ele>
        <time>2023-11-17T19:39:56Z</time>
      </trkpt>
      <trkpt lat="44.10166" lon="5.95543">
        <ele>688</ele>
        <time>2023-11-17T19:39:59Z</time>
      </trkpt>
      <trkpt lat="44.10161" lon="5.9552">
        <ele>686</ele>
        <time>2023-11-17T19:40:03Z</time>
      </trkpt>
      <trkpt lat="44.10158" lon="5.95516">
        <ele>685</ele>
        <time>2023-11-17T19:40:04Z</time>
      </trkpt>
      <trkpt lat="44.10155" lon="5.95516">
        <ele>685</ele>
        <time>2023-11-17T19:40:04Z</time>
      </trkpt>
      <trkpt lat="44.10127" lon="5.95548">
        <ele>684</ele>
        <time>2023-11-17T19:40:13Z</time>
      </trkpt>
      <trkpt lat="44.10093" lon="5.95571">
        <ele>686</ele>
        <time>2023-11-17T19:40:22Z</time>
      </trkpt>
      <trkpt lat="44.10046" lon="5.95592">
        <ele>681</ele>
        <time>2023-11-17T19:40:33Z</time>
      </trkpt>
      <trkpt lat="44.10028" lon="5.95624">
        <ele>680</ele>
        <time>2023-11-17T19:40:40Z</time>
      </trkpt>
      <trkpt lat="44.10018" lon="5.95654">
        <ele>681</ele>
        <time>2023-11-17T19:40:46Z</time>
      </trkpt>
      <trkpt lat="44.10035" lon="5.95683">
        <ele>683</ele>
        <time>2023-11-17T19:40:52Z</time>
      </trkpt>
      <trkpt lat="44.10041" lon="5.95703">
        <ele>681</ele>
        <time>2023-11-17T19:40:55Z</time>
      </trkpt>
      <trkpt lat="44.10036" lon="5.95795">
        <ele>675</ele>
        <time>2023-11-17T19:41:11Z</time>
      </trkpt>
      <trkpt lat="44.1002" lon="5.95823">
        <ele>673</ele>
        <time>2023-11-17T19:41:17Z</time>
      </trkpt>
      <trkpt lat="44.09986" lon="5.95852">
        <ele>669</ele>
        <time>2023-11-17T19:41:26Z</time>
      </trkpt>
      <trkpt lat="44.09973" lon="5.95869">
        <ele>667</ele>
        <time>2023-11-17T19:41:30Z</time>
      </trkpt>
      <trkpt lat="44.09945" lon="5.95876">
        <ele>663</ele>
        <time>2023-11-17T19:41:37Z</time>
      </trkpt>
      <trkpt lat="44.09919" lon="5.95899">
        <ele>662</ele>
        <time>2023-11-17T19:41:44Z</time>
      </trkpt>
      <trkpt lat="44.09889" lon="5.95908">
        <ele>658</ele>
        <time>2023-11-17T19:41:51Z</time>
      </trkpt>
      <trkpt lat="44.09867" lon="5.9593">
        <ele>657</ele>
        <time>2023-11-17T19:41:58Z</time>
      </trkpt>
      <trkpt lat="44.09837" lon="5.95947">
        <ele>656</ele>
        <time>2023-11-17T19:42:05Z</time>
      </trkpt>
      <trkpt lat="44.09827" lon="5.95946">
        <ele>655</ele>
        <time>2023-11-17T19:42:08Z</time>
      </trkpt>
      <trkpt lat="44.0982" lon="5.9595">
        <ele>654</ele>
        <time>2023-11-17T19:42:09Z</time>
      </trkpt>
      <trkpt lat="44.09786" lon="5.95945">
        <ele>650</ele>
        <time>2023-11-17T19:42:17Z</time>
      </trkpt>
      <trkpt lat="44.09775" lon="5.95946">
        <ele>649</ele>
        <time>2023-11-17T19:42:20Z</time>
      </trkpt>
      <trkpt lat="44.09768" lon="5.9595">
        <ele>649</ele>
        <time>2023-11-17T19:42:22Z</time>
      </trkpt>
      <trkpt lat="44.09755" lon="5.95964">
        <ele>649</ele>
        <time>2023-11-17T19:42:26Z</time>
      </trkpt>
      <trkpt lat="44.09724" lon="5.95976">
        <ele>649</ele>
        <time>2023-11-17T19:42:33Z</time>
      </trkpt>
      <trkpt lat="44.09686" lon="5.9598">
        <ele>646</ele>
        <time>2023-11-17T19:42:42Z</time>
      </trkpt>
      <trkpt lat="44.0965" lon="5.95978">
        <ele>642</ele>
        <time>2023-11-17T19:42:50Z</time>
      </trkpt>
      <trkpt lat="44.09613" lon="5.95988">
        <ele>640</ele>
        <time>2023-11-17T19:42:59Z</time>
      </trkpt>
      <trkpt lat="44.09585" lon="5.96026">
        <ele>641</ele>
        <time>2023-11-17T19:43:08Z</time>
      </trkpt>
      <trkpt lat="44.09562" lon="5.9605">
        <ele>639</ele>
        <time>2023-11-17T19:43:15Z</time>
      </trkpt>
      <trkpt lat="44.0953" lon="5.96072">
        <ele>636</ele>
        <time>2023-11-17T19:43:23Z</time>
      </trkpt>
      <trkpt lat="44.09527" lon="5.9608">
        <ele>636</ele>
        <time>2023-11-17T19:43:25Z</time>
      </trkpt>
      <trkpt lat="44.0952" lon="5.96085">
        <ele>636</ele>
        <time>2023-11-17T19:43:27Z</time>
      </trkpt>
      <trkpt lat="44.09512" lon="5.96099">
        <ele>635</ele>
        <time>2023-11-17T19:43:30Z</time>
      </trkpt>
      <trkpt lat="44.09506" lon="5.96138">
        <ele>635</ele>
        <time>2023-11-17T19:43:36Z</time>
      </trkpt>
      <trkpt lat="44.09498" lon="5.96162">
        <ele>636</ele>
        <time>2023-11-17T19:43:41Z</time>
      </trkpt>
      <trkpt lat="44.09499" lon="5.9617">
        <ele>636</ele>
        <time>2023-11-17T19:43:42Z</time>
      </trkpt>
      <trkpt lat="44.09547" lon="5.96187">
        <ele>634</ele>
        <time>2023-11-17T19:43:54Z</time>
      </trkpt>
      <trkpt lat="44.09589" lon="5.96211">
        <ele>632</ele>
        <time>2023-11-17T19:44:04Z</time>
      </trkpt>
      <trkpt lat="44.09605" lon="5.96226">
        <ele>632</ele>
        <time>2023-11-17T19:44:09Z</time>
      </trkpt>
      <trkpt lat="44.09604" lon="5.96232">
        <ele>631</ele>
        <time>2023-11-17T19:44:10Z</time>
      </trkpt>
      <trkpt lat="44.09597" lon="5.96242">
        <ele>631</ele>
        <time>2023-11-17T19:44:12Z</time>
      </trkpt>
      <trkpt lat="44.09596" lon="5.96252">
        <ele>630</ele>
        <time>2023-11-17T19:44:14Z</time>
      </trkpt>
      <trkpt lat="44.09603" lon="5.96266">
        <ele>628</ele>
        <time>2023-11-17T19:44:17Z</time>
      </trkpt>
      <trkpt lat="44.09608" lon="5.96269">
        <ele>628</ele>
        <time>2023-11-17T19:44:18Z</time>
      </trkpt>
      <trkpt lat="44.09611" lon="5.96267">
        <ele>628</ele>
        <time>2023-11-17T19:44:19Z</time>
      </trkpt>
      <trkpt lat="44.09609" lon="5.96263">
        <ele>629</ele>
        <time>2023-11-17T19:44:20Z</time>
      </trkpt>
      <trkpt lat="44.09599" lon="5.96261">
        <ele>629</ele>
        <time>2023-11-17T19:44:22Z</time>
      </trkpt>
      <trkpt lat="44.09595" lon="5.96253">
        <ele>630</ele>
        <time>2023-11-17T19:44:24Z</time>
      </trkpt>
      <trkpt lat="44.09596" lon="5.96243">
        <ele>630</ele>
        <time>2023-11-17T19:44:25Z</time>
      </trkpt>
      <trkpt lat="44.09604" lon="5.96231">
        <ele>631</ele>
        <time>2023-11-17T19:44:28Z</time>
      </trkpt>
      <trkpt lat="44.09603" lon="5.96225">
        <ele>632</ele>
        <time>2023-11-17T19:44:29Z</time>
      </trkpt>
      <trkpt lat="44.0958" lon="5.96205">
        <ele>633</ele>
        <time>2023-11-17T19:44:35Z</time>
      </trkpt>
      <trkpt lat="44.09556" lon="5.96195">
        <ele>633</ele>
        <time>2023-11-17T19:44:41Z</time>
      </trkpt>
      <trkpt lat="44.09542" lon="5.96183">
        <ele>634</ele>
        <time>2023-11-17T19:44:45Z</time>
      </trkpt>
      <trkpt lat="44.0954" lon="5.96184">
        <ele>634</ele>
        <time>2023-11-17T19:44:46Z</time>
      </trkpt>
      <trkpt lat="44.09543" lon="5.96188">
        <ele>634</ele>
        <time>2023-11-17T19:44:47Z</time>
      </trkpt>
      <trkpt lat="44.09585" lon="5.96208">
        <ele>633</ele>
        <time>2023-11-17T19:44:57Z</time>
      </trkpt>
      <trkpt lat="44.09603" lon="5.96228">
        <ele>632</ele>
        <time>2023-11-17T19:45:02Z</time>
      </trkpt>
      <trkpt lat="44.09602" lon="5.96235">
        <ele>631</ele>
        <time>2023-11-17T19:45:04Z</time>
      </trkpt>
      <trkpt lat="44.09596" lon="5.96241">
        <ele>631</ele>
        <time>2023-11-17T19:45:05Z</time>
      </trkpt>
      <trkpt lat="44.09573" lon="5.9625">
        <ele>630</ele>
        <time>2023-11-17T19:45:11Z</time>
      </trkpt>
      <trkpt lat="44.09562" lon="5.96271">
        <ele>627</ele>
        <time>2023-11-17T19:45:15Z</time>
      </trkpt>
      <trkpt lat="44.09545" lon="5.9629">
        <ele>624</ele>
        <time>2023-11-17T19:45:20Z</time>
      </trkpt>
      <trkpt lat="44.09537" lon="5.96319">
        <ele>620</ele>
        <time>2023-11-17T19:45:26Z</time>
      </trkpt>
      <trkpt lat="44.09543" lon="5.96331">
        <ele>619</ele>
        <time>2023-11-17T19:45:28Z</time>
      </trkpt>
      <trkpt lat="44.09565" lon="5.96352">
        <ele>619</ele>
        <time>2023-11-17T19:45:34Z</time>
      </trkpt>
      <trkpt lat="44.09576" lon="5.96357">
        <ele>619</ele>
        <time>2023-11-17T19:45:37Z</time>
      </trkpt>
      <trkpt lat="44.09593" lon="5.96359">
        <ele>620</ele>
        <time>2023-11-17T19:45:41Z</time>
      </trkpt>
      <trkpt lat="44.09625" lon="5.96374">
        <ele>620</ele>
        <time>2023-11-17T19:45:49Z</time>
      </trkpt>
      <trkpt lat="44.0963" lon="5.96396">
        <ele>619</ele>
        <time>2023-11-17T19:45:53Z</time>
      </trkpt>
      <trkpt lat="44.0962" lon="5.96418">
        <ele>617</ele>
        <time>2023-11-17T19:45:57Z</time>
      </trkpt>
      <trkpt lat="44.09612" lon="5.96445">
        <ele>617</ele>
        <time>2023-11-17T19:46:02Z</time>
      </trkpt>
      <trkpt lat="44.09613" lon="5.9648">
        <ele>618</ele>
        <time>2023-11-17T19:46:08Z</time>
      </trkpt>
      <trkpt lat="44.09611" lon="5.96483">
        <ele>618</ele>
        <time>2023-11-17T19:46:08Z</time>
      </trkpt>
      <trkpt lat="44.09597" lon="5.96487">
        <ele>618</ele>
        <time>2023-11-17T19:46:12Z</time>
      </trkpt>
      <trkpt lat="44.09589" lon="5.96492">
        <ele>617</ele>
        <time>2023-11-17T19:46:14Z</time>
      </trkpt>
      <trkpt lat="44.09572" lon="5.96507">
        <ele>617</ele>
        <time>2023-11-17T19:46:19Z</time>
      </trkpt>
      <trkpt lat="44.0955" lon="5.96555">
        <ele>619</ele>
        <time>2023-11-17T19:46:28Z</time>
      </trkpt>
      <trkpt lat="44.09531" lon="5.9658">
        <ele>620</ele>
        <time>2023-11-17T19:46:34Z</time>
      </trkpt>
      <trkpt lat="44.09512" lon="5.9659">
        <ele>619</ele>
        <time>2023-11-17T19:46:39Z</time>
      </trkpt>
      <trkpt lat="44.0949" lon="5.9661">
        <ele>619</ele>
        <time>2023-11-17T19:46:45Z</time>
      </trkpt>
      <trkpt lat="44.09443" lon="5.96634">
        <ele>615</ele>
        <time>2023-11-17T19:46:57Z</time>
      </trkpt>
      <trkpt lat="44.09435" lon="5.96635">
        <ele>615</ele>
        <time>2023-11-17T19:46:59Z</time>
      </trkpt>
      <trkpt lat="44.09433" lon="5.96632">
        <ele>614</ele>
        <time>2023-11-17T19:46:59Z</time>
      </trkpt>
      <trkpt lat="44.09445" lon="5.96633">
        <ele>616</ele>
        <time>2023-11-17T19:47:02Z</time>
      </trkpt>
      <trkpt lat="44.09469" lon="5.96621">
        <ele>617</ele>
        <time>2023-11-17T19:47:08Z</time>
      </trkpt>
      <trkpt lat="44.09473" lon="5.96622">
        <ele>618</ele>
        <time>2023-11-17T19:47:09Z</time>
      </trkpt>
      <trkpt lat="44.09475" lon="5.96627">
        <ele>618</ele>
        <time>2023-11-17T19:47:10Z</time>
      </trkpt>
      <trkpt lat="44.09475" lon="5.96632">
        <ele>618</ele>
        <time>2023-11-17T19:47:11Z</time>
      </trkpt>
      <trkpt lat="44.09465" lon="5.96648">
        <ele>618</ele>
        <time>2023-11-17T19:47:14Z</time>
      </trkpt>
      <trkpt lat="44.09463" lon="5.96665">
        <ele>619</ele>
        <time>2023-11-17T19:47:17Z</time>
      </trkpt>
      <trkpt lat="44.09437" lon="5.96723">
        <ele>618</ele>
        <time>2023-11-17T19:47:29Z</time>
      </trkpt>
      <trkpt lat="44.09421" lon="5.96745">
        <ele>617</ele>
        <time>2023-11-17T19:47:34Z</time>
      </trkpt>
      <trkpt lat="44.09421" lon="5.96752">
        <ele>617</ele>
        <time>2023-11-17T19:47:35Z</time>
      </trkpt>
      <trkpt lat="44.09431" lon="5.96771">
        <ele>620</ele>
        <time>2023-11-17T19:47:39Z</time>
      </trkpt>
      <trkpt lat="44.09449" lon="5.96787">
        <ele>624</ele>
        <time>2023-11-17T19:47:44Z</time>
      </trkpt>
      <trkpt lat="44.09481" lon="5.96835">
        <ele>630</ele>
        <time>2023-11-17T19:47:55Z</time>
      </trkpt>
      <trkpt lat="44.09489" lon="5.96841">
        <ele>631</ele>
        <time>2023-11-17T19:47:57Z</time>
      </trkpt>
      <trkpt lat="44.09503" lon="5.96844">
        <ele>633</ele>
        <time>2023-11-17T19:48:01Z</time>
      </trkpt>
      <trkpt lat="44.09509" lon="5.96861">
        <ele>636</ele>
        <time>2023-11-17T19:48:04Z</time>
      </trkpt>
      <trkpt lat="44.09509" lon="5.96872">
        <ele>636</ele>
        <time>2023-11-17T19:48:06Z</time>
      </trkpt>
      <trkpt lat="44.09503" lon="5.96877">
        <ele>636</ele>
        <time>2023-11-17T19:48:07Z</time>
      </trkpt>
      <trkpt lat="44.0949" lon="5.96868">
        <ele>634</ele>
        <time>2023-11-17T19:48:11Z</time>
      </trkpt>
      <trkpt lat="44.09478" lon="5.96869">
        <ele>632</ele>
        <time>2023-11-17T19:48:13Z</time>
      </trkpt>
      <trkpt lat="44.09459" lon="5.96877">
        <ele>631</ele>
        <time>2023-11-17T19:48:18Z</time>
      </trkpt>
      <trkpt lat="44.09445" lon="5.96889">
        <ele>631</ele>
        <time>2023-11-17T19:48:22Z</time>
      </trkpt>
      <trkpt lat="44.09443" lon="5.96897">
        <ele>631</ele>
        <time>2023-11-17T19:48:23Z</time>
      </trkpt>
      <trkpt lat="44.09451" lon="5.96916">
        <ele>633</ele>
        <time>2023-11-17T19:48:27Z</time>
      </trkpt>
      <trkpt lat="44.0945" lon="5.9694">
        <ele>634</ele>
        <time>2023-11-17T19:48:31Z</time>
      </trkpt>
      <trkpt lat="44.09446" lon="5.96958">
        <ele>634</ele>
        <time>2023-11-17T19:48:34Z</time>
      </trkpt>
      <trkpt lat="44.09431" lon="5.9697">
        <ele>632</ele>
        <time>2023-11-17T19:48:38Z</time>
      </trkpt>
      <trkpt lat="44.09427" lon="5.97003">
        <ele>631</ele>
        <time>2023-11-17T19:48:44Z</time>
      </trkpt>
      <trkpt lat="44.09407" lon="5.97015">
        <ele>627</ele>
        <time>2023-11-17T19:48:49Z</time>
      </trkpt>
      <trkpt lat="44.09398" lon="5.97025">
        <ele>626</ele>
        <time>2023-11-17T19:48:52Z</time>
      </trkpt>
      <trkpt lat="44.09399" lon="5.97039">
        <ele>626</ele>
        <time>2023-11-17T19:48:54Z</time>
      </trkpt>
      <trkpt lat="44.09396" lon="5.97056">
        <ele>627</ele>
        <time>2023-11-17T19:48:57Z</time>
      </trkpt>
      <trkpt lat="44.09381" lon="5.97077">
        <ele>625</ele>
        <time>2023-11-17T19:49:02Z</time>
      </trkpt>
      <trkpt lat="44.09373" lon="5.97095">
        <ele>625</ele>
        <time>2023-11-17T19:49:05Z</time>
      </trkpt>
      <trkpt lat="44.09363" lon="5.97106">
        <ele>624</ele>
        <time>2023-11-17T19:49:08Z</time>
      </trkpt>
      <trkpt lat="44.09356" lon="5.97129">
        <ele>624</ele>
        <time>2023-11-17T19:49:13Z</time>
      </trkpt>
      <trkpt lat="44.09345" lon="5.97144">
        <ele>623</ele>
        <time>2023-11-17T19:49:16Z</time>
      </trkpt>
      <trkpt lat="44.09334" lon="5.97165">
        <ele>623</ele>
        <time>2023-11-17T19:49:21Z</time>
      </trkpt>
      <trkpt lat="44.09313" lon="5.9715">
        <ele>621</ele>
        <time>2023-11-17T19:49:26Z</time>
      </trkpt>
      <trkpt lat="44.09299" lon="5.97151">
        <ele>621</ele>
        <time>2023-11-17T19:49:29Z</time>
      </trkpt>
      <trkpt lat="44.09295" lon="5.97175">
        <ele>623</ele>
        <time>2023-11-17T19:49:33Z</time>
      </trkpt>
      <trkpt lat="44.09287" lon="5.97188">
        <ele>625</ele>
        <time>2023-11-17T19:49:36Z</time>
      </trkpt>
      <trkpt lat="44.09268" lon="5.97206">
        <ele>628</ele>
        <time>2023-11-17T19:49:42Z</time>
      </trkpt>
      <trkpt lat="44.09257" lon="5.97211">
        <ele>629</ele>
        <time>2023-11-17T19:49:44Z</time>
      </trkpt>
      <trkpt lat="44.09256" lon="5.97215">
        <ele>630</ele>
        <time>2023-11-17T19:49:45Z</time>
      </trkpt>
      <trkpt lat="44.09258" lon="5.97218">
        <ele>631</ele>
        <time>2023-11-17T19:49:46Z</time>
      </trkpt>
      <trkpt lat="44.09274" lon="5.97221">
        <ele>631</ele>
        <time>2023-11-17T19:49:50Z</time>
      </trkpt>
      <trkpt lat="44.09282" lon="5.97226">
        <ele>632</ele>
        <time>2023-11-17T19:49:52Z</time>
      </trkpt>
      <trkpt lat="44.09294" lon="5.97229">
        <ele>633</ele>
        <time>2023-11-17T19:49:54Z</time>
      </trkpt>
      <trkpt lat="44.09324" lon="5.97251">
        <ele>637</ele>
        <time>2023-11-17T19:50:02Z</time>
      </trkpt>
      <trkpt lat="44.09323" lon="5.97257">
        <ele>638</ele>
        <time>2023-11-17T19:50:03Z</time>
      </trkpt>
      <trkpt lat="44.09317" lon="5.97261">
        <ele>639</ele>
        <time>2023-11-17T19:50:05Z</time>
      </trkpt>
      <trkpt lat="44.0931" lon="5.97257">
        <ele>638</ele>
        <time>2023-11-17T19:50:07Z</time>
      </trkpt>
      <trkpt lat="44.09295" lon="5.97255">
        <ele>638</ele>
        <time>2023-11-17T19:50:10Z</time>
      </trkpt>
      <trkpt lat="44.09284" lon="5.9726">
        <ele>639</ele>
        <time>2023-11-17T19:50:13Z</time>
      </trkpt>
      <trkpt lat="44.09267" lon="5.9725">
        <ele>637</ele>
        <time>2023-11-17T19:50:17Z</time>
      </trkpt>
      <trkpt lat="44.09258" lon="5.97251">
        <ele>637</ele>
        <time>2023-11-17T19:50:19Z</time>
      </trkpt>
      <trkpt lat="44.09276" lon="5.97285">
        <ele>644</ele>
        <time>2023-11-17T19:50:26Z</time>
      </trkpt>
      <trkpt lat="44.093" lon="5.97304">
        <ele>648</ele>
        <time>2023-11-17T19:50:33Z</time>
      </trkpt>
      <trkpt lat="44.09317" lon="5.97343">
        <ele>654</ele>
        <time>2023-11-17T19:50:41Z</time>
      </trkpt>
      <trkpt lat="44.0933" lon="5.97342">
        <ele>654</ele>
        <time>2023-11-17T19:50:44Z</time>
      </trkpt>
      <trkpt lat="44.09346" lon="5.97347">
        <ele>655</ele>
        <time>2023-11-17T19:50:47Z</time>
      </trkpt>
      <trkpt lat="44.09366" lon="5.97347">
        <ele>656</ele>
        <time>2023-11-17T19:50:52Z</time>
      </trkpt>
      <trkpt lat="44.0938" lon="5.9735">
        <ele>656</ele>
        <time>2023-11-17T19:50:55Z</time>
      </trkpt>
      <trkpt lat="44.0939" lon="5.97348">
        <ele>657</ele>
        <time>2023-11-17T19:50:58Z</time>
      </trkpt>
      <trkpt lat="44.09406" lon="5.97358">
        <ele>658</ele>
        <time>2023-11-17T19:51:02Z</time>
      </trkpt>
      <trkpt lat="44.09412" lon="5.97358">
        <ele>658</ele>
        <time>2023-11-17T19:51:03Z</time>
      </trkpt>
      <trkpt lat="44.0944" lon="5.97346">
        <ele>660</ele>
        <time>2023-11-17T19:51:10Z</time>
      </trkpt>
      <trkpt lat="44.09462" lon="5.97318">
        <ele>661</ele>
        <time>2023-11-17T19:51:17Z</time>
      </trkpt>
      <trkpt lat="44.09484" lon="5.97303">
        <ele>663</ele>
        <time>2023-11-17T19:51:23Z</time>
      </trkpt>
      <trkpt lat="44.09495" lon="5.973">
        <ele>664</ele>
        <time>2023-11-17T19:51:25Z</time>
      </trkpt>
      <trkpt lat="44.09503" lon="5.97303">
        <ele>665</ele>
        <time>2023-11-17T19:51:27Z</time>
      </trkpt>
      <trkpt lat="44.09525" lon="5.97322">
        <ele>666</ele>
        <time>2023-11-17T19:51:33Z</time>
      </trkpt>
      <trkpt lat="44.09559" lon="5.97336">
        <ele>663</ele>
        <time>2023-11-17T19:51:42Z</time>
      </trkpt>
      <trkpt lat="44.0957" lon="5.97355">
        <ele>660</ele>
        <time>2023-11-17T19:51:46Z</time>
      </trkpt>
      <trkpt lat="44.09574" lon="5.97357">
        <ele>660</ele>
        <time>2023-11-17T19:51:47Z</time>
      </trkpt>
      <trkpt lat="44.0958" lon="5.97367">
        <ele>658</ele>
        <time>2023-11-17T19:51:49Z</time>
      </trkpt>
      <trkpt lat="44.09582" lon="5.9738">
        <ele>657</ele>
        <time>2023-11-17T19:51:51Z</time>
      </trkpt>
      <trkpt lat="44.09575" lon="5.97389">
        <ele>656</ele>
        <time>2023-11-17T19:51:53Z</time>
      </trkpt>
      <trkpt lat="44.09575" lon="5.97408">
        <ele>654</ele>
        <time>2023-11-17T19:51:57Z</time>
      </trkpt>
      <trkpt lat="44.09567" lon="5.97423">
        <ele>653</ele>
        <time>2023-11-17T19:52:00Z</time>
      </trkpt>
      <trkpt lat="44.09566" lon="5.97435">
        <ele>652</ele>
        <time>2023-11-17T19:52:02Z</time>
      </trkpt>
      <trkpt lat="44.09562" lon="5.97438">
        <ele>652</ele>
        <time>2023-11-17T19:52:03Z</time>
      </trkpt>
      <trkpt lat="44.09552" lon="5.97468">
        <ele>650</ele>
        <time>2023-11-17T19:52:08Z</time>
      </trkpt>
      <trkpt lat="44.0954" lon="5.97487">
        <ele>648</ele>
        <time>2023-11-17T19:52:13Z</time>
      </trkpt>
      <trkpt lat="44.09529" lon="5.97525">
        <ele>644</ele>
        <time>2023-11-17T19:52:19Z</time>
      </trkpt>
      <trkpt lat="44.09518" lon="5.97538">
        <ele>642</ele>
        <time>2023-11-17T19:52:23Z</time>
      </trkpt>
      <trkpt lat="44.09503" lon="5.97586">
        <ele>635</ele>
        <time>2023-11-17T19:52:32Z</time>
      </trkpt>
      <trkpt lat="44.09487" lon="5.97612">
        <ele>632</ele>
        <time>2023-11-17T19:52:37Z</time>
      </trkpt>
      <trkpt lat="44.09475" lon="5.97626">
        <ele>630</ele>
        <time>2023-11-17T19:52:41Z</time>
      </trkpt>
      <trkpt lat="44.0947" lon="5.97637">
        <ele>628</ele>
        <time>2023-11-17T19:52:43Z</time>
      </trkpt>
      <trkpt lat="44.09461" lon="5.97643">
        <ele>627</ele>
        <time>2023-11-17T19:52:46Z</time>
      </trkpt>
      <trkpt lat="44.09451" lon="5.97654">
        <ele>626</ele>
        <time>2023-11-17T19:52:48Z</time>
      </trkpt>
      <trkpt lat="44.09411" lon="5.97677">
        <ele>622</ele>
        <time>2023-11-17T19:52:59Z</time>
      </trkpt>
      <trkpt lat="44.09406" lon="5.97677">
        <ele>622</ele>
        <time>2023-11-17T19:53:00Z</time>
      </trkpt>
      <trkpt lat="44.09396" lon="5.97667">
        <ele>623</ele>
        <time>2023-11-17T19:53:03Z</time>
      </trkpt>
      <trkpt lat="44.09395" lon="5.97703">
        <ele>618</ele>
        <time>2023-11-17T19:53:09Z</time>
      </trkpt>
      <trkpt lat="44.09379" lon="5.97696">
        <ele>618</ele>
        <time>2023-11-17T19:53:13Z</time>
      </trkpt>
      <trkpt lat="44.09366" lon="5.97705">
        <ele>617</ele>
        <time>2023-11-17T19:53:16Z</time>
      </trkpt>
      <trkpt lat="44.09355" lon="5.97702">
        <ele>617</ele>
        <time>2023-11-17T19:53:19Z</time>
      </trkpt>
      <trkpt lat="44.09338" lon="5.97687">
        <ele>619</ele>
        <time>2023-11-17T19:53:23Z</time>
      </trkpt>
      <trkpt lat="44.09333" lon="5.97657">
        <ele>623</ele>
        <time>2023-11-17T19:53:28Z</time>
      </trkpt>
      <trkpt lat="44.0933" lon="5.97651">
        <ele>624</ele>
        <time>2023-11-17T19:53:30Z</time>
      </trkpt>
      <trkpt lat="44.093" lon="5.97665">
        <ele>622</ele>
        <time>2023-11-17T19:53:37Z</time>
      </trkpt>
      <trkpt lat="44.09285" lon="5.97653">
        <ele>624</ele>
        <time>2023-11-17T19:53:41Z</time>
      </trkpt>
      <trkpt lat="44.09279" lon="5.9766">
        <ele>623</ele>
        <time>2023-11-17T19:53:43Z</time>
      </trkpt>
      <trkpt lat="44.09269" lon="5.97664">
        <ele>622</ele>
        <time>2023-11-17T19:53:45Z</time>
      </trkpt>
      <trkpt lat="44.09239" lon="5.97643">
        <ele>626</ele>
        <time>2023-11-17T19:53:53Z</time>
      </trkpt>
      <trkpt lat="44.09228" lon="5.97643">
        <ele>626</ele>
        <time>2023-11-17T19:53:56Z</time>
      </trkpt>
      <trkpt lat="44.09224" lon="5.97647">
        <ele>625</ele>
        <time>2023-11-17T19:53:57Z</time>
      </trkpt>
      <trkpt lat="44.09207" lon="5.97644">
        <ele>625</ele>
        <time>2023-11-17T19:54:01Z</time>
      </trkpt>
      <trkpt lat="44.09184" lon="5.97644">
        <ele>625</ele>
        <time>2023-11-17T19:54:06Z</time>
      </trkpt>
      <trkpt lat="44.09171" lon="5.97635">
        <ele>626</ele>
        <time>2023-11-17T19:54:10Z</time>
      </trkpt>
      <trkpt lat="44.09168" lon="5.97627">
        <ele>627</ele>
        <time>2023-11-17T19:54:11Z</time>
      </trkpt>
      <trkpt lat="44.09171" lon="5.97615">
        <ele>628</ele>
        <time>2023-11-17T19:54:13Z</time>
      </trkpt>
      <trkpt lat="44.0917" lon="5.97605">
        <ele>630</ele>
        <time>2023-11-17T19:54:15Z</time>
      </trkpt>
      <trkpt lat="44.09179" lon="5.97592">
        <ele>631</ele>
        <time>2023-11-17T19:54:18Z</time>
      </trkpt>
      <trkpt lat="44.09178" lon="5.97584">
        <ele>632</ele>
        <time>2023-11-17T19:54:19Z</time>
      </trkpt>
      <trkpt lat="44.09172" lon="5.97574">
        <ele>633</ele>
        <time>2023-11-17T19:54:22Z</time>
      </trkpt>
      <trkpt lat="44.09161" lon="5.9757">
        <ele>633</ele>
        <time>2023-11-17T19:54:24Z</time>
      </trkpt>
      <trkpt lat="44.09141" lon="5.97554">
        <ele>633</ele>
        <time>2023-11-17T19:54:30Z</time>
      </trkpt>
      <trkpt lat="44.09111" lon="5.97559">
        <ele>630</ele>
        <time>2023-11-17T19:54:37Z</time>
      </trkpt>
      <trkpt lat="44.09096" lon="5.97565">
        <ele>628</ele>
        <time>2023-11-17T19:54:40Z</time>
      </trkpt>
      <trkpt lat="44.09079" lon="5.97561">
        <ele>627</ele>
        <time>2023-11-17T19:54:44Z</time>
      </trkpt>
      <trkpt lat="44.0907" lon="5.97552">
        <ele>628</ele>
        <time>2023-11-17T19:54:47Z</time>
      </trkpt>
      <trkpt lat="44.09045" lon="5.97537">
        <ele>630</ele>
        <time>2023-11-17T19:54:53Z</time>
      </trkpt>
      <trkpt lat="44.09008" lon="5.97531">
        <ele>630</ele>
        <time>2023-11-17T19:55:02Z</time>
      </trkpt>
      <trkpt lat="44.08994" lon="5.97522">
        <ele>631</ele>
        <time>2023-11-17T19:55:06Z</time>
      </trkpt>
      <trkpt lat="44.08965" lon="5.9754">
        <ele>626</ele>
        <time>2023-11-17T19:55:13Z</time>
      </trkpt>
      <trkpt lat="44.08963" lon="5.97543">
        <ele>626</ele>
        <time>2023-11-17T19:55:14Z</time>
      </trkpt>
      <trkpt lat="44.08963" lon="5.97554">
        <ele>624</ele>
        <time>2023-11-17T19:55:16Z</time>
      </trkpt>
      <trkpt lat="44.08956" lon="5.97552">
        <ele>624</ele>
        <time>2023-11-17T19:55:17Z</time>
      </trkpt>
      <trkpt lat="44.08949" lon="5.97555">
        <ele>623</ele>
        <time>2023-11-17T19:55:19Z</time>
      </trkpt>
      <trkpt lat="44.08939" lon="5.9757">
        <ele>620</ele>
        <time>2023-11-17T19:55:22Z</time>
      </trkpt>
      <trkpt lat="44.08923" lon="5.97573">
        <ele>618</ele>
        <time>2023-11-17T19:55:26Z</time>
      </trkpt>
      <trkpt lat="44.08884" lon="5.97597">
        <ele>614</ele>
        <time>2023-11-17T19:55:36Z</time>
      </trkpt>
      <trkpt lat="44.08855" lon="5.97609">
        <ele>613</ele>
        <time>2023-11-17T19:55:43Z</time>
      </trkpt>
      <trkpt lat="44.08824" lon="5.97629">
        <ele>610</ele>
        <time>2023-11-17T19:55:51Z</time>
      </trkpt>
      <trkpt lat="44.08806" lon="5.97635">
        <ele>611</ele>
        <time>2023-11-17T19:55:55Z</time>
      </trkpt>
      <trkpt lat="44.0879" lon="5.9765">
        <ele>610</ele>
        <time>2023-11-17T19:56:00Z</time>
      </trkpt>
      <trkpt lat="44.08777" lon="5.97683">
        <ele>607</ele>
        <time>2023-11-17T19:56:06Z</time>
      </trkpt>
      <trkpt lat="44.08777" lon="5.97694">
        <ele>606</ele>
        <time>2023-11-17T19:56:08Z</time>
      </trkpt>
      <trkpt lat="44.0878" lon="5.97714">
        <ele>604</ele>
        <time>2023-11-17T19:56:12Z</time>
      </trkpt>
      <trkpt lat="44.08793" lon="5.97735">
        <ele>602</ele>
        <time>2023-11-17T19:56:16Z</time>
      </trkpt>
      <trkpt lat="44.08796" lon="5.97744">
        <ele>601</ele>
        <time>2023-11-17T19:56:18Z</time>
      </trkpt>
      <trkpt lat="44.08791" lon="5.9776">
        <ele>599</ele>
        <time>2023-11-17T19:56:21Z</time>
      </trkpt>
      <trkpt lat="44.08761" lon="5.97775">
        <ele>598</ele>
        <time>2023-11-17T19:56:28Z</time>
      </trkpt>
      <trkpt lat="44.08722" lon="5.9779">
        <ele>593</ele>
        <time>2023-11-17T19:56:38Z</time>
      </trkpt>
      <trkpt lat="44.08711" lon="5.97792">
        <ele>592</ele>
        <time>2023-11-17T19:56:40Z</time>
      </trkpt>
      <trkpt lat="44.08706" lon="5.97797">
        <ele>591</ele>
        <time>2023-11-17T19:56:42Z</time>
      </trkpt>
      <trkpt lat="44.08692" lon="5.97804">
        <ele>589</ele>
        <time>2023-11-17T19:56:45Z</time>
      </trkpt>
      <trkpt lat="44.08671" lon="5.97811">
        <ele>587</ele>
        <time>2023-11-17T19:56:50Z</time>
      </trkpt>
      <trkpt lat="44.08648" lon="5.97806">
        <ele>586</ele>
        <time>2023-11-17T19:56:56Z</time>
      </trkpt>
      <trkpt lat="44.08643" lon="5.97801">
        <ele>587</ele>
        <time>2023-11-17T19:56:57Z</time>
      </trkpt>
      <trkpt lat="44.08637" lon="5.97767">
        <ele>590</ele>
        <time>2023-11-17T19:57:03Z</time>
      </trkpt>
      <trkpt lat="44.08624" lon="5.97747">
        <ele>591</ele>
        <time>2023-11-17T19:57:08Z</time>
      </trkpt>
      <trkpt lat="44.08618" lon="5.97749">
        <ele>590</ele>
        <time>2023-11-17T19:57:09Z</time>
      </trkpt>
      <trkpt lat="44.08602" lon="5.97762">
        <ele>587</ele>
        <time>2023-11-17T19:57:13Z</time>
      </trkpt>
      <trkpt lat="44.08595" lon="5.97758">
        <ele>587</ele>
        <time>2023-11-17T19:57:15Z</time>
      </trkpt>
      <trkpt lat="44.08587" lon="5.97747">
        <ele>587</ele>
        <time>2023-11-17T19:57:18Z</time>
      </trkpt>
      <trkpt lat="44.08551" lon="5.97685">
        <ele>591</ele>
        <time>2023-11-17T19:57:31Z</time>
      </trkpt>
      <trkpt lat="44.08541" lon="5.97658">
        <ele>594</ele>
        <time>2023-11-17T19:57:36Z</time>
      </trkpt>
      <trkpt lat="44.08532" lon="5.9765">
        <ele>593</ele>
        <time>2023-11-17T19:57:39Z</time>
      </trkpt>
      <trkpt lat="44.08528" lon="5.97642">
        <ele>594</ele>
        <time>2023-11-17T19:57:40Z</time>
      </trkpt>
      <trkpt lat="44.08516" lon="5.97601">
        <ele>596</ele>
        <time>2023-11-17T19:57:48Z</time>
      </trkpt>
      <trkpt lat="44.08514" lon="5.97584">
        <ele>597</ele>
        <time>2023-11-17T19:57:51Z</time>
      </trkpt>
      <trkpt lat="44.08515" lon="5.97561">
        <ele>596</ele>
        <time>2023-11-17T19:57:54Z</time>
      </trkpt>
      <trkpt lat="44.08519" lon="5.97536">
        <ele>596</ele>
        <time>2023-11-17T19:57:59Z</time>
      </trkpt>
      <trkpt lat="44.08542" lon="5.97483">
        <ele>599</ele>
        <time>2023-11-17T19:58:09Z</time>
      </trkpt>
      <trkpt lat="44.08578" lon="5.97381">
        <ele>599</ele>
        <time>2023-11-17T19:58:28Z</time>
      </trkpt>
      <trkpt lat="44.08564" lon="5.97306">
        <ele>594</ele>
        <time>2023-11-17T19:58:41Z</time>
      </trkpt>
      <trkpt lat="44.08559" lon="5.97302">
        <ele>593</ele>
        <time>2023-11-17T19:58:43Z</time>
      </trkpt>
      <trkpt lat="44.08518" lon="5.97315">
        <ele>583</ele>
        <time>2023-11-17T19:58:52Z</time>
      </trkpt>
      <trkpt lat="44.08513" lon="5.97314">
        <ele>581</ele>
        <time>2023-11-17T19:58:54Z</time>
      </trkpt>
      <trkpt lat="44.08498" lon="5.97296">
        <ele>577</ele>
        <time>2023-11-17T19:58:58Z</time>
      </trkpt>
      <trkpt lat="44.08492" lon="5.97294">
        <ele>576</ele>
        <time>2023-11-17T19:59:00Z</time>
      </trkpt>
      <trkpt lat="44.08483" lon="5.97296">
        <ele>575</ele>
        <time>2023-11-17T19:59:02Z</time>
      </trkpt>
      <trkpt lat="44.08474" lon="5.97282">
        <ele>573</ele>
        <time>2023-11-17T19:59:05Z</time>
      </trkpt>
      <trkpt lat="44.08465" lon="5.97273">
        <ele>571</ele>
        <time>2023-11-17T19:59:07Z</time>
      </trkpt>
      <trkpt lat="44.08458" lon="5.97257">
        <ele>570</ele>
        <time>2023-11-17T19:59:11Z</time>
      </trkpt>
      <trkpt lat="44.08436" lon="5.97237">
        <ele>567</ele>
        <time>2023-11-17T19:59:17Z</time>
      </trkpt>
      <trkpt lat="44.08431" lon="5.97235">
        <ele>566</ele>
        <time>2023-11-17T19:59:18Z</time>
      </trkpt>
      <trkpt lat="44.08421" lon="5.97237">
        <ele>565</ele>
        <time>2023-11-17T19:59:20Z</time>
      </trkpt>
      <trkpt lat="44.08406" lon="5.97245">
        <ele>564</ele>
        <time>2023-11-17T19:59:24Z</time>
      </trkpt>
      <trkpt lat="44.08369" lon="5.97243">
        <ele>558</ele>
        <time>2023-11-17T19:59:33Z</time>
      </trkpt>
      <trkpt lat="44.0835" lon="5.97253">
        <ele>555</ele>
        <time>2023-11-17T19:59:37Z</time>
      </trkpt>
      <trkpt lat="44.08331" lon="5.97252">
        <ele>552</ele>
        <time>2023-11-17T19:59:42Z</time>
      </trkpt>
      <trkpt lat="44.08327" lon="5.97262">
        <ele>551</ele>
        <time>2023-11-17T19:59:44Z</time>
      </trkpt>
      <trkpt lat="44.08324" lon="5.97292">
        <ele>552</ele>
        <time>2023-11-17T19:59:49Z</time>
      </trkpt>
      <trkpt lat="44.08319" lon="5.97302">
        <ele>552</ele>
        <time>2023-11-17T19:59:51Z</time>
      </trkpt>
      <trkpt lat="44.08316" lon="5.97306">
        <ele>552</ele>
        <time>2023-11-17T19:59:52Z</time>
      </trkpt>
      <trkpt lat="44.08306" lon="5.97304">
        <ele>551</ele>
        <time>2023-11-17T19:59:54Z</time>
      </trkpt>
      <trkpt lat="44.083" lon="5.97307">
        <ele>550</ele>
        <time>2023-11-17T19:59:56Z</time>
      </trkpt>
      <trkpt lat="44.08286" lon="5.97324">
        <ele>551</ele>
        <time>2023-11-17T20:00:00Z</time>
      </trkpt>
      <trkpt lat="44.08284" lon="5.97332">
        <ele>551</ele>
        <time>2023-11-17T20:00:02Z</time>
      </trkpt>
      <trkpt lat="44.08279" lon="5.97336">
        <ele>552</ele>
        <time>2023-11-17T20:00:03Z</time>
      </trkpt>
      <trkpt lat="44.08264" lon="5.97338">
        <ele>551</ele>
        <time>2023-11-17T20:00:06Z</time>
      </trkpt>
      <trkpt lat="44.08237" lon="5.97332">
        <ele>548</ele>
        <time>2023-11-17T20:00:13Z</time>
      </trkpt>
      <trkpt lat="44.08214" lon="5.97342">
        <ele>550</ele>
        <time>2023-11-17T20:00:18Z</time>
      </trkpt>
      <trkpt lat="44.08206" lon="5.9734">
        <ele>549</ele>
        <time>2023-11-17T20:00:20Z</time>
      </trkpt>
      <trkpt lat="44.08166" lon="5.9735">
        <ele>550</ele>
        <time>2023-11-17T20:00:30Z</time>
      </trkpt>
      <trkpt lat="44.08152" lon="5.97348">
        <ele>548</ele>
        <time>2023-11-17T20:00:33Z</time>
      </trkpt>
      <trkpt lat="44.08136" lon="5.97355">
        <ele>547</ele>
        <time>2023-11-17T20:00:37Z</time>
      </trkpt>
      <trkpt lat="44.0812" lon="5.97355">
        <ele>545</ele>
        <time>2023-11-17T20:00:41Z</time>
      </trkpt>
      <trkpt lat="44.08109" lon="5.97362">
        <ele>545</ele>
        <time>2023-11-17T20:00:44Z</time>
      </trkpt>
      <trkpt lat="44.08093" lon="5.97366">
        <ele>543</ele>
        <time>2023-11-17T20:00:47Z</time>
      </trkpt>
      <trkpt lat="44.08073" lon="5.97389">
        <ele>546</ele>
        <time>2023-11-17T20:00:53Z</time>
      </trkpt>
      <trkpt lat="44.08071" lon="5.974">
        <ele>548</ele>
        <time>2023-11-17T20:00:55Z</time>
      </trkpt>
      <trkpt lat="44.08068" lon="5.97403">
        <ele>548</ele>
        <time>2023-11-17T20:00:56Z</time>
      </trkpt>
      <trkpt lat="44.08059" lon="5.97402">
        <ele>547</ele>
        <time>2023-11-17T20:00:58Z</time>
      </trkpt>
      <trkpt lat="44.08045" lon="5.9741">
        <ele>547</ele>
        <time>2023-11-17T20:01:02Z</time>
      </trkpt>
      <trkpt lat="44.08034" lon="5.97411">
        <ele>545</ele>
        <time>2023-11-17T20:01:04Z</time>
      </trkpt>
      <trkpt lat="44.08027" lon="5.97409">
        <ele>544</ele>
        <time>2023-11-17T20:01:06Z</time>
      </trkpt>
      <trkpt lat="44.08018" lon="5.97401">
        <ele>541</ele>
        <time>2023-11-17T20:01:09Z</time>
      </trkpt>
      <trkpt lat="44.08" lon="5.9742">
        <ele>542</ele>
        <time>2023-11-17T20:01:14Z</time>
      </trkpt>
      <trkpt lat="44.07997" lon="5.97431">
        <ele>543</ele>
        <time>2023-11-17T20:01:16Z</time>
      </trkpt>
      <trkpt lat="44.07992" lon="5.97433">
        <ele>543</ele>
        <time>2023-11-17T20:01:17Z</time>
      </trkpt>
      <trkpt lat="44.07976" lon="5.97428">
        <ele>541</ele>
        <time>2023-11-17T20:01:21Z</time>
      </trkpt>
      <trkpt lat="44.07955" lon="5.97416">
        <ele>537</ele>
        <time>2023-11-17T20:01:26Z</time>
      </trkpt>
      <trkpt lat="44.07939" lon="5.97421">
        <ele>536</ele>
        <time>2023-11-17T20:01:30Z</time>
      </trkpt>
      <trkpt lat="44.07925" lon="5.97429">
        <ele>535</ele>
        <time>2023-11-17T20:01:34Z</time>
      </trkpt>
      <trkpt lat="44.07909" lon="5.9743">
        <ele>533</ele>
        <time>2023-11-17T20:01:37Z</time>
      </trkpt>
      <trkpt lat="44.07897" lon="5.97434">
        <ele>531</ele>
        <time>2023-11-17T20:01:40Z</time>
      </trkpt>
      <trkpt lat="44.07885" lon="5.97441">
        <ele>530</ele>
        <time>2023-11-17T20:01:43Z</time>
      </trkpt>
      <trkpt lat="44.07874" lon="5.97452">
        <ele>529</ele>
        <time>2023-11-17T20:01:46Z</time>
      </trkpt>
      <trkpt lat="44.07859" lon="5.97459">
        <ele>526</ele>
        <time>2023-11-17T20:01:50Z</time>
      </trkpt>
      <trkpt lat="44.0785" lon="5.97467">
        <ele>526</ele>
        <time>2023-11-17T20:01:53Z</time>
      </trkpt>
      <trkpt lat="44.07839" lon="5.97467">
        <ele>523</ele>
        <time>2023-11-17T20:01:55Z</time>
      </trkpt>
      <trkpt lat="44.07828" lon="5.97476">
        <ele>522</ele>
        <time>2023-11-17T20:01:58Z</time>
      </trkpt>
      <trkpt lat="44.07819" lon="5.97491">
        <ele>522</ele>
        <time>2023-11-17T20:02:01Z</time>
      </trkpt>
      <trkpt lat="44.07805" lon="5.97526">
        <ele>521</ele>
        <time>2023-11-17T20:02:08Z</time>
      </trkpt>
      <trkpt lat="44.07805" lon="5.97541">
        <ele>521</ele>
        <time>2023-11-17T20:02:11Z</time>
      </trkpt>
      <trkpt lat="44.078" lon="5.9757">
        <ele>522</ele>
        <time>2023-11-17T20:02:16Z</time>
      </trkpt>
      <trkpt lat="44.07801" lon="5.97577">
        <ele>522</ele>
        <time>2023-11-17T20:02:17Z</time>
      </trkpt>
      <trkpt lat="44.07806" lon="5.97583">
        <ele>523</ele>
        <time>2023-11-17T20:02:18Z</time>
      </trkpt>
      <trkpt lat="44.07863" lon="5.97606">
        <ele>528</ele>
        <time>2023-11-17T20:02:32Z</time>
      </trkpt>
      <trkpt lat="44.07902" lon="5.9763">
        <ele>531</ele>
        <time>2023-11-17T20:02:42Z</time>
      </trkpt>
      <trkpt lat="44.07916" lon="5.97633">
        <ele>532</ele>
        <time>2023-11-17T20:02:45Z</time>
      </trkpt>
      <trkpt lat="44.07943" lon="5.97628">
        <ele>535</ele>
        <time>2023-11-17T20:02:52Z</time>
      </trkpt>
      <trkpt lat="44.07994" lon="5.97638">
        <ele>539</ele>
        <time>2023-11-17T20:03:04Z</time>
      </trkpt>
      <trkpt lat="44.08021" lon="5.9763">
        <ele>542</ele>
        <time>2023-11-17T20:03:10Z</time>
      </trkpt>
      <trkpt lat="44.0803" lon="5.97615">
        <ele>545</ele>
        <time>2023-11-17T20:03:14Z</time>
      </trkpt>
      <trkpt lat="44.08041" lon="5.97608">
        <ele>546</ele>
        <time>2023-11-17T20:03:16Z</time>
      </trkpt>
      <trkpt lat="44.08066" lon="5.97585">
        <ele>550</ele>
        <time>2023-11-17T20:03:23Z</time>
      </trkpt>
      <trkpt lat="44.08114" lon="5.97561">
        <ele>557</ele>
        <time>2023-11-17T20:03:35Z</time>
      </trkpt>
      <trkpt lat="44.08136" lon="5.97564">
        <ele>558</ele>
        <time>2023-11-17T20:03:40Z</time>
      </trkpt>
      <trkpt lat="44.08149" lon="5.9759">
        <ele>556</ele>
        <time>2023-11-17T20:03:46Z</time>
      </trkpt>
      <trkpt lat="44.08154" lon="5.97622">
        <ele>553</ele>
        <time>2023-11-17T20:03:51Z</time>
      </trkpt>
      <trkpt lat="44.08168" lon="5.97633">
        <ele>553</ele>
        <time>2023-11-17T20:03:55Z</time>
      </trkpt>
      <trkpt lat="44.08174" lon="5.97633">
        <ele>554</ele>
        <time>2023-11-17T20:03:56Z</time>
      </trkpt>
      <trkpt lat="44.08205" lon="5.97644">
        <ele>554</ele>
        <time>2023-11-17T20:04:04Z</time>
      </trkpt>
      <trkpt lat="44.08225" lon="5.97654">
        <ele>554</ele>
        <time>2023-11-17T20:04:09Z</time>
      </trkpt>
      <trkpt lat="44.08236" lon="5.97651">
        <ele>555</ele>
        <time>2023-11-17T20:04:12Z</time>
      </trkpt>
      <trkpt lat="44.0825" lon="5.97654">
        <ele>556</ele>
        <time>2023-11-17T20:04:15Z</time>
      </trkpt>
      <trkpt lat="44.08259" lon="5.97652">
        <ele>556</ele>
        <time>2023-11-17T20:04:17Z</time>
      </trkpt>
      <trkpt lat="44.08271" lon="5.97653">
        <ele>557</ele>
        <time>2023-11-17T20:04:20Z</time>
      </trkpt>
      <trkpt lat="44.08279" lon="5.9765">
        <ele>558</ele>
        <time>2023-11-17T20:04:22Z</time>
      </trkpt>
      <trkpt lat="44.08291" lon="5.9765">
        <ele>559</ele>
        <time>2023-11-17T20:04:24Z</time>
      </trkpt>
      <trkpt lat="44.08304" lon="5.97644">
        <ele>561</ele>
        <time>2023-11-17T20:04:28Z</time>
      </trkpt>
      <trkpt lat="44.08315" lon="5.97651">
        <ele>561</ele>
        <time>2023-11-17T20:04:31Z</time>
      </trkpt>
      <trkpt lat="44.08327" lon="5.97671">
        <ele>560</ele>
        <time>2023-11-17T20:04:35Z</time>
      </trkpt>
      <trkpt lat="44.08324" lon="5.97685">
        <ele>560</ele>
        <time>2023-11-17T20:04:37Z</time>
      </trkpt>
      <trkpt lat="44.08326" lon="5.97691">
        <ele>560</ele>
        <time>2023-11-17T20:04:38Z</time>
      </trkpt>
      <trkpt lat="44.08335" lon="5.97697">
        <ele>561</ele>
        <time>2023-11-17T20:04:41Z</time>
      </trkpt>
      <trkpt lat="44.08344" lon="5.97715">
        <ele>562</ele>
        <time>2023-11-17T20:04:44Z</time>
      </trkpt>
      <trkpt lat="44.08361" lon="5.97726">
        <ele>563</ele>
        <time>2023-11-17T20:04:49Z</time>
      </trkpt>
      <trkpt lat="44.08373" lon="5.9774">
        <ele>564</ele>
        <time>2023-11-17T20:04:52Z</time>
      </trkpt>
      <trkpt lat="44.08376" lon="5.97741">
        <ele>565</ele>
        <time>2023-11-17T20:04:53Z</time>
      </trkpt>
      <trkpt lat="44.08382" lon="5.97734">
        <ele>566</ele>
        <time>2023-11-17T20:04:55Z</time>
      </trkpt>
      <trkpt lat="44.0839" lon="5.97734">
        <ele>566</ele>
        <time>2023-11-17T20:04:57Z</time>
      </trkpt>
      <trkpt lat="44.08409" lon="5.97738">
        <ele>568</ele>
        <time>2023-11-17T20:05:01Z</time>
      </trkpt>
      <trkpt lat="44.08427" lon="5.97736">
        <ele>570</ele>
        <time>2023-11-17T20:05:06Z</time>
      </trkpt>
      <trkpt lat="44.08441" lon="5.97739">
        <ele>572</ele>
        <time>2023-11-17T20:05:09Z</time>
      </trkpt>
      <trkpt lat="44.08455" lon="5.97738">
        <ele>573</ele>
        <time>2023-11-17T20:05:12Z</time>
      </trkpt>
      <trkpt lat="44.08491" lon="5.97746">
        <ele>577</ele>
        <time>2023-11-17T20:05:21Z</time>
      </trkpt>
      <trkpt lat="44.08507" lon="5.97744">
        <ele>578</ele>
        <time>2023-11-17T20:05:24Z</time>
      </trkpt>
      <trkpt lat="44.08549" lon="5.97761">
        <ele>582</ele>
        <time>2023-11-17T20:05:35Z</time>
      </trkpt>
      <trkpt lat="44.0857" lon="5.97778">
        <ele>583</ele>
        <time>2023-11-17T20:05:40Z</time>
      </trkpt>
      <trkpt lat="44.08599" lon="5.97809">
        <ele>583</ele>
        <time>2023-11-17T20:05:49Z</time>
      </trkpt>
      <trkpt lat="44.08651" lon="5.979">
        <ele>580</ele>
        <time>2023-11-17T20:06:08Z</time>
      </trkpt>
      <trkpt lat="44.08652" lon="5.97903">
        <ele>580</ele>
        <time>2023-11-17T20:06:09Z</time>
      </trkpt>
      <trkpt lat="44.08617" lon="5.97895">
        <ele>581</ele>
        <time>2023-11-17T20:06:17Z</time>
      </trkpt>
      <trkpt lat="44.08602" lon="5.97895">
        <ele>581</ele>
        <time>2023-11-17T20:06:21Z</time>
      </trkpt>
      <trkpt lat="44.08595" lon="5.97899">
        <ele>582</ele>
        <time>2023-11-17T20:06:22Z</time>
      </trkpt>
      <trkpt lat="44.08584" lon="5.97913">
        <ele>582</ele>
        <time>2023-11-17T20:06:26Z</time>
      </trkpt>
      <trkpt lat="44.0855" lon="5.97932">
        <ele>582</ele>
        <time>2023-11-17T20:06:35Z</time>
      </trkpt>
      <trkpt lat="44.08499" lon="5.97926">
        <ele>581</ele>
        <time>2023-11-17T20:06:46Z</time>
      </trkpt>
      <trkpt lat="44.08489" lon="5.97927">
        <ele>581</ele>
        <time>2023-11-17T20:06:49Z</time>
      </trkpt>
      <trkpt lat="44.08474" lon="5.97933">
        <ele>582</ele>
        <time>2023-11-17T20:06:52Z</time>
      </trkpt>
      <trkpt lat="44.08465" lon="5.97933">
        <ele>582</ele>
        <time>2023-11-17T20:06:55Z</time>
      </trkpt>
      <trkpt lat="44.08452" lon="5.97927">
        <ele>581</ele>
        <time>2023-11-17T20:06:58Z</time>
      </trkpt>
      <trkpt lat="44.08437" lon="5.97933">
        <ele>581</ele>
        <time>2023-11-17T20:07:01Z</time>
      </trkpt>
      <trkpt lat="44.08427" lon="5.9794">
        <ele>582</ele>
        <time>2023-11-17T20:07:04Z</time>
      </trkpt>
      <trkpt lat="44.08381" lon="5.97932">
        <ele>581</ele>
        <time>2023-11-17T20:07:15Z</time>
      </trkpt>
      <trkpt lat="44.08362" lon="5.97938">
        <ele>582</ele>
        <time>2023-11-17T20:07:19Z</time>
      </trkpt>
      <trkpt lat="44.08355" lon="5.97943">
        <ele>583</ele>
        <time>2023-11-17T20:07:21Z</time>
      </trkpt>
      <trkpt lat="44.08356" lon="5.97956">
        <ele>585</ele>
        <time>2023-11-17T20:07:23Z</time>
      </trkpt>
      <trkpt lat="44.0836" lon="5.9796">
        <ele>586</ele>
        <time>2023-11-17T20:07:25Z</time>
      </trkpt>
      <trkpt lat="44.08375" lon="5.97966">
        <ele>587</ele>
        <time>2023-11-17T20:07:28Z</time>
      </trkpt>
      <trkpt lat="44.08382" lon="5.97978">
        <ele>588</ele>
        <time>2023-11-17T20:07:31Z</time>
      </trkpt>
      <trkpt lat="44.0838" lon="5.97984">
        <ele>589</ele>
        <time>2023-11-17T20:07:32Z</time>
      </trkpt>
      <trkpt lat="44.08365" lon="5.97991">
        <ele>591</ele>
        <time>2023-11-17T20:07:36Z</time>
      </trkpt>
      <trkpt lat="44.08355" lon="5.97993">
        <ele>591</ele>
        <time>2023-11-17T20:07:38Z</time>
      </trkpt>
      <trkpt lat="44.08354" lon="5.97998">
        <ele>592</ele>
        <time>2023-11-17T20:07:39Z</time>
      </trkpt>
      <trkpt lat="44.08337" lon="5.98008">
        <ele>594</ele>
        <time>2023-11-17T20:07:43Z</time>
      </trkpt>
      <trkpt lat="44.08317" lon="5.98009">
        <ele>593</ele>
        <time>2023-11-17T20:07:48Z</time>
      </trkpt>
      <trkpt lat="44.08294" lon="5.98014">
        <ele>593</ele>
        <time>2023-11-17T20:07:53Z</time>
      </trkpt>
      <trkpt lat="44.08273" lon="5.98039">
        <ele>594</ele>
        <time>2023-11-17T20:08:00Z</time>
      </trkpt>
      <trkpt lat="44.08253" lon="5.98043">
        <ele>593</ele>
        <time>2023-11-17T20:08:04Z</time>
      </trkpt>
      <trkpt lat="44.08247" lon="5.98048">
        <ele>593</ele>
        <time>2023-11-17T20:08:06Z</time>
      </trkpt>
      <trkpt lat="44.0824" lon="5.9805">
        <ele>593</ele>
        <time>2023-11-17T20:08:08Z</time>
      </trkpt>
      <trkpt lat="44.08234" lon="5.98057">
        <ele>593</ele>
        <time>2023-11-17T20:08:10Z</time>
      </trkpt>
      <trkpt lat="44.08233" lon="5.98054">
        <ele>592</ele>
        <time>2023-11-17T20:08:10Z</time>
      </trkpt>
      <trkpt lat="44.08243" lon="5.9805">
        <ele>593</ele>
        <time>2023-11-17T20:08:13Z</time>
      </trkpt>
      <trkpt lat="44.08249" lon="5.98055">
        <ele>594</ele>
        <time>2023-11-17T20:08:14Z</time>
      </trkpt>
      <trkpt lat="44.08288" lon="5.98068">
        <ele>598</ele>
        <time>2023-11-17T20:08:24Z</time>
      </trkpt>
      <trkpt lat="44.08313" lon="5.98065">
        <ele>600</ele>
        <time>2023-11-17T20:08:29Z</time>
      </trkpt>
      <trkpt lat="44.08349" lon="5.98078">
        <ele>603</ele>
        <time>2023-11-17T20:08:38Z</time>
      </trkpt>
      <trkpt lat="44.08365" lon="5.98079">
        <ele>604</ele>
        <time>2023-11-17T20:08:42Z</time>
      </trkpt>
      <trkpt lat="44.08386" lon="5.98075">
        <ele>603</ele>
        <time>2023-11-17T20:08:47Z</time>
      </trkpt>
      <trkpt lat="44.08394" lon="5.98079">
        <ele>604</ele>
        <time>2023-11-17T20:08:49Z</time>
      </trkpt>
      <trkpt lat="44.08404" lon="5.9808">
        <ele>604</ele>
        <time>2023-11-17T20:08:51Z</time>
      </trkpt>
      <trkpt lat="44.08421" lon="5.98091">
        <ele>604</ele>
        <time>2023-11-17T20:08:56Z</time>
      </trkpt>
      <trkpt lat="44.08448" lon="5.98094">
        <ele>605</ele>
        <time>2023-11-17T20:09:02Z</time>
      </trkpt>
      <trkpt lat="44.08456" lon="5.98098">
        <ele>605</ele>
        <time>2023-11-17T20:09:04Z</time>
      </trkpt>
      <trkpt lat="44.0847" lon="5.981">
        <ele>605</ele>
        <time>2023-11-17T20:09:07Z</time>
      </trkpt>
      <trkpt lat="44.08482" lon="5.98107">
        <ele>605</ele>
        <time>2023-11-17T20:09:10Z</time>
      </trkpt>
      <trkpt lat="44.08493" lon="5.98109">
        <ele>605</ele>
        <time>2023-11-17T20:09:13Z</time>
      </trkpt>
      <trkpt lat="44.08506" lon="5.98115">
        <ele>605</ele>
        <time>2023-11-17T20:09:16Z</time>
      </trkpt>
      <trkpt lat="44.08514" lon="5.98112">
        <ele>605</ele>
        <time>2023-11-17T20:09:18Z</time>
      </trkpt>
      <trkpt lat="44.08519" lon="5.98113">
        <ele>605</ele>
        <time>2023-11-17T20:09:19Z</time>
      </trkpt>
      <trkpt lat="44.08538" lon="5.98122">
        <ele>604</ele>
        <time>2023-11-17T20:09:24Z</time>
      </trkpt>
      <trkpt lat="44.08548" lon="5.98132">
        <ele>604</ele>
        <time>2023-11-17T20:09:27Z</time>
      </trkpt>
      <trkpt lat="44.0856" lon="5.98132">
        <ele>604</ele>
        <time>2023-11-17T20:09:29Z</time>
      </trkpt>
      <trkpt lat="44.08571" lon="5.98137">
        <ele>603</ele>
        <time>2023-11-17T20:09:32Z</time>
      </trkpt>
      <trkpt lat="44.08581" lon="5.98156">
        <ele>604</ele>
        <time>2023-11-17T20:09:36Z</time>
      </trkpt>
      <trkpt lat="44.08595" lon="5.98173">
        <ele>602</ele>
        <time>2023-11-17T20:09:40Z</time>
      </trkpt>
      <trkpt lat="44.08612" lon="5.9818">
        <ele>600</ele>
        <time>2023-11-17T20:09:45Z</time>
      </trkpt>
      <trkpt lat="44.08655" lon="5.98205">
        <ele>596</ele>
        <time>2023-11-17T20:09:55Z</time>
      </trkpt>
      <trkpt lat="44.08679" lon="5.98207">
        <ele>594</ele>
        <time>2023-11-17T20:10:01Z</time>
      </trkpt>
      <trkpt lat="44.08729" lon="5.98247">
        <ele>586</ele>
        <time>2023-11-17T20:10:15Z</time>
      </trkpt>
      <trkpt lat="44.08745" lon="5.98257">
        <ele>583</ele>
        <time>2023-11-17T20:10:19Z</time>
      </trkpt>
      <trkpt lat="44.08749" lon="5.98257">
        <ele>583</ele>
        <time>2023-11-17T20:10:20Z</time>
      </trkpt>
      <trkpt lat="44.08754" lon="5.98252">
        <ele>583</ele>
        <time>2023-11-17T20:10:21Z</time>
      </trkpt>
      <trkpt lat="44.08759" lon="5.98229">
        <ele>582</ele>
        <time>2023-11-17T20:10:25Z</time>
      </trkpt>
      <trkpt lat="44.08748" lon="5.98214">
        <ele>585</ele>
        <time>2023-11-17T20:10:29Z</time>
      </trkpt>
      <trkpt lat="44.08746" lon="5.98205">
        <ele>586</ele>
        <time>2023-11-17T20:10:30Z</time>
      </trkpt>
      <trkpt lat="44.08748" lon="5.98183">
        <ele>586</ele>
        <time>2023-11-17T20:10:34Z</time>
      </trkpt>
      <trkpt lat="44.08751" lon="5.98175">
        <ele>585</ele>
        <time>2023-11-17T20:10:35Z</time>
      </trkpt>
      <trkpt lat="44.08742" lon="5.98139">
        <ele>584</ele>
        <time>2023-11-17T20:10:42Z</time>
      </trkpt>
      <trkpt lat="44.08723" lon="5.98115">
        <ele>584</ele>
        <time>2023-11-17T20:10:48Z</time>
      </trkpt>
      <trkpt lat="44.08719" lon="5.98104">
        <ele>583</ele>
        <time>2023-11-17T20:10:50Z</time>
      </trkpt>
      <trkpt lat="44.08699" lon="5.98074">
        <ele>582</ele>
        <time>2023-11-17T20:10:57Z</time>
      </trkpt>
      <trkpt lat="44.08692" lon="5.98059">
        <ele>582</ele>
        <time>2023-11-17T20:11:00Z</time>
      </trkpt>
      <trkpt lat="44.08685" lon="5.98034">
        <ele>581</ele>
        <time>2023-11-17T20:11:04Z</time>
      </trkpt>
      <trkpt lat="44.08706" lon="5.98017">
        <ele>577</ele>
        <time>2023-11-17T20:11:10Z</time>
      </trkpt>
      <trkpt lat="44.08712" lon="5.98002">
        <ele>575</ele>
        <time>2023-11-17T20:11:13Z</time>
      </trkpt>
      <trkpt lat="44.08722" lon="5.97992">
        <ele>574</ele>
        <time>2023-11-17T20:11:16Z</time>
      </trkpt>
      <trkpt lat="44.08726" lon="5.97981">
        <ele>574</ele>
        <time>2023-11-17T20:11:18Z</time>
      </trkpt>
      <trkpt lat="44.08724" lon="5.97958">
        <ele>575</ele>
        <time>2023-11-17T20:11:22Z</time>
      </trkpt>
      <trkpt lat="44.08726" lon="5.97953">
        <ele>575</ele>
        <time>2023-11-17T20:11:23Z</time>
      </trkpt>
      <trkpt lat="44.08732" lon="5.97955">
        <ele>575</ele>
        <time>2023-11-17T20:11:24Z</time>
      </trkpt>
      <trkpt lat="44.08753" lon="5.97971">
        <ele>572</ele>
        <time>2023-11-17T20:11:30Z</time>
      </trkpt>
      <trkpt lat="44.08772" lon="5.97971">
        <ele>571</ele>
        <time>2023-11-17T20:11:34Z</time>
      </trkpt>
      <trkpt lat="44.08779" lon="5.97974">
        <ele>571</ele>
        <time>2023-11-17T20:11:36Z</time>
      </trkpt>
      <trkpt lat="44.08811" lon="5.98005">
        <ele>567</ele>
        <time>2023-11-17T20:11:45Z</time>
      </trkpt>
      <trkpt lat="44.08826" lon="5.98022">
        <ele>565</ele>
        <time>2023-11-17T20:11:49Z</time>
      </trkpt>
      <trkpt lat="44.08846" lon="5.98062">
        <ele>562</ele>
        <time>2023-11-17T20:11:58Z</time>
      </trkpt>
      <trkpt lat="44.0886" lon="5.98082">
        <ele>561</ele>
        <time>2023-11-17T20:12:02Z</time>
      </trkpt>
      <trkpt lat="44.08865" lon="5.98101">
        <ele>560</ele>
        <time>2023-11-17T20:12:06Z</time>
      </trkpt>
      <trkpt lat="44.08867" lon="5.98121">
        <ele>559</ele>
        <time>2023-11-17T20:12:09Z</time>
      </trkpt>
      <trkpt lat="44.08884" lon="5.98156">
        <ele>556</ele>
        <time>2023-11-17T20:12:16Z</time>
      </trkpt>
      <trkpt lat="44.08887" lon="5.98167">
        <ele>555</ele>
        <time>2023-11-17T20:12:18Z</time>
      </trkpt>
      <trkpt lat="44.08894" lon="5.98202">
        <ele>553</ele>
        <time>2023-11-17T20:12:24Z</time>
      </trkpt>
      <trkpt lat="44.08893" lon="5.98241">
        <ele>551</ele>
        <time>2023-11-17T20:12:31Z</time>
      </trkpt>
      <trkpt lat="44.08896" lon="5.98273">
        <ele>549</ele>
        <time>2023-11-17T20:12:36Z</time>
      </trkpt>
      <trkpt lat="44.0889" lon="5.98323">
        <ele>550</ele>
        <time>2023-11-17T20:12:45Z</time>
      </trkpt>
      <trkpt lat="44.089" lon="5.98361">
        <ele>548</ele>
        <time>2023-11-17T20:12:51Z</time>
      </trkpt>
      <trkpt lat="44.08909" lon="5.98384">
        <ele>548</ele>
        <time>2023-11-17T20:12:56Z</time>
      </trkpt>
      <trkpt lat="44.0891" lon="5.98394">
        <ele>548</ele>
        <time>2023-11-17T20:12:58Z</time>
      </trkpt>
      <trkpt lat="44.08908" lon="5.98413">
        <ele>548</ele>
        <time>2023-11-17T20:13:01Z</time>
      </trkpt>
      <trkpt lat="44.08901" lon="5.98442">
        <ele>550</ele>
        <time>2023-11-17T20:13:06Z</time>
      </trkpt>
      <trkpt lat="44.089" lon="5.98467">
        <ele>551</ele>
        <time>2023-11-17T20:13:10Z</time>
      </trkpt>
      <trkpt lat="44.08878" lon="5.98506">
        <ele>549</ele>
        <time>2023-11-17T20:13:18Z</time>
      </trkpt>
      <trkpt lat="44.08869" lon="5.98533">
        <ele>550</ele>
        <time>2023-11-17T20:13:23Z</time>
      </trkpt>
      <trkpt lat="44.08857" lon="5.98559">
        <ele>551</ele>
        <time>2023-11-17T20:13:29Z</time>
      </trkpt>
      <trkpt lat="44.08834" lon="5.98595">
        <ele>549</ele>
        <time>2023-11-17T20:13:37Z</time>
      </trkpt>
      <trkpt lat="44.08807" lon="5.98653">
        <ele>546</ele>
        <time>2023-11-17T20:13:48Z</time>
      </trkpt>
      <trkpt lat="44.08805" lon="5.98661">
        <ele>546</ele>
        <time>2023-11-17T20:13:50Z</time>
      </trkpt>
      <trkpt lat="44.08807" lon="5.9867">
        <ele>547</ele>
        <time>2023-11-17T20:13:51Z</time>
      </trkpt>
      <trkpt lat="44.08812" lon="5.98678">
        <ele>546</ele>
        <time>2023-11-17T20:13:53Z</time>
      </trkpt>
      <trkpt lat="44.08822" lon="5.98687">
        <ele>547</ele>
        <time>2023-11-17T20:13:56Z</time>
      </trkpt>
      <trkpt lat="44.08917" lon="5.98749">
        <ele>552</ele>
        <time>2023-11-17T20:14:20Z</time>
      </trkpt>
      <trkpt lat="44.0893" lon="5.9876">
        <ele>552</ele>
        <time>2023-11-17T20:14:24Z</time>
      </trkpt>
      <trkpt lat="44.08965" lon="5.98798">
        <ele>549</ele>
        <time>2023-11-17T20:14:34Z</time>
      </trkpt>
      <trkpt lat="44.0901" lon="5.9886">
        <ele>542</ele>
        <time>2023-11-17T20:14:49Z</time>
      </trkpt>
      <trkpt lat="44.09027" lon="5.98876">
        <ele>541</ele>
        <time>2023-11-17T20:14:54Z</time>
      </trkpt>
      <trkpt lat="44.0906" lon="5.98895">
        <ele>540</ele>
        <time>2023-11-17T20:15:02Z</time>
      </trkpt>
      <trkpt lat="44.09149" lon="5.98933">
        <ele>539</ele>
        <time>2023-11-17T20:15:24Z</time>
      </trkpt>
      <trkpt lat="44.09171" lon="5.98938">
        <ele>540</ele>
        <time>2023-11-17T20:15:29Z</time>
      </trkpt>
      <trkpt lat="44.09186" lon="5.98936">
        <ele>540</ele>
        <time>2023-11-17T20:15:33Z</time>
      </trkpt>
      <trkpt lat="44.09205" lon="5.98926">
        <ele>540</ele>
        <time>2023-11-17T20:15:37Z</time>
      </trkpt>
      <trkpt lat="44.09236" lon="5.98901">
        <ele>543</ele>
        <time>2023-11-17T20:15:46Z</time>
      </trkpt>
      <trkpt lat="44.09246" lon="5.98898">
        <ele>543</ele>
        <time>2023-11-17T20:15:48Z</time>
      </trkpt>
      <trkpt lat="44.09266" lon="5.98903">
        <ele>543</ele>
        <time>2023-11-17T20:15:53Z</time>
      </trkpt>
      <trkpt lat="44.09275" lon="5.989">
        <ele>544</ele>
        <time>2023-11-17T20:15:55Z</time>
      </trkpt>
      <trkpt lat="44.09279" lon="5.98894">
        <ele>545</ele>
        <time>2023-11-17T20:15:56Z</time>
      </trkpt>
      <trkpt lat="44.09281" lon="5.98859">
        <ele>549</ele>
        <time>2023-11-17T20:16:02Z</time>
      </trkpt>
      <trkpt lat="44.0929" lon="5.98821">
        <ele>553</ele>
        <time>2023-11-17T20:16:09Z</time>
      </trkpt>
      <trkpt lat="44.09289" lon="5.98805">
        <ele>554</ele>
        <time>2023-11-17T20:16:12Z</time>
      </trkpt>
      <trkpt lat="44.09294" lon="5.98777">
        <ele>557</ele>
        <time>2023-11-17T20:16:17Z</time>
      </trkpt>
      <trkpt lat="44.09309" lon="5.98756">
        <ele>557</ele>
        <time>2023-11-17T20:16:21Z</time>
      </trkpt>
      <trkpt lat="44.09318" lon="5.98736">
        <ele>558</ele>
        <time>2023-11-17T20:16:25Z</time>
      </trkpt>
      <trkpt lat="44.09323" lon="5.98707">
        <ele>560</ele>
        <time>2023-11-17T20:16:30Z</time>
      </trkpt>
      <trkpt lat="44.09336" lon="5.98668">
        <ele>561</ele>
        <time>2023-11-17T20:16:38Z</time>
      </trkpt>
      <trkpt lat="44.0935" lon="5.98643">
        <ele>565</ele>
        <time>2023-11-17T20:16:43Z</time>
      </trkpt>
      <trkpt lat="44.09368" lon="5.98625">
        <ele>567</ele>
        <time>2023-11-17T20:16:48Z</time>
      </trkpt>
      <trkpt lat="44.09382" lon="5.98589">
        <ele>569</ele>
        <time>2023-11-17T20:16:55Z</time>
      </trkpt>
      <trkpt lat="44.09392" lon="5.98573">
        <ele>570</ele>
        <time>2023-11-17T20:16:59Z</time>
      </trkpt>
      <trkpt lat="44.09396" lon="5.98554">
        <ele>572</ele>
        <time>2023-11-17T20:17:02Z</time>
      </trkpt>
      <trkpt lat="44.0941" lon="5.98526">
        <ele>572</ele>
        <time>2023-11-17T20:17:08Z</time>
      </trkpt>
      <trkpt lat="44.09416" lon="5.98474">
        <ele>575</ele>
        <time>2023-11-17T20:17:16Z</time>
      </trkpt>
      <trkpt lat="44.09414" lon="5.98453">
        <ele>576</ele>
        <time>2023-11-17T20:17:20Z</time>
      </trkpt>
      <trkpt lat="44.09418" lon="5.98434">
        <ele>577</ele>
        <time>2023-11-17T20:17:23Z</time>
      </trkpt>
      <trkpt lat="44.09418" lon="5.98422">
        <ele>578</ele>
        <time>2023-11-17T20:17:25Z</time>
      </trkpt>
      <trkpt lat="44.09412" lon="5.98407">
        <ele>579</ele>
        <time>2023-11-17T20:17:28Z</time>
      </trkpt>
      <trkpt lat="44.09412" lon="5.98393">
        <ele>579</ele>
        <time>2023-11-17T20:17:31Z</time>
      </trkpt>
      <trkpt lat="44.09416" lon="5.98386">
        <ele>579</ele>
        <time>2023-11-17T20:17:32Z</time>
      </trkpt>
      <trkpt lat="44.09421" lon="5.98386">
        <ele>579</ele>
        <time>2023-11-17T20:17:33Z</time>
      </trkpt>
      <trkpt lat="44.09427" lon="5.98393">
        <ele>579</ele>
        <time>2023-11-17T20:17:35Z</time>
      </trkpt>
      <trkpt lat="44.09434" lon="5.98394">
        <ele>579</ele>
        <time>2023-11-17T20:17:37Z</time>
      </trkpt>
      <trkpt lat="44.09438" lon="5.98401">
        <ele>579</ele>
        <time>2023-11-17T20:17:38Z</time>
      </trkpt>
      <trkpt lat="44.09439" lon="5.98406">
        <ele>579</ele>
        <time>2023-11-17T20:17:39Z</time>
      </trkpt>
      <trkpt lat="44.09436" lon="5.98417">
        <ele>578</ele>
        <time>2023-11-17T20:17:41Z</time>
      </trkpt>
      <trkpt lat="44.09441" lon="5.9843">
        <ele>578</ele>
        <time>2023-11-17T20:17:44Z</time>
      </trkpt>
      <trkpt lat="44.09441" lon="5.98462">
        <ele>576</ele>
        <time>2023-11-17T20:17:49Z</time>
      </trkpt>
      <trkpt lat="44.09442" lon="5.98467">
        <ele>576</ele>
        <time>2023-11-17T20:17:50Z</time>
      </trkpt>
      <trkpt lat="44.09449" lon="5.98474">
        <ele>576</ele>
        <time>2023-11-17T20:17:52Z</time>
      </trkpt>
      <trkpt lat="44.09466" lon="5.98445">
        <ele>578</ele>
        <time>2023-11-17T20:17:58Z</time>
      </trkpt>
      <trkpt lat="44.09475" lon="5.98435">
        <ele>578</ele>
        <time>2023-11-17T20:18:01Z</time>
      </trkpt>
      <trkpt lat="44.09479" lon="5.98415">
        <ele>579</ele>
        <time>2023-11-17T20:18:04Z</time>
      </trkpt>
      <trkpt lat="44.09496" lon="5.98401">
        <ele>579</ele>
        <time>2023-11-17T20:18:09Z</time>
      </trkpt>
      <trkpt lat="44.09503" lon="5.98387">
        <ele>580</ele>
        <time>2023-11-17T20:18:12Z</time>
      </trkpt>
      <trkpt lat="44.09508" lon="5.98386">
        <ele>580</ele>
        <time>2023-11-17T20:18:13Z</time>
      </trkpt>
      <trkpt lat="44.09533" lon="5.98392">
        <ele>580</ele>
        <time>2023-11-17T20:18:19Z</time>
      </trkpt>
      <trkpt lat="44.09539" lon="5.98399">
        <ele>580</ele>
        <time>2023-11-17T20:18:21Z</time>
      </trkpt>
      <trkpt lat="44.09543" lon="5.98424">
        <ele>579</ele>
        <time>2023-11-17T20:18:25Z</time>
      </trkpt>
      <trkpt lat="44.09549" lon="5.98416">
        <ele>580</ele>
        <time>2023-11-17T20:18:27Z</time>
      </trkpt>
      <trkpt lat="44.09546" lon="5.98405">
        <ele>580</ele>
        <time>2023-11-17T20:18:29Z</time>
      </trkpt>
      <trkpt lat="44.09528" lon="5.98392">
        <ele>580</ele>
        <time>2023-11-17T20:18:34Z</time>
      </trkpt>
      <trkpt lat="44.09528" lon="5.98373">
        <ele>581</ele>
        <time>2023-11-17T20:18:37Z</time>
      </trkpt>
      <trkpt lat="44.09535" lon="5.98362">
        <ele>582</ele>
        <time>2023-11-17T20:18:39Z</time>
      </trkpt>
      <trkpt lat="44.09548" lon="5.9835">
        <ele>583</ele>
        <time>2023-11-17T20:18:43Z</time>
      </trkpt>
      <trkpt lat="44.09556" lon="5.98339">
        <ele>583</ele>
        <time>2023-11-17T20:18:45Z</time>
      </trkpt>
      <trkpt lat="44.09569" lon="5.9833">
        <ele>584</ele>
        <time>2023-11-17T20:18:49Z</time>
      </trkpt>
      <trkpt lat="44.0958" lon="5.98338">
        <ele>585</ele>
        <time>2023-11-17T20:18:52Z</time>
      </trkpt>
      <trkpt lat="44.09592" lon="5.98336">
        <ele>585</ele>
        <time>2023-11-17T20:18:55Z</time>
      </trkpt>
      <trkpt lat="44.09601" lon="5.98339">
        <ele>585</ele>
        <time>2023-11-17T20:18:57Z</time>
      </trkpt>
      <trkpt lat="44.09606" lon="5.98338">
        <ele>585</ele>
        <time>2023-11-17T20:18:58Z</time>
      </trkpt>
      <trkpt lat="44.09617" lon="5.98326">
        <ele>586</ele>
        <time>2023-11-17T20:19:01Z</time>
      </trkpt>
      <trkpt lat="44.09622" lon="5.98326">
        <ele>586</ele>
        <time>2023-11-17T20:19:02Z</time>
      </trkpt>
      <trkpt lat="44.09625" lon="5.98327">
        <ele>586</ele>
        <time>2023-11-17T20:19:03Z</time>
      </trkpt>
      <trkpt lat="44.09632" lon="5.98337">
        <ele>585</ele>
        <time>2023-11-17T20:19:05Z</time>
      </trkpt>
      <trkpt lat="44.09644" lon="5.98344">
        <ele>585</ele>
        <time>2023-11-17T20:19:08Z</time>
      </trkpt>
      <trkpt lat="44.09653" lon="5.98345">
        <ele>585</ele>
        <time>2023-11-17T20:19:11Z</time>
      </trkpt>
      <trkpt lat="44.09659" lon="5.98339">
        <ele>585</ele>
        <time>2023-11-17T20:19:12Z</time>
      </trkpt>
      <trkpt lat="44.09667" lon="5.98343">
        <ele>585</ele>
        <time>2023-11-17T20:19:14Z</time>
      </trkpt>
      <trkpt lat="44.09681" lon="5.98338">
        <ele>586</ele>
        <time>2023-11-17T20:19:18Z</time>
      </trkpt>
      <trkpt lat="44.0969" lon="5.98339">
        <ele>586</ele>
        <time>2023-11-17T20:19:20Z</time>
      </trkpt>
      <trkpt lat="44.097" lon="5.98328">
        <ele>588</ele>
        <time>2023-11-17T20:19:23Z</time>
      </trkpt>
      <trkpt lat="44.09711" lon="5.98324">
        <ele>589</ele>
        <time>2023-11-17T20:19:25Z</time>
      </trkpt>
      <trkpt lat="44.09721" lon="5.98309">
        <ele>590</ele>
        <time>2023-11-17T20:19:29Z</time>
      </trkpt>
      <trkpt lat="44.09734" lon="5.98307">
        <ele>591</ele>
        <time>2023-11-17T20:19:32Z</time>
      </trkpt>
      <trkpt lat="44.09742" lon="5.9831">
        <ele>591</ele>
        <time>2023-11-17T20:19:34Z</time>
      </trkpt>
      <trkpt lat="44.09751" lon="5.98308">
        <ele>592</ele>
        <time>2023-11-17T20:19:36Z</time>
      </trkpt>
      <trkpt lat="44.09757" lon="5.983">
        <ele>593</ele>
        <time>2023-11-17T20:19:38Z</time>
      </trkpt>
      <trkpt lat="44.09771" lon="5.98303">
        <ele>593</ele>
        <time>2023-11-17T20:19:41Z</time>
      </trkpt>
      <trkpt lat="44.09791" lon="5.98295">
        <ele>594</ele>
        <time>2023-11-17T20:19:46Z</time>
      </trkpt>
      <trkpt lat="44.09805" lon="5.98309">
        <ele>593</ele>
        <time>2023-11-17T20:19:50Z</time>
      </trkpt>
      <trkpt lat="44.09821" lon="5.98304">
        <ele>594</ele>
        <time>2023-11-17T20:19:54Z</time>
      </trkpt>
      <trkpt lat="44.09825" lon="5.98305">
        <ele>594</ele>
        <time>2023-11-17T20:19:55Z</time>
      </trkpt>
      <trkpt lat="44.09834" lon="5.98328">
        <ele>592</ele>
        <time>2023-11-17T20:19:59Z</time>
      </trkpt>
      <trkpt lat="44.09845" lon="5.98338">
        <ele>592</ele>
        <time>2023-11-17T20:20:02Z</time>
      </trkpt>
      <trkpt lat="44.09907" lon="5.98311">
        <ele>598</ele>
        <time>2023-11-17T20:20:17Z</time>
      </trkpt>
      <trkpt lat="44.09948" lon="5.98301">
        <ele>601</ele>
        <time>2023-11-17T20:20:27Z</time>
      </trkpt>
      <trkpt lat="44.09971" lon="5.98288">
        <ele>604</ele>
        <time>2023-11-17T20:20:33Z</time>
      </trkpt>
      <trkpt lat="44.09986" lon="5.98284">
        <ele>605</ele>
        <time>2023-11-17T20:20:37Z</time>
      </trkpt>
      <trkpt lat="44.1001" lon="5.98269">
        <ele>607</ele>
        <time>2023-11-17T20:20:43Z</time>
      </trkpt>
      <trkpt lat="44.10024" lon="5.98272">
        <ele>607</ele>
        <time>2023-11-17T20:20:46Z</time>
      </trkpt>
      <trkpt lat="44.10039" lon="5.98282">
        <ele>607</ele>
        <time>2023-11-17T20:20:50Z</time>
      </trkpt>
      <trkpt lat="44.10046" lon="5.98284">
        <ele>607</ele>
        <time>2023-11-17T20:20:52Z</time>
      </trkpt>
      <trkpt lat="44.10066" lon="5.98282">
        <ele>607</ele>
        <time>2023-11-17T20:20:56Z</time>
      </trkpt>
      <trkpt lat="44.10081" lon="5.98276">
        <ele>608</ele>
        <time>2023-11-17T20:21:00Z</time>
      </trkpt>
      <trkpt lat="44.10098" lon="5.98274">
        <ele>609</ele>
        <time>2023-11-17T20:21:04Z</time>
      </trkpt>
      <trkpt lat="44.10111" lon="5.98268">
        <ele>610</ele>
        <time>2023-11-17T20:21:07Z</time>
      </trkpt>
      <trkpt lat="44.10119" lon="5.9826">
        <ele>611</ele>
        <time>2023-11-17T20:21:09Z</time>
      </trkpt>
      <trkpt lat="44.10136" lon="5.98221">
        <ele>615</ele>
        <time>2023-11-17T20:21:17Z</time>
      </trkpt>
      <trkpt lat="44.10145" lon="5.98211">
        <ele>617</ele>
        <time>2023-11-17T20:21:20Z</time>
      </trkpt>
      <trkpt lat="44.10158" lon="5.98199">
        <ele>618</ele>
        <time>2023-11-17T20:21:23Z</time>
      </trkpt>
      <trkpt lat="44.10189" lon="5.98177">
        <ele>621</ele>
        <time>2023-11-17T20:21:31Z</time>
      </trkpt>
      <trkpt lat="44.10203" lon="5.98158">
        <ele>623</ele>
        <time>2023-11-17T20:21:36Z</time>
      </trkpt>
      <trkpt lat="44.10211" lon="5.98154">
        <ele>623</ele>
        <time>2023-11-17T20:21:38Z</time>
      </trkpt>
      <trkpt lat="44.10215" lon="5.98155">
        <ele>624</ele>
        <time>2023-11-17T20:21:39Z</time>
      </trkpt>
      <trkpt lat="44.10219" lon="5.98166">
        <ele>623</ele>
        <time>2023-11-17T20:21:41Z</time>
      </trkpt>
      <trkpt lat="44.10214" lon="5.98266">
        <ele>618</ele>
        <time>2023-11-17T20:21:58Z</time>
      </trkpt>
      <trkpt lat="44.1022" lon="5.98294">
        <ele>619</ele>
        <time>2023-11-17T20:22:03Z</time>
      </trkpt>
      <trkpt lat="44.10219" lon="5.98302">
        <ele>619</ele>
        <time>2023-11-17T20:22:04Z</time>
      </trkpt>
      <trkpt lat="44.10212" lon="5.98335">
        <ele>618</ele>
        <time>2023-11-17T20:22:10Z</time>
      </trkpt>
      <trkpt lat="44.10208" lon="5.98344">
        <ele>618</ele>
        <time>2023-11-17T20:22:12Z</time>
      </trkpt>
      <trkpt lat="44.10192" lon="5.9833">
        <ele>616</ele>
        <time>2023-11-17T20:22:16Z</time>
      </trkpt>
      <trkpt lat="44.10186" lon="5.98335">
        <ele>615</ele>
        <time>2023-11-17T20:22:18Z</time>
      </trkpt>
      <trkpt lat="44.10175" lon="5.98336">
        <ele>614</ele>
        <time>2023-11-17T20:22:20Z</time>
      </trkpt>
      <trkpt lat="44.10172" lon="5.98339">
        <ele>614</ele>
        <time>2023-11-17T20:22:21Z</time>
      </trkpt>
      <trkpt lat="44.10173" lon="5.9836">
        <ele>615</ele>
        <time>2023-11-17T20:22:25Z</time>
      </trkpt>
      <trkpt lat="44.10183" lon="5.98366">
        <ele>616</ele>
        <time>2023-11-17T20:22:27Z</time>
      </trkpt>
      <trkpt lat="44.10184" lon="5.98369">
        <ele>616</ele>
        <time>2023-11-17T20:22:28Z</time>
      </trkpt>
      <trkpt lat="44.10181" lon="5.98387">
        <ele>617</ele>
        <time>2023-11-17T20:22:31Z</time>
      </trkpt>
      <trkpt lat="44.10164" lon="5.9842">
        <ele>616</ele>
        <time>2023-11-17T20:22:38Z</time>
      </trkpt>
      <trkpt lat="44.10152" lon="5.98424">
        <ele>614</ele>
        <time>2023-11-17T20:22:41Z</time>
      </trkpt>
      <trkpt lat="44.1014" lon="5.98441">
        <ele>614</ele>
        <time>2023-11-17T20:22:45Z</time>
      </trkpt>
      <trkpt lat="44.1013" lon="5.98445">
        <ele>613</ele>
        <time>2023-11-17T20:22:47Z</time>
      </trkpt>
      <trkpt lat="44.10124" lon="5.98443">
        <ele>612</ele>
        <time>2023-11-17T20:22:48Z</time>
      </trkpt>
      <trkpt lat="44.1012" lon="5.98434">
        <ele>610</ele>
        <time>2023-11-17T20:22:50Z</time>
      </trkpt>
      <trkpt lat="44.10112" lon="5.98433">
        <ele>609</ele>
        <time>2023-11-17T20:22:52Z</time>
      </trkpt>
      <trkpt lat="44.10097" lon="5.98438">
        <ele>607</ele>
        <time>2023-11-17T20:22:56Z</time>
      </trkpt>
      <trkpt lat="44.10086" lon="5.98437">
        <ele>605</ele>
        <time>2023-11-17T20:22:58Z</time>
      </trkpt>
      <trkpt lat="44.10066" lon="5.98429">
        <ele>602</ele>
        <time>2023-11-17T20:23:03Z</time>
      </trkpt>
      <trkpt lat="44.1004" lon="5.98437">
        <ele>600</ele>
        <time>2023-11-17T20:23:09Z</time>
      </trkpt>
      <trkpt lat="44.10023" lon="5.98448">
        <ele>599</ele>
        <time>2023-11-17T20:23:14Z</time>
      </trkpt>
      <trkpt lat="44.10005" lon="5.98471">
        <ele>599</ele>
        <time>2023-11-17T20:23:19Z</time>
      </trkpt>
      <trkpt lat="44.09994" lon="5.98474">
        <ele>598</ele>
        <time>2023-11-17T20:23:22Z</time>
      </trkpt>
      <trkpt lat="44.09975" lon="5.98485">
        <ele>597</ele>
        <time>2023-11-17T20:23:27Z</time>
      </trkpt>
      <trkpt lat="44.09949" lon="5.98506">
        <ele>595</ele>
        <time>2023-11-17T20:23:34Z</time>
      </trkpt>
      <trkpt lat="44.09931" lon="5.98514">
        <ele>594</ele>
        <time>2023-11-17T20:23:38Z</time>
      </trkpt>
      <trkpt lat="44.09906" lon="5.98513">
        <ele>592</ele>
        <time>2023-11-17T20:23:44Z</time>
      </trkpt>
      <trkpt lat="44.09894" lon="5.9853">
        <ele>593</ele>
        <time>2023-11-17T20:23:48Z</time>
      </trkpt>
      <trkpt lat="44.09879" lon="5.98535">
        <ele>592</ele>
        <time>2023-11-17T20:23:52Z</time>
      </trkpt>
      <trkpt lat="44.09855" lon="5.98529">
        <ele>589</ele>
        <time>2023-11-17T20:23:57Z</time>
      </trkpt>
      <trkpt lat="44.09845" lon="5.98535">
        <ele>589</ele>
        <time>2023-11-17T20:24:00Z</time>
      </trkpt>
      <trkpt lat="44.09816" lon="5.98529">
        <ele>586</ele>
        <time>2023-11-17T20:24:07Z</time>
      </trkpt>
      <trkpt lat="44.09798" lon="5.98533">
        <ele>586</ele>
        <time>2023-11-17T20:24:11Z</time>
      </trkpt>
      <trkpt lat="44.09764" lon="5.98508">
        <ele>581</ele>
        <time>2023-11-17T20:24:20Z</time>
      </trkpt>
      <trkpt lat="44.09737" lon="5.98523">
        <ele>580</ele>
        <time>2023-11-17T20:24:27Z</time>
      </trkpt>
      <trkpt lat="44.09729" lon="5.9853">
        <ele>580</ele>
        <time>2023-11-17T20:24:29Z</time>
      </trkpt>
      <trkpt lat="44.09721" lon="5.98531">
        <ele>579</ele>
        <time>2023-11-17T20:24:31Z</time>
      </trkpt>
      <trkpt lat="44.09693" lon="5.98549">
        <ele>577</ele>
        <time>2023-11-17T20:24:38Z</time>
      </trkpt>
      <trkpt lat="44.09683" lon="5.98559">
        <ele>577</ele>
        <time>2023-11-17T20:24:41Z</time>
      </trkpt>
      <trkpt lat="44.09655" lon="5.98568">
        <ele>575</ele>
        <time>2023-11-17T20:24:48Z</time>
      </trkpt>
      <trkpt lat="44.09632" lon="5.98568">
        <ele>573</ele>
        <time>2023-11-17T20:24:53Z</time>
      </trkpt>
      <trkpt lat="44.09625" lon="5.98573">
        <ele>573</ele>
        <time>2023-11-17T20:24:55Z</time>
      </trkpt>
      <trkpt lat="44.09608" lon="5.9861">
        <ele>574</ele>
        <time>2023-11-17T20:25:02Z</time>
      </trkpt>
      <trkpt lat="44.09597" lon="5.98625">
        <ele>574</ele>
        <time>2023-11-17T20:25:06Z</time>
      </trkpt>
      <trkpt lat="44.0958" lon="5.98644">
        <ele>574</ele>
        <time>2023-11-17T20:25:11Z</time>
      </trkpt>
      <trkpt lat="44.0955" lon="5.98667">
        <ele>572</ele>
        <time>2023-11-17T20:25:19Z</time>
      </trkpt>
      <trkpt lat="44.09536" lon="5.98682">
        <ele>572</ele>
        <time>2023-11-17T20:25:23Z</time>
      </trkpt>
      <trkpt lat="44.09519" lon="5.98719">
        <ele>569</ele>
        <time>2023-11-17T20:25:30Z</time>
      </trkpt>
      <trkpt lat="44.09497" lon="5.98793">
        <ele>565</ele>
        <time>2023-11-17T20:25:44Z</time>
      </trkpt>
      <trkpt lat="44.09478" lon="5.98826">
        <ele>564</ele>
        <time>2023-11-17T20:25:51Z</time>
      </trkpt>
      <trkpt lat="44.09448" lon="5.98854">
        <ele>559</ele>
        <time>2023-11-17T20:25:59Z</time>
      </trkpt>
      <trkpt lat="44.09444" lon="5.98861">
        <ele>558</ele>
        <time>2023-11-17T20:26:01Z</time>
      </trkpt>
      <trkpt lat="44.09461" lon="5.98893">
        <ele>561</ele>
        <time>2023-11-17T20:26:08Z</time>
      </trkpt>
      <trkpt lat="44.09471" lon="5.98922">
        <ele>562</ele>
        <time>2023-11-17T20:26:13Z</time>
      </trkpt>
      <trkpt lat="44.09474" lon="5.98925">
        <ele>562</ele>
        <time>2023-11-17T20:26:14Z</time>
      </trkpt>
      <trkpt lat="44.09499" lon="5.98936">
        <ele>565</ele>
        <time>2023-11-17T20:26:20Z</time>
      </trkpt>
      <trkpt lat="44.09538" lon="5.98937">
        <ele>568</ele>
        <time>2023-11-17T20:26:29Z</time>
      </trkpt>
      <trkpt lat="44.09547" lon="5.9894">
        <ele>569</ele>
        <time>2023-11-17T20:26:31Z</time>
      </trkpt>
      <trkpt lat="44.09557" lon="5.98939">
        <ele>570</ele>
        <time>2023-11-17T20:26:34Z</time>
      </trkpt>
      <trkpt lat="44.09564" lon="5.98944">
        <ele>570</ele>
        <time>2023-11-17T20:26:35Z</time>
      </trkpt>
      <trkpt lat="44.09571" lon="5.98945">
        <ele>570</ele>
        <time>2023-11-17T20:26:37Z</time>
      </trkpt>
      <trkpt lat="44.09574" lon="5.98949">
        <ele>570</ele>
        <time>2023-11-17T20:26:38Z</time>
      </trkpt>
      <trkpt lat="44.09569" lon="5.98985">
        <ele>565</ele>
        <time>2023-11-17T20:26:44Z</time>
      </trkpt>
      <trkpt lat="44.09559" lon="5.99007">
        <ele>562</ele>
        <time>2023-11-17T20:26:49Z</time>
      </trkpt>
      <trkpt lat="44.09561" lon="5.99017">
        <ele>561</ele>
        <time>2023-11-17T20:26:50Z</time>
      </trkpt>
      <trkpt lat="44.09558" lon="5.9903">
        <ele>560</ele>
        <time>2023-11-17T20:26:53Z</time>
      </trkpt>
      <trkpt lat="44.09558" lon="5.9907">
        <ele>555</ele>
        <time>2023-11-17T20:26:59Z</time>
      </trkpt>
      <trkpt lat="44.09549" lon="5.99084">
        <ele>554</ele>
        <time>2023-11-17T20:27:02Z</time>
      </trkpt>
      <trkpt lat="44.0954" lon="5.99093">
        <ele>554</ele>
        <time>2023-11-17T20:27:05Z</time>
      </trkpt>
      <trkpt lat="44.09529" lon="5.99098">
        <ele>554</ele>
        <time>2023-11-17T20:27:08Z</time>
      </trkpt>
      <trkpt lat="44.09508" lon="5.99121">
        <ele>553</ele>
        <time>2023-11-17T20:27:14Z</time>
      </trkpt>
      <trkpt lat="44.09496" lon="5.99138">
        <ele>551</ele>
        <time>2023-11-17T20:27:18Z</time>
      </trkpt>
      <trkpt lat="44.0945" lon="5.99182">
        <ele>546</ele>
        <time>2023-11-17T20:27:31Z</time>
      </trkpt>
      <trkpt lat="44.09411" lon="5.99179">
        <ele>546</ele>
        <time>2023-11-17T20:27:40Z</time>
      </trkpt>
      <trkpt lat="44.09387" lon="5.99172">
        <ele>545</ele>
        <time>2023-11-17T20:27:46Z</time>
      </trkpt>
      <trkpt lat="44.0933" lon="5.99142">
        <ele>540</ele>
        <time>2023-11-17T20:28:00Z</time>
      </trkpt>
      <trkpt lat="44.09323" lon="5.99136">
        <ele>540</ele>
        <time>2023-11-17T20:28:02Z</time>
      </trkpt>
      <trkpt lat="44.09314" lon="5.99122">
        <ele>540</ele>
        <time>2023-11-17T20:28:05Z</time>
      </trkpt>
      <trkpt lat="44.09295" lon="5.99106">
        <ele>539</ele>
        <time>2023-11-17T20:28:10Z</time>
      </trkpt>
      <trkpt lat="44.09274" lon="5.99061">
        <ele>537</ele>
        <time>2023-11-17T20:28:19Z</time>
      </trkpt>
      <trkpt lat="44.09266" lon="5.99054">
        <ele>536</ele>
        <time>2023-11-17T20:28:22Z</time>
      </trkpt>
      <trkpt lat="44.09264" lon="5.99061">
        <ele>536</ele>
        <time>2023-11-17T20:28:23Z</time>
      </trkpt>
      <trkpt lat="44.09266" lon="5.99092">
        <ele>535</ele>
        <time>2023-11-17T20:28:28Z</time>
      </trkpt>
      <trkpt lat="44.09264" lon="5.9922">
        <ele>535</ele>
        <time>2023-11-17T20:28:50Z</time>
      </trkpt>
      <trkpt lat="44.09267" lon="5.99276">
        <ele>537</ele>
        <time>2023-11-17T20:28:59Z</time>
      </trkpt>
      <trkpt lat="44.09264" lon="5.99283">
        <ele>537</ele>
        <time>2023-11-17T20:29:00Z</time>
      </trkpt>
      <trkpt lat="44.09253" lon="5.9929">
        <ele>539</ele>
        <time>2023-11-17T20:29:03Z</time>
      </trkpt>
      <trkpt lat="44.0924" lon="5.99293">
        <ele>539</ele>
        <time>2023-11-17T20:29:06Z</time>
      </trkpt>
      <trkpt lat="44.0923" lon="5.9929">
        <ele>539</ele>
        <time>2023-11-17T20:29:09Z</time>
      </trkpt>
      <trkpt lat="44.09194" lon="5.9926">
        <ele>538</ele>
        <time>2023-11-17T20:29:18Z</time>
      </trkpt>
      <trkpt lat="44.09179" lon="5.99251">
        <ele>537</ele>
        <time>2023-11-17T20:29:22Z</time>
      </trkpt>
      <trkpt lat="44.09162" lon="5.99245">
        <ele>537</ele>
        <time>2023-11-17T20:29:26Z</time>
      </trkpt>
      <trkpt lat="44.09127" lon="5.99235">
        <ele>536</ele>
        <time>2023-11-17T20:29:35Z</time>
      </trkpt>
      <trkpt lat="44.09075" lon="5.99234">
        <ele>535</ele>
        <time>2023-11-17T20:29:47Z</time>
      </trkpt>
      <trkpt lat="44.09026" lon="5.99237">
        <ele>533</ele>
        <time>2023-11-17T20:29:58Z</time>
      </trkpt>
      <trkpt lat="44.08981" lon="5.99247">
        <ele>532</ele>
        <time>2023-11-17T20:30:09Z</time>
      </trkpt>
      <trkpt lat="44.0891" lon="5.99249">
        <ele>529</ele>
        <time>2023-11-17T20:30:25Z</time>
      </trkpt>
      <trkpt lat="44.08871" lon="5.9926">
        <ele>529</ele>
        <time>2023-11-17T20:30:35Z</time>
      </trkpt>
      <trkpt lat="44.08782" lon="5.99296">
        <ele>532</ele>
        <time>2023-11-17T20:30:56Z</time>
      </trkpt>
      <trkpt lat="44.08775" lon="5.99297">
        <ele>532</ele>
        <time>2023-11-17T20:30:58Z</time>
      </trkpt>
      <trkpt lat="44.08772" lon="5.99295">
        <ele>532</ele>
        <time>2023-11-17T20:30:59Z</time>
      </trkpt>
      <trkpt lat="44.08769" lon="5.99286">
        <ele>531</ele>
        <time>2023-11-17T20:31:00Z</time>
      </trkpt>
      <trkpt lat="44.08766" lon="5.99258">
        <ele>529</ele>
        <time>2023-11-17T20:31:05Z</time>
      </trkpt>
      <trkpt lat="44.08769" lon="5.99236">
        <ele>527</ele>
        <time>2023-11-17T20:31:09Z</time>
      </trkpt>
      <trkpt lat="44.08781" lon="5.99226">
        <ele>525</ele>
        <time>2023-11-17T20:31:12Z</time>
      </trkpt>
      <trkpt lat="44.08785" lon="5.99217">
        <ele>524</ele>
        <time>2023-11-17T20:31:14Z</time>
      </trkpt>
      <trkpt lat="44.08789" lon="5.9919">
        <ele>521</ele>
        <time>2023-11-17T20:31:19Z</time>
      </trkpt>
      <trkpt lat="44.08786" lon="5.99162">
        <ele>517</ele>
        <time>2023-11-17T20:31:23Z</time>
      </trkpt>
      <trkpt lat="44.08788" lon="5.99138">
        <ele>515</ele>
        <time>2023-11-17T20:31:27Z</time>
      </trkpt>
      <trkpt lat="44.08801" lon="5.99118">
        <ele>513</ele>
        <time>2023-11-17T20:31:32Z</time>
      </trkpt>
      <trkpt lat="44.08806" lon="5.99117">
        <ele>513</ele>
        <time>2023-11-17T20:31:33Z</time>
      </trkpt>
      <trkpt lat="44.08815" lon="5.99121">
        <ele>513</ele>
        <time>2023-11-17T20:31:35Z</time>
      </trkpt>
      <trkpt lat="44.0882" lon="5.9912">
        <ele>513</ele>
        <time>2023-11-17T20:31:37Z</time>
      </trkpt>
      <trkpt lat="44.08842" lon="5.99094">
        <ele>511</ele>
        <time>2023-11-17T20:31:43Z</time>
      </trkpt>
      <trkpt lat="44.08845" lon="5.99085">
        <ele>511</ele>
        <time>2023-11-17T20:31:45Z</time>
      </trkpt>
      <trkpt lat="44.08832" lon="5.99081">
        <ele>510</ele>
        <time>2023-11-17T20:31:48Z</time>
      </trkpt>
      <trkpt lat="44.08827" lon="5.99072">
        <ele>511</ele>
        <time>2023-11-17T20:31:50Z</time>
      </trkpt>
      <trkpt lat="44.08815" lon="5.99068">
        <ele>511</ele>
        <time>2023-11-17T20:31:53Z</time>
      </trkpt>
      <trkpt lat="44.08802" lon="5.99068">
        <ele>510</ele>
        <time>2023-11-17T20:31:56Z</time>
      </trkpt>
      <trkpt lat="44.08786" lon="5.99073">
        <ele>510</ele>
        <time>2023-11-17T20:32:00Z</time>
      </trkpt>
      <trkpt lat="44.0876" lon="5.99076">
        <ele>509</ele>
        <time>2023-11-17T20:32:06Z</time>
      </trkpt>
      <trkpt lat="44.08735" lon="5.99085">
        <ele>507</ele>
        <time>2023-11-17T20:32:12Z</time>
      </trkpt>
      <trkpt lat="44.08703" lon="5.99087">
        <ele>506</ele>
        <time>2023-11-17T20:32:19Z</time>
      </trkpt>
      <trkpt lat="44.08684" lon="5.99083">
        <ele>505</ele>
        <time>2023-11-17T20:32:24Z</time>
      </trkpt>
      <trkpt lat="44.08671" lon="5.99068">
        <ele>505</ele>
        <time>2023-11-17T20:32:28Z</time>
      </trkpt>
      <trkpt lat="44.08658" lon="5.99065">
        <ele>505</ele>
        <time>2023-11-17T20:32:31Z</time>
      </trkpt>
      <trkpt lat="44.08643" lon="5.9908">
        <ele>503</ele>
        <time>2023-11-17T20:32:35Z</time>
      </trkpt>
      <trkpt lat="44.08627" lon="5.99079">
        <ele>503</ele>
        <time>2023-11-17T20:32:39Z</time>
      </trkpt>
      <trkpt lat="44.08616" lon="5.9909">
        <ele>503</ele>
        <time>2023-11-17T20:32:42Z</time>
      </trkpt>
      <trkpt lat="44.08603" lon="5.99096">
        <ele>503</ele>
        <time>2023-11-17T20:32:45Z</time>
      </trkpt>
      <trkpt lat="44.08589" lon="5.99108">
        <ele>504</ele>
        <time>2023-11-17T20:32:49Z</time>
      </trkpt>
      <trkpt lat="44.08561" lon="5.99114">
        <ele>504</ele>
        <time>2023-11-17T20:32:56Z</time>
      </trkpt>
      <trkpt lat="44.0855" lon="5.99119">
        <ele>504</ele>
        <time>2023-11-17T20:32:58Z</time>
      </trkpt>
      <trkpt lat="44.08527" lon="5.99117">
        <ele>503</ele>
        <time>2023-11-17T20:33:04Z</time>
      </trkpt>
      <trkpt lat="44.08506" lon="5.99111">
        <ele>502</ele>
        <time>2023-11-17T20:33:09Z</time>
      </trkpt>
      <trkpt lat="44.08472" lon="5.99106">
        <ele>499</ele>
        <time>2023-11-17T20:33:17Z</time>
      </trkpt>
      <trkpt lat="44.08439" lon="5.99115">
        <ele>497</ele>
        <time>2023-11-17T20:33:25Z</time>
      </trkpt>
      <trkpt lat="44.08431" lon="5.9911">
        <ele>496</ele>
        <time>2023-11-17T20:33:27Z</time>
      </trkpt>
      <trkpt lat="44.08417" lon="5.99093">
        <ele>494</ele>
        <time>2023-11-17T20:33:31Z</time>
      </trkpt>
      <trkpt lat="44.08395" lon="5.99087">
        <ele>494</ele>
        <time>2023-11-17T20:33:36Z</time>
      </trkpt>
      <trkpt lat="44.08388" lon="5.9908">
        <ele>494</ele>
        <time>2023-11-17T20:33:38Z</time>
      </trkpt>
      <trkpt lat="44.08381" lon="5.99057">
        <ele>496</ele>
        <time>2023-11-17T20:33:42Z</time>
      </trkpt>
      <trkpt lat="44.0838" lon="5.98987">
        <ele>501</ele>
        <time>2023-11-17T20:33:54Z</time>
      </trkpt>
      <trkpt lat="44.08381" lon="5.99011">
        <ele>499</ele>
        <time>2023-11-17T20:33:58Z</time>
      </trkpt>
      <trkpt lat="44.08377" lon="5.9904">
        <ele>497</ele>
        <time>2023-11-17T20:34:03Z</time>
      </trkpt>
      <trkpt lat="44.08366" lon="5.99052">
        <ele>496</ele>
        <time>2023-11-17T20:34:06Z</time>
      </trkpt>
      <trkpt lat="44.08363" lon="5.99052">
        <ele>497</ele>
        <time>2023-11-17T20:34:07Z</time>
      </trkpt>
      <trkpt lat="44.08366" lon="5.99038">
        <ele>498</ele>
        <time>2023-11-17T20:34:10Z</time>
      </trkpt>
      <trkpt lat="44.08364" lon="5.99006">
        <ele>500</ele>
        <time>2023-11-17T20:34:15Z</time>
      </trkpt>
      <trkpt lat="44.08352" lon="5.98972">
        <ele>504</ele>
        <time>2023-11-17T20:34:21Z</time>
      </trkpt>
      <trkpt lat="44.08352" lon="5.98958">
        <ele>506</ele>
        <time>2023-11-17T20:34:24Z</time>
      </trkpt>
      <trkpt lat="44.08344" lon="5.98935">
        <ele>508</ele>
        <time>2023-11-17T20:34:28Z</time>
      </trkpt>
      <trkpt lat="44.08344" lon="5.98918">
        <ele>509</ele>
        <time>2023-11-17T20:34:31Z</time>
      </trkpt>
      <trkpt lat="44.08328" lon="5.98891">
        <ele>512</ele>
        <time>2023-11-17T20:34:37Z</time>
      </trkpt>
      <trkpt lat="44.08322" lon="5.9886">
        <ele>513</ele>
        <time>2023-11-17T20:34:42Z</time>
      </trkpt>
      <trkpt lat="44.08323" lon="5.9884">
        <ele>513</ele>
        <time>2023-11-17T20:34:45Z</time>
      </trkpt>
      <trkpt lat="44.08319" lon="5.98835">
        <ele>514</ele>
        <time>2023-11-17T20:34:47Z</time>
      </trkpt>
      <trkpt lat="44.08309" lon="5.98832">
        <ele>514</ele>
        <time>2023-11-17T20:34:49Z</time>
      </trkpt>
      <trkpt lat="44.08301" lon="5.98818">
        <ele>515</ele>
        <time>2023-11-17T20:34:52Z</time>
      </trkpt>
      <trkpt lat="44.08299" lon="5.98808">
        <ele>516</ele>
        <time>2023-11-17T20:34:54Z</time>
      </trkpt>
      <trkpt lat="44.08305" lon="5.98789">
        <ele>516</ele>
        <time>2023-11-17T20:34:57Z</time>
      </trkpt>
      <trkpt lat="44.08289" lon="5.98779">
        <ele>517</ele>
        <time>2023-11-17T20:35:01Z</time>
      </trkpt>
      <trkpt lat="44.08281" lon="5.98767">
        <ele>518</ele>
        <time>2023-11-17T20:35:04Z</time>
      </trkpt>
      <trkpt lat="44.08284" lon="5.98727">
        <ele>520</ele>
        <time>2023-11-17T20:35:11Z</time>
      </trkpt>
      <trkpt lat="44.08273" lon="5.98722">
        <ele>521</ele>
        <time>2023-11-17T20:35:14Z</time>
      </trkpt>
      <trkpt lat="44.08265" lon="5.98704">
        <ele>522</ele>
        <time>2023-11-17T20:35:17Z</time>
      </trkpt>
      <trkpt lat="44.08277" lon="5.98679">
        <ele>524</ele>
        <time>2023-11-17T20:35:22Z</time>
      </trkpt>
      <trkpt lat="44.08272" lon="5.98646">
        <ele>526</ele>
        <time>2023-11-17T20:35:28Z</time>
      </trkpt>
      <trkpt lat="44.08278" lon="5.98617">
        <ele>528</ele>
        <time>2023-11-17T20:35:33Z</time>
      </trkpt>
      <trkpt lat="44.08285" lon="5.98612">
        <ele>528</ele>
        <time>2023-11-17T20:35:35Z</time>
      </trkpt>
      <trkpt lat="44.08295" lon="5.98617">
        <ele>527</ele>
        <time>2023-11-17T20:35:37Z</time>
      </trkpt>
      <trkpt lat="44.08298" lon="5.98617">
        <ele>527</ele>
        <time>2023-11-17T20:35:38Z</time>
      </trkpt>
      <trkpt lat="44.083" lon="5.98613">
        <ele>528</ele>
        <time>2023-11-17T20:35:39Z</time>
      </trkpt>
      <trkpt lat="44.08291" lon="5.98606">
        <ele>528</ele>
        <time>2023-11-17T20:35:41Z</time>
      </trkpt>
      <trkpt lat="44.08291" lon="5.98596">
        <ele>529</ele>
        <time>2023-11-17T20:35:43Z</time>
      </trkpt>
      <trkpt lat="44.08296" lon="5.98578">
        <ele>530</ele>
        <time>2023-11-17T20:35:46Z</time>
      </trkpt>
      <trkpt lat="44.08294" lon="5.9856">
        <ele>531</ele>
        <time>2023-11-17T20:35:49Z</time>
      </trkpt>
      <trkpt lat="44.08291" lon="5.98556">
        <ele>532</ele>
        <time>2023-11-17T20:35:50Z</time>
      </trkpt>
      <trkpt lat="44.08285" lon="5.98555">
        <ele>532</ele>
        <time>2023-11-17T20:35:52Z</time>
      </trkpt>
      <trkpt lat="44.08283" lon="5.98558">
        <ele>532</ele>
        <time>2023-11-17T20:35:52Z</time>
      </trkpt>
      <trkpt lat="44.08284" lon="5.98564">
        <ele>531</ele>
        <time>2023-11-17T20:35:53Z</time>
      </trkpt>
      <trkpt lat="44.08281" lon="5.98568">
        <ele>531</ele>
        <time>2023-11-17T20:35:54Z</time>
      </trkpt>
      <trkpt lat="44.08271" lon="5.98572">
        <ele>531</ele>
        <time>2023-11-17T20:35:57Z</time>
      </trkpt>
      <trkpt lat="44.08263" lon="5.98567">
        <ele>532</ele>
        <time>2023-11-17T20:35:59Z</time>
      </trkpt>
      <trkpt lat="44.08262" lon="5.98555">
        <ele>532</ele>
        <time>2023-11-17T20:36:01Z</time>
      </trkpt>
      <trkpt lat="44.08258" lon="5.98549">
        <ele>533</ele>
        <time>2023-11-17T20:36:02Z</time>
      </trkpt>
      <trkpt lat="44.08231" lon="5.98546">
        <ele>533</ele>
        <time>2023-11-17T20:36:08Z</time>
      </trkpt>
      <trkpt lat="44.08216" lon="5.98531">
        <ele>533</ele>
        <time>2023-11-17T20:36:13Z</time>
      </trkpt>
      <trkpt lat="44.08213" lon="5.98508">
        <ele>534</ele>
        <time>2023-11-17T20:36:17Z</time>
      </trkpt>
      <trkpt lat="44.08201" lon="5.9851">
        <ele>534</ele>
        <time>2023-11-17T20:36:19Z</time>
      </trkpt>
      <trkpt lat="44.08196" lon="5.98507">
        <ele>534</ele>
        <time>2023-11-17T20:36:21Z</time>
      </trkpt>
      <trkpt lat="44.08193" lon="5.985">
        <ele>534</ele>
        <time>2023-11-17T20:36:22Z</time>
      </trkpt>
      <trkpt lat="44.08194" lon="5.98489">
        <ele>535</ele>
        <time>2023-11-17T20:36:24Z</time>
      </trkpt>
      <trkpt lat="44.08192" lon="5.98485">
        <ele>535</ele>
        <time>2023-11-17T20:36:25Z</time>
      </trkpt>
      <trkpt lat="44.08181" lon="5.98501">
        <ele>533</ele>
        <time>2023-11-17T20:36:28Z</time>
      </trkpt>
      <trkpt lat="44.08175" lon="5.98506">
        <ele>533</ele>
        <time>2023-11-17T20:36:30Z</time>
      </trkpt>
      <trkpt lat="44.08168" lon="5.98505">
        <ele>533</ele>
        <time>2023-11-17T20:36:32Z</time>
      </trkpt>
      <trkpt lat="44.08144" lon="5.98493">
        <ele>534</ele>
        <time>2023-11-17T20:36:38Z</time>
      </trkpt>
      <trkpt lat="44.08132" lon="5.98483">
        <ele>535</ele>
        <time>2023-11-17T20:36:41Z</time>
      </trkpt>
      <trkpt lat="44.08114" lon="5.98474">
        <ele>535</ele>
        <time>2023-11-17T20:36:45Z</time>
      </trkpt>
      <trkpt lat="44.08089" lon="5.98484">
        <ele>535</ele>
        <time>2023-11-17T20:36:52Z</time>
      </trkpt>
      <trkpt lat="44.08079" lon="5.98481">
        <ele>536</ele>
        <time>2023-11-17T20:36:54Z</time>
      </trkpt>
      <trkpt lat="44.08065" lon="5.98481">
        <ele>536</ele>
        <time>2023-11-17T20:36:57Z</time>
      </trkpt>
      <trkpt lat="44.08047" lon="5.98472">
        <ele>538</ele>
        <time>2023-11-17T20:37:02Z</time>
      </trkpt>
      <trkpt lat="44.08009" lon="5.98474">
        <ele>540</ele>
        <time>2023-11-17T20:37:11Z</time>
      </trkpt>
      <trkpt lat="44.08002" lon="5.98476">
        <ele>540</ele>
        <time>2023-11-17T20:37:12Z</time>
      </trkpt>
      <trkpt lat="44.07998" lon="5.9848">
        <ele>540</ele>
        <time>2023-11-17T20:37:13Z</time>
      </trkpt>
      <trkpt lat="44.07996" lon="5.98509">
        <ele>541</ele>
        <time>2023-11-17T20:37:18Z</time>
      </trkpt>
      <trkpt lat="44.08" lon="5.98523">
        <ele>542</ele>
        <time>2023-11-17T20:37:21Z</time>
      </trkpt>
      <trkpt lat="44.08" lon="5.98541">
        <ele>543</ele>
        <time>2023-11-17T20:37:24Z</time>
      </trkpt>
      <trkpt lat="44.08005" lon="5.98551">
        <ele>543</ele>
        <time>2023-11-17T20:37:26Z</time>
      </trkpt>
      <trkpt lat="44.08041" lon="5.98585">
        <ele>541</ele>
        <time>2023-11-17T20:37:36Z</time>
      </trkpt>
      <trkpt lat="44.08049" lon="5.9859">
        <ele>540</ele>
        <time>2023-11-17T20:37:38Z</time>
      </trkpt>
      <trkpt lat="44.08056" lon="5.986">
        <ele>540</ele>
        <time>2023-11-17T20:37:40Z</time>
      </trkpt>
      <trkpt lat="44.08073" lon="5.98605">
        <ele>538</ele>
        <time>2023-11-17T20:37:44Z</time>
      </trkpt>
      <trkpt lat="44.08085" lon="5.98601">
        <ele>536</ele>
        <time>2023-11-17T20:37:47Z</time>
      </trkpt>
      <trkpt lat="44.08095" lon="5.98614">
        <ele>535</ele>
        <time>2023-11-17T20:37:51Z</time>
      </trkpt>
      <trkpt lat="44.08116" lon="5.98634">
        <ele>533</ele>
        <time>2023-11-17T20:37:56Z</time>
      </trkpt>
      <trkpt lat="44.08123" lon="5.98649">
        <ele>532</ele>
        <time>2023-11-17T20:37:59Z</time>
      </trkpt>
      <trkpt lat="44.08132" lon="5.98644">
        <ele>530</ele>
        <time>2023-11-17T20:38:02Z</time>
      </trkpt>
      <trkpt lat="44.08138" lon="5.98648">
        <ele>529</ele>
        <time>2023-11-17T20:38:03Z</time>
      </trkpt>
      <trkpt lat="44.0815" lon="5.98649">
        <ele>528</ele>
        <time>2023-11-17T20:38:06Z</time>
      </trkpt>
      <trkpt lat="44.08154" lon="5.98652">
        <ele>527</ele>
        <time>2023-11-17T20:38:07Z</time>
      </trkpt>
      <trkpt lat="44.08161" lon="5.98663">
        <ele>525</ele>
        <time>2023-11-17T20:38:10Z</time>
      </trkpt>
      <trkpt lat="44.08164" lon="5.98675">
        <ele>525</ele>
        <time>2023-11-17T20:38:12Z</time>
      </trkpt>
      <trkpt lat="44.08173" lon="5.98686">
        <ele>525</ele>
        <time>2023-11-17T20:38:15Z</time>
      </trkpt>
      <trkpt lat="44.08172" lon="5.98691">
        <ele>525</ele>
        <time>2023-11-17T20:38:15Z</time>
      </trkpt>
      <trkpt lat="44.08158" lon="5.98696">
        <ele>527</ele>
        <time>2023-11-17T20:38:19Z</time>
      </trkpt>
      <trkpt lat="44.08156" lon="5.98702">
        <ele>527</ele>
        <time>2023-11-17T20:38:20Z</time>
      </trkpt>
      <trkpt lat="44.08157" lon="5.98717">
        <ele>528</ele>
        <time>2023-11-17T20:38:22Z</time>
      </trkpt>
      <trkpt lat="44.08165" lon="5.9873">
        <ele>527</ele>
        <time>2023-11-17T20:38:25Z</time>
      </trkpt>
      <trkpt lat="44.08163" lon="5.98738">
        <ele>527</ele>
        <time>2023-11-17T20:38:27Z</time>
      </trkpt>
      <trkpt lat="44.08161" lon="5.98741">
        <ele>528</ele>
        <time>2023-11-17T20:38:27Z</time>
      </trkpt>
      <trkpt lat="44.08158" lon="5.98741">
        <ele>528</ele>
        <time>2023-11-17T20:38:28Z</time>
      </trkpt>
      <trkpt lat="44.08157" lon="5.98746">
        <ele>529</ele>
        <time>2023-11-17T20:38:29Z</time>
      </trkpt>
      <trkpt lat="44.08171" lon="5.9879">
        <ele>530</ele>
        <time>2023-11-17T20:38:37Z</time>
      </trkpt>
      <trkpt lat="44.08169" lon="5.98791">
        <ele>530</ele>
        <time>2023-11-17T20:38:38Z</time>
      </trkpt>
      <trkpt lat="44.0816" lon="5.98785">
        <ele>531</ele>
        <time>2023-11-17T20:38:40Z</time>
      </trkpt>
      <trkpt lat="44.08155" lon="5.98786">
        <ele>531</ele>
        <time>2023-11-17T20:38:41Z</time>
      </trkpt>
      <trkpt lat="44.08154" lon="5.98796">
        <ele>532</ele>
        <time>2023-11-17T20:38:43Z</time>
      </trkpt>
      <trkpt lat="44.08156" lon="5.98804">
        <ele>532</ele>
        <time>2023-11-17T20:38:44Z</time>
      </trkpt>
      <trkpt lat="44.0815" lon="5.9881">
        <ele>533</ele>
        <time>2023-11-17T20:38:46Z</time>
      </trkpt>
      <trkpt lat="44.08143" lon="5.98806">
        <ele>534</ele>
        <time>2023-11-17T20:38:48Z</time>
      </trkpt>
      <trkpt lat="44.08119" lon="5.98775">
        <ele>536</ele>
        <time>2023-11-17T20:38:55Z</time>
      </trkpt>
      <trkpt lat="44.08099" lon="5.98756">
        <ele>540</ele>
        <time>2023-11-17T20:39:01Z</time>
      </trkpt>
      <trkpt lat="44.08093" lon="5.98741">
        <ele>541</ele>
        <time>2023-11-17T20:39:04Z</time>
      </trkpt>
      <trkpt lat="44.08092" lon="5.98728">
        <ele>540</ele>
        <time>2023-11-17T20:39:06Z</time>
      </trkpt>
      <trkpt lat="44.08077" lon="5.98715">
        <ele>542</ele>
        <time>2023-11-17T20:39:10Z</time>
      </trkpt>
      <trkpt lat="44.08071" lon="5.98706">
        <ele>542</ele>
        <time>2023-11-17T20:39:12Z</time>
      </trkpt>
      <trkpt lat="44.0807" lon="5.98693">
        <ele>542</ele>
        <time>2023-11-17T20:39:14Z</time>
      </trkpt>
      <trkpt lat="44.08061" lon="5.98679">
        <ele>543</ele>
        <time>2023-11-17T20:39:18Z</time>
      </trkpt>
      <trkpt lat="44.08052" lon="5.98645">
        <ele>543</ele>
        <time>2023-11-17T20:39:24Z</time>
      </trkpt>
      <trkpt lat="44.08048" lon="5.98639">
        <ele>543</ele>
        <time>2023-11-17T20:39:25Z</time>
      </trkpt>
      <trkpt lat="44.08041" lon="5.98635">
        <ele>544</ele>
        <time>2023-11-17T20:39:27Z</time>
      </trkpt>
      <trkpt lat="44.08034" lon="5.98635">
        <ele>545</ele>
        <time>2023-11-17T20:39:28Z</time>
      </trkpt>
      <trkpt lat="44.0803" lon="5.98631">
        <ele>546</ele>
        <time>2023-11-17T20:39:30Z</time>
      </trkpt>
      <trkpt lat="44.07991" lon="5.98568">
        <ele>547</ele>
        <time>2023-11-17T20:39:44Z</time>
      </trkpt>
      <trkpt lat="44.07986" lon="5.98552">
        <ele>546</ele>
        <time>2023-11-17T20:39:46Z</time>
      </trkpt>
      <trkpt lat="44.07974" lon="5.98553">
        <ele>548</ele>
        <time>2023-11-17T20:39:49Z</time>
      </trkpt>
      <trkpt lat="44.0797" lon="5.98538">
        <ele>548</ele>
        <time>2023-11-17T20:39:52Z</time>
      </trkpt>
      <trkpt lat="44.07962" lon="5.9853">
        <ele>549</ele>
        <time>2023-11-17T20:39:54Z</time>
      </trkpt>
      <trkpt lat="44.07959" lon="5.98507">
        <ele>547</ele>
        <time>2023-11-17T20:39:58Z</time>
      </trkpt>
      <trkpt lat="44.07953" lon="5.98505">
        <ele>548</ele>
        <time>2023-11-17T20:40:00Z</time>
      </trkpt>
      <trkpt lat="44.07935" lon="5.98509">
        <ele>551</ele>
        <time>2023-11-17T20:40:04Z</time>
      </trkpt>
      <trkpt lat="44.07926" lon="5.98506">
        <ele>552</ele>
        <time>2023-11-17T20:40:06Z</time>
      </trkpt>
      <trkpt lat="44.07925" lon="5.98484">
        <ele>551</ele>
        <time>2023-11-17T20:40:10Z</time>
      </trkpt>
      <trkpt lat="44.07915" lon="5.98471">
        <ele>552</ele>
        <time>2023-11-17T20:40:13Z</time>
      </trkpt>
      <trkpt lat="44.07925" lon="5.98454">
        <ele>550</ele>
        <time>2023-11-17T20:40:17Z</time>
      </trkpt>
      <trkpt lat="44.07916" lon="5.98435">
        <ele>551</ele>
        <time>2023-11-17T20:40:20Z</time>
      </trkpt>
      <trkpt lat="44.07913" lon="5.98421">
        <ele>550</ele>
        <time>2023-11-17T20:40:23Z</time>
      </trkpt>
      <trkpt lat="44.07908" lon="5.98417">
        <ele>551</ele>
        <time>2023-11-17T20:40:24Z</time>
      </trkpt>
      <trkpt lat="44.07897" lon="5.98415">
        <ele>551</ele>
        <time>2023-11-17T20:40:27Z</time>
      </trkpt>
      <trkpt lat="44.07892" lon="5.98417">
        <ele>552</ele>
        <time>2023-11-17T20:40:28Z</time>
      </trkpt>
      <trkpt lat="44.07884" lon="5.98429">
        <ele>553</ele>
        <time>2023-11-17T20:40:31Z</time>
      </trkpt>
      <trkpt lat="44.07881" lon="5.9843">
        <ele>554</ele>
        <time>2023-11-17T20:40:31Z</time>
      </trkpt>
      <trkpt lat="44.07878" lon="5.98422">
        <ele>553</ele>
        <time>2023-11-17T20:40:33Z</time>
      </trkpt>
      <trkpt lat="44.07863" lon="5.98416">
        <ele>554</ele>
        <time>2023-11-17T20:40:37Z</time>
      </trkpt>
      <trkpt lat="44.07862" lon="5.98404">
        <ele>553</ele>
        <time>2023-11-17T20:40:39Z</time>
      </trkpt>
      <trkpt lat="44.07855" lon="5.98389">
        <ele>552</ele>
        <time>2023-11-17T20:40:42Z</time>
      </trkpt>
      <trkpt lat="44.0784" lon="5.98375">
        <ele>551</ele>
        <time>2023-11-17T20:40:46Z</time>
      </trkpt>
      <trkpt lat="44.0783" lon="5.98358">
        <ele>549</ele>
        <time>2023-11-17T20:40:50Z</time>
      </trkpt>
      <trkpt lat="44.07826" lon="5.98357">
        <ele>549</ele>
        <time>2023-11-17T20:40:51Z</time>
      </trkpt>
      <trkpt lat="44.07812" lon="5.98361">
        <ele>551</ele>
        <time>2023-11-17T20:40:54Z</time>
      </trkpt>
      <trkpt lat="44.07786" lon="5.98357">
        <ele>553</ele>
        <time>2023-11-17T20:41:00Z</time>
      </trkpt>
      <trkpt lat="44.07764" lon="5.9834">
        <ele>552</ele>
        <time>2023-11-17T20:41:06Z</time>
      </trkpt>
      <trkpt lat="44.07753" lon="5.9834">
        <ele>553</ele>
        <time>2023-11-17T20:41:08Z</time>
      </trkpt>
      <trkpt lat="44.07744" lon="5.98324">
        <ele>551</ele>
        <time>2023-11-17T20:41:12Z</time>
      </trkpt>
      <trkpt lat="44.07724" lon="5.98316">
        <ele>550</ele>
        <time>2023-11-17T20:41:17Z</time>
      </trkpt>
      <trkpt lat="44.07702" lon="5.98303">
        <ele>548</ele>
        <time>2023-11-17T20:41:22Z</time>
      </trkpt>
      <trkpt lat="44.07688" lon="5.98299">
        <ele>548</ele>
        <time>2023-11-17T20:41:26Z</time>
      </trkpt>
      <trkpt lat="44.07675" lon="5.98299">
        <ele>548</ele>
        <time>2023-11-17T20:41:29Z</time>
      </trkpt>
      <trkpt lat="44.07668" lon="5.98296">
        <ele>548</ele>
        <time>2023-11-17T20:41:30Z</time>
      </trkpt>
      <trkpt lat="44.07649" lon="5.98281">
        <ele>545</ele>
        <time>2023-11-17T20:41:35Z</time>
      </trkpt>
      <trkpt lat="44.07643" lon="5.98269">
        <ele>543</ele>
        <time>2023-11-17T20:41:38Z</time>
      </trkpt>
      <trkpt lat="44.07636" lon="5.98262">
        <ele>541</ele>
        <time>2023-11-17T20:41:40Z</time>
      </trkpt>
      <trkpt lat="44.07622" lon="5.9826">
        <ele>541</ele>
        <time>2023-11-17T20:41:43Z</time>
      </trkpt>
      <trkpt lat="44.07588" lon="5.98249">
        <ele>539</ele>
        <time>2023-11-17T20:41:51Z</time>
      </trkpt>
      <trkpt lat="44.07539" lon="5.98255">
        <ele>544</ele>
        <time>2023-11-17T20:42:03Z</time>
      </trkpt>
      <trkpt lat="44.07517" lon="5.98244">
        <ele>543</ele>
        <time>2023-11-17T20:42:08Z</time>
      </trkpt>
      <trkpt lat="44.075" lon="5.9823">
        <ele>541</ele>
        <time>2023-11-17T20:42:13Z</time>
      </trkpt>
      <trkpt lat="44.07478" lon="5.98224">
        <ele>541</ele>
        <time>2023-11-17T20:42:18Z</time>
      </trkpt>
      <trkpt lat="44.07452" lon="5.98213">
        <ele>540</ele>
        <time>2023-11-17T20:42:24Z</time>
      </trkpt>
      <trkpt lat="44.07422" lon="5.98219">
        <ele>543</ele>
        <time>2023-11-17T20:42:32Z</time>
      </trkpt>
      <trkpt lat="44.07392" lon="5.9821">
        <ele>541</ele>
        <time>2023-11-17T20:42:39Z</time>
      </trkpt>
      <trkpt lat="44.07365" lon="5.98213">
        <ele>542</ele>
        <time>2023-11-17T20:42:45Z</time>
      </trkpt>
      <trkpt lat="44.07303" lon="5.9818">
        <ele>537</ele>
        <time>2023-11-17T20:43:01Z</time>
      </trkpt>
      <trkpt lat="44.07252" lon="5.98159">
        <ele>537</ele>
        <time>2023-11-17T20:43:13Z</time>
      </trkpt>
      <trkpt lat="44.07226" lon="5.98138">
        <ele>533</ele>
        <time>2023-11-17T20:43:20Z</time>
      </trkpt>
      <trkpt lat="44.072" lon="5.98128">
        <ele>531</ele>
        <time>2023-11-17T20:43:26Z</time>
      </trkpt>
      <trkpt lat="44.07191" lon="5.98129">
        <ele>531</ele>
        <time>2023-11-17T20:43:28Z</time>
      </trkpt>
      <trkpt lat="44.07185" lon="5.98132">
        <ele>532</ele>
        <time>2023-11-17T20:43:30Z</time>
      </trkpt>
      <trkpt lat="44.07183" lon="5.98137">
        <ele>532</ele>
        <time>2023-11-17T20:43:31Z</time>
      </trkpt>
      <trkpt lat="44.07182" lon="5.98158">
        <ele>535</ele>
        <time>2023-11-17T20:43:34Z</time>
      </trkpt>
      <trkpt lat="44.07209" lon="5.98177">
        <ele>537</ele>
        <time>2023-11-17T20:43:41Z</time>
      </trkpt>
      <trkpt lat="44.07252" lon="5.98191">
        <ele>539</ele>
        <time>2023-11-17T20:43:52Z</time>
      </trkpt>
      <trkpt lat="44.07265" lon="5.9819">
        <ele>539</ele>
        <time>2023-11-17T20:43:55Z</time>
      </trkpt>
      <trkpt lat="44.07271" lon="5.98192">
        <ele>539</ele>
        <time>2023-11-17T20:43:56Z</time>
      </trkpt>
      <trkpt lat="44.07317" lon="5.98232">
        <ele>544</ele>
        <time>2023-11-17T20:44:09Z</time>
      </trkpt>
      <trkpt lat="44.0733" lon="5.98233">
        <ele>545</ele>
        <time>2023-11-17T20:44:12Z</time>
      </trkpt>
      <trkpt lat="44.07371" lon="5.98245">
        <ele>549</ele>
        <time>2023-11-17T20:44:22Z</time>
      </trkpt>
      <trkpt lat="44.07383" lon="5.98252">
        <ele>551</ele>
        <time>2023-11-17T20:44:25Z</time>
      </trkpt>
      <trkpt lat="44.07417" lon="5.98257">
        <ele>553</ele>
        <time>2023-11-17T20:44:33Z</time>
      </trkpt>
      <trkpt lat="44.07444" lon="5.98269">
        <ele>553</ele>
        <time>2023-11-17T20:44:39Z</time>
      </trkpt>
      <trkpt lat="44.07468" lon="5.98286">
        <ele>554</ele>
        <time>2023-11-17T20:44:46Z</time>
      </trkpt>
      <trkpt lat="44.07483" lon="5.98303">
        <ele>555</ele>
        <time>2023-11-17T20:44:50Z</time>
      </trkpt>
      <trkpt lat="44.07504" lon="5.98312">
        <ele>556</ele>
        <time>2023-11-17T20:44:55Z</time>
      </trkpt>
      <trkpt lat="44.07519" lon="5.98312">
        <ele>555</ele>
        <time>2023-11-17T20:44:59Z</time>
      </trkpt>
      <trkpt lat="44.07537" lon="5.98319">
        <ele>556</ele>
        <time>2023-11-17T20:45:03Z</time>
      </trkpt>
      <trkpt lat="44.07543" lon="5.98325">
        <ele>557</ele>
        <time>2023-11-17T20:45:05Z</time>
      </trkpt>
      <trkpt lat="44.07553" lon="5.98343">
        <ele>559</ele>
        <time>2023-11-17T20:45:09Z</time>
      </trkpt>
      <trkpt lat="44.07556" lon="5.98355">
        <ele>560</ele>
        <time>2023-11-17T20:45:11Z</time>
      </trkpt>
      <trkpt lat="44.07549" lon="5.98385">
        <ele>561</ele>
        <time>2023-11-17T20:45:16Z</time>
      </trkpt>
      <trkpt lat="44.07536" lon="5.98402">
        <ele>560</ele>
        <time>2023-11-17T20:45:20Z</time>
      </trkpt>
      <trkpt lat="44.07522" lon="5.98434">
        <ele>559</ele>
        <time>2023-11-17T20:45:27Z</time>
      </trkpt>
      <trkpt lat="44.07499" lon="5.98457">
        <ele>555</ele>
        <time>2023-11-17T20:45:33Z</time>
      </trkpt>
      <trkpt lat="44.07476" lon="5.98508">
        <ele>548</ele>
        <time>2023-11-17T20:45:43Z</time>
      </trkpt>
      <trkpt lat="44.0746" lon="5.98569">
        <ele>540</ele>
        <time>2023-11-17T20:45:54Z</time>
      </trkpt>
      <trkpt lat="44.07463" lon="5.98621">
        <ele>535</ele>
        <time>2023-11-17T20:46:03Z</time>
      </trkpt>
      <trkpt lat="44.07465" lon="5.98633">
        <ele>534</ele>
        <time>2023-11-17T20:46:05Z</time>
      </trkpt>
      <trkpt lat="44.07474" lon="5.98658">
        <ele>534</ele>
        <time>2023-11-17T20:46:10Z</time>
      </trkpt>
      <trkpt lat="44.0749" lon="5.98692">
        <ele>532</ele>
        <time>2023-11-17T20:46:17Z</time>
      </trkpt>
      <trkpt lat="44.07508" lon="5.98718">
        <ele>532</ele>
        <time>2023-11-17T20:46:23Z</time>
      </trkpt>
      <trkpt lat="44.07518" lon="5.98726">
        <ele>533</ele>
        <time>2023-11-17T20:46:25Z</time>
      </trkpt>
      <trkpt lat="44.07534" lon="5.98747">
        <ele>533</ele>
        <time>2023-11-17T20:46:30Z</time>
      </trkpt>
      <trkpt lat="44.07544" lon="5.98765">
        <ele>532</ele>
        <time>2023-11-17T20:46:34Z</time>
      </trkpt>
      <trkpt lat="44.07555" lon="5.98777">
        <ele>533</ele>
        <time>2023-11-17T20:46:38Z</time>
      </trkpt>
      <trkpt lat="44.07558" lon="5.98817">
        <ele>526</ele>
        <time>2023-11-17T20:46:44Z</time>
      </trkpt>
      <trkpt lat="44.07581" lon="5.98852">
        <ele>524</ele>
        <time>2023-11-17T20:46:52Z</time>
      </trkpt>
      <trkpt lat="44.07584" lon="5.9886">
        <ele>523</ele>
        <time>2023-11-17T20:46:54Z</time>
      </trkpt>
      <trkpt lat="44.07583" lon="5.98864">
        <ele>522</ele>
        <time>2023-11-17T20:46:54Z</time>
      </trkpt>
      <trkpt lat="44.07578" lon="5.98868">
        <ele>520</ele>
        <time>2023-11-17T20:46:56Z</time>
      </trkpt>
      <trkpt lat="44.07575" lon="5.98867">
        <ele>520</ele>
        <time>2023-11-17T20:46:57Z</time>
      </trkpt>
      <trkpt lat="44.0754" lon="5.98833">
        <ele>519</ele>
        <time>2023-11-17T20:47:06Z</time>
      </trkpt>
      <trkpt lat="44.07534" lon="5.98837">
        <ele>517</ele>
        <time>2023-11-17T20:47:08Z</time>
      </trkpt>
      <trkpt lat="44.07536" lon="5.98847">
        <ele>516</ele>
        <time>2023-11-17T20:47:10Z</time>
      </trkpt>
      <trkpt lat="44.07575" lon="5.98921">
        <ele>510</ele>
        <time>2023-11-17T20:47:25Z</time>
      </trkpt>
      <trkpt lat="44.076" lon="5.98952">
        <ele>509</ele>
        <time>2023-11-17T20:47:33Z</time>
      </trkpt>
      <trkpt lat="44.07611" lon="5.9896">
        <ele>510</ele>
        <time>2023-11-17T20:47:36Z</time>
      </trkpt>
      <trkpt lat="44.07627" lon="5.98982">
        <ele>508</ele>
        <time>2023-11-17T20:47:41Z</time>
      </trkpt>
      <trkpt lat="44.07613" lon="5.98965">
        <ele>509</ele>
        <time>2023-11-17T20:47:45Z</time>
      </trkpt>
      <trkpt lat="44.07609" lon="5.98962">
        <ele>509</ele>
        <time>2023-11-17T20:47:47Z</time>
      </trkpt>
      <trkpt lat="44.07607" lon="5.98963">
        <ele>508</ele>
        <time>2023-11-17T20:47:47Z</time>
      </trkpt>
      <trkpt lat="44.07597" lon="5.98976">
        <ele>505</ele>
        <time>2023-11-17T20:47:50Z</time>
      </trkpt>
      <trkpt lat="44.0756" lon="5.99038">
        <ele>492</ele>
        <time>2023-11-17T20:48:04Z</time>
      </trkpt>
      <trkpt lat="44.07543" lon="5.9906">
        <ele>488</ele>
        <time>2023-11-17T20:48:09Z</time>
      </trkpt>
      <trkpt lat="44.07534" lon="5.99064">
        <ele>487</ele>
        <time>2023-11-17T20:48:11Z</time>
      </trkpt>
      <trkpt lat="44.07507" lon="5.99056">
        <ele>484</ele>
        <time>2023-11-17T20:48:18Z</time>
      </trkpt>
      <trkpt lat="44.07502" lon="5.99059">
        <ele>484</ele>
        <time>2023-11-17T20:48:19Z</time>
      </trkpt>
      <trkpt lat="44.07496" lon="5.99079">
        <ele>482</ele>
        <time>2023-11-17T20:48:23Z</time>
      </trkpt>
      <trkpt lat="44.07498" lon="5.99104">
        <ele>481</ele>
        <time>2023-11-17T20:48:27Z</time>
      </trkpt>
      <trkpt lat="44.07502" lon="5.9912">
        <ele>481</ele>
        <time>2023-11-17T20:48:30Z</time>
      </trkpt>
      <trkpt lat="44.07512" lon="5.99143">
        <ele>481</ele>
        <time>2023-11-17T20:48:34Z</time>
      </trkpt>
      <trkpt lat="44.07532" lon="5.99175">
        <ele>481</ele>
        <time>2023-11-17T20:48:41Z</time>
      </trkpt>
      <trkpt lat="44.07535" lon="5.99174">
        <ele>482</ele>
        <time>2023-11-17T20:48:42Z</time>
      </trkpt>
      <trkpt lat="44.07525" lon="5.99158">
        <ele>481</ele>
        <time>2023-11-17T20:48:46Z</time>
      </trkpt>
      <trkpt lat="44.07512" lon="5.99147">
        <ele>481</ele>
        <time>2023-11-17T20:48:49Z</time>
      </trkpt>
      <trkpt lat="44.07502" lon="5.99147">
        <ele>480</ele>
        <time>2023-11-17T20:48:52Z</time>
      </trkpt>
      <trkpt lat="44.07493" lon="5.99154">
        <ele>479</ele>
        <time>2023-11-17T20:48:54Z</time>
      </trkpt>
      <trkpt lat="44.0748" lon="5.99168">
        <ele>478</ele>
        <time>2023-11-17T20:48:58Z</time>
      </trkpt>
      <trkpt lat="44.07453" lon="5.99205">
        <ele>477</ele>
        <time>2023-11-17T20:49:07Z</time>
      </trkpt>
      <trkpt lat="44.07441" lon="5.99214">
        <ele>476</ele>
        <time>2023-11-17T20:49:10Z</time>
      </trkpt>
      <trkpt lat="44.07431" lon="5.99239">
        <ele>476</ele>
        <time>2023-11-17T20:49:15Z</time>
      </trkpt>
      <trkpt lat="44.07401" lon="5.99282">
        <ele>475</ele>
        <time>2023-11-17T20:49:25Z</time>
      </trkpt>
      <trkpt lat="44.07378" lon="5.99284">
        <ele>474</ele>
        <time>2023-11-17T20:49:30Z</time>
      </trkpt>
      <trkpt lat="44.07328" lon="5.99277">
        <ele>472</ele>
        <time>2023-11-17T20:49:42Z</time>
      </trkpt>
      <trkpt lat="44.07158" lon="5.9924">
        <ele>466</ele>
        <time>2023-11-17T20:50:22Z</time>
      </trkpt>
      <trkpt lat="44.0715" lon="5.99242">
        <ele>466</ele>
        <time>2023-11-17T20:50:24Z</time>
      </trkpt>
      <trkpt lat="44.07143" lon="5.99248">
        <ele>466</ele>
        <time>2023-11-17T20:50:26Z</time>
      </trkpt>
      <trkpt lat="44.07123" lon="5.99275">
        <ele>465</ele>
        <time>2023-11-17T20:50:32Z</time>
      </trkpt>
      <trkpt lat="44.07102" lon="5.99309">
        <ele>465</ele>
        <time>2023-11-17T20:50:40Z</time>
      </trkpt>
      <trkpt lat="44.07096" lon="5.99315">
        <ele>465</ele>
        <time>2023-11-17T20:50:42Z</time>
      </trkpt>
      <trkpt lat="44.0709" lon="5.99315">
        <ele>465</ele>
        <time>2023-11-17T20:50:43Z</time>
      </trkpt>
      <trkpt lat="44.07083" lon="5.99309">
        <ele>465</ele>
        <time>2023-11-17T20:50:45Z</time>
      </trkpt>
      <trkpt lat="44.06976" lon="5.99174">
        <ele>463</ele>
        <time>2023-11-17T20:51:19Z</time>
      </trkpt>
      <trkpt lat="44.06932" lon="5.99112">
        <ele>462</ele>
        <time>2023-11-17T20:51:33Z</time>
      </trkpt>
      <trkpt lat="44.06915" lon="5.99093">
        <ele>462</ele>
        <time>2023-11-17T20:51:38Z</time>
      </trkpt>
      <trkpt lat="44.06912" lon="5.99094">
        <ele>462</ele>
        <time>2023-11-17T20:51:39Z</time>
      </trkpt>
      <trkpt lat="44.0689" lon="5.99122">
        <ele>462</ele>
        <time>2023-11-17T20:51:46Z</time>
      </trkpt>
      <trkpt lat="44.0686" lon="5.99164">
        <ele>462</ele>
        <time>2023-11-17T20:51:56Z</time>
      </trkpt>
      <trkpt lat="44.06825" lon="5.99219">
        <ele>462</ele>
        <time>2023-11-17T20:52:08Z</time>
      </trkpt>
      <trkpt lat="44.06773" lon="5.99287">
        <ele>463</ele>
        <time>2023-11-17T20:52:25Z</time>
      </trkpt>
      <trkpt lat="44.06751" lon="5.99324">
        <ele>462</ele>
        <time>2023-11-17T20:52:33Z</time>
      </trkpt>
      <trkpt lat="44.0675" lon="5.99329">
        <ele>462</ele>
        <time>2023-11-17T20:52:34Z</time>
      </trkpt>
    </trkseg>
  </trk>
</gpx>